[[{"header":{"parameterUnit":"m.s-1","parameterCategory":1,"la1":31.0,"la2":29.5877,"lo1":-88.7671,"lo2":-86.6584,"dx":0.0162,"dy":0.0185,"nx":115,"ny":88,"refTime":"2023-01-04T18:00:00:Z","depth":0,"parameterNumber":2,"parameterNumberName":"U-component_of_WINDS"},"data":[0.0,0.0,0.0,0.0,0.0,0.0,0.0,0.0,0.0,0.0,0.0,0.0,0.0,0.0,0.0,0.0,0.0,0.0,0.0,0.0,0.0,0.0,0.0,0.0,0.0,0.0,0.0,0.0,0.0,0.0,0.0,0.0,0.0,0.0,0.0,0.0,0.0,0.0,0.0,0.0,0.0,0.0,0.0,0.0,0.0,0.0,0.0,0.0,0.0,0.0,0.0,0.0,0.0,0.0,0.0,0.0,0.0,0.0,0.0,0.0,0.0,0.0,0.0,0.0,0.0,0.0,0.0,0.0,0.0,0.0,0.0,0.0,0.0,0.0,0.0,0.0,0.0,0.0,0.0,0.0,0.0,0.0,0.0,0.0,0.0,0.0,0.0,0.0,0.0,0.0,0.0,0.0,0.0,0.0,0.0,0.0,0.0,0.0,0.0,0.0,0.0,0.0,0.0,0.0,0.0,0.0,0.0,0.0,0.0,0.0,0.0,0.0,0.0,0.0,0.0,0.0,0.0,0.0,0.0,0.0,0.0,0.0,0.0,0.0,0.0,0.0,0.0,0.0,0.0,0.0,0.0,0.0,0.0,0.0,0.0,0.0,0.0,0.0,0.0,0.0,0.0,0.0,0.0,0.0,0.0,0.0,0.0,0.0,0.0,0.0,0.0,0.0,0.0,0.0,0.0,0.0,0.0,0.0,0.0,0.0,0.0,0.0,0.0,0.0,0.0,0.0,0.0,0.0,0.0,0.0,0.0,0.0,0.0,0.0,0.0,0.0,0.0,0.0,0.0,0.0,0.0,0.0,0.0,0.0,0.0,0.0,0.0,0.0,0.0,0.0,0.0,0.0,0.0,0.0,0.0,0.0,0.0,0.0,0.0,0.0,0.0,0.0,0.0,0.0,0.0,0.0,0.0,0.0,0.0,0.0,0.0,0.0,0.0,0.0,0.0,0.0,0.0,0.0,0.0,0.0,0.0,0.0,0.0,0.0,0.0,0.0,0.0,0.0,0.0,0.0,0.0,0.0,0.0,0.0,0.0,0.0,0.0,0.0,0.0,0.0,0.0,0.0,0.0,0.0,0.0,0.0,0.0,0.0,0.0,0.0,0.0,0.0,0.0,0.0,0.0,0.0,0.0,0.0,0.0,0.0,0.0,0.0,0.0,0.0,0.0,0.0,0.0,0.0,0.0,0.0,0.0,0.0,0.0,0.0,0.0,0.0,0.0,0.0,0.0,0.0,0.0,0.0,0.0,0.0,0.0,0.0,0.0,0.0,0.0,0.0,0.0,0.0,0.0,0.0,0.0,0.0,0.0,0.0,0.0,0.0,0.0,0.0,0.0,0.0,0.0,0.0,0.0,0.0,0.0,0.0,0.0,0.0,0.0,0.0,0.0,0.0,0.0,0.0,0.0,0.0,0.0,0.0,0.0,0.0,0.0,0.0,0.0,0.0,0.0,0.0,0.0,0.0,0.0,0.0,0.0,0.0,0.0,0.0,0.0,0.0,0.0,0.0,0.0,0.0,0.0,0.0,0.0,0.0,0.0,0.0,0.0,0.0,0.0,0.0,0.0,0.0,0.0,0.0,0.0,0.0,0.0,0.0,0.0,0.0,0.0,0.0,0.0,0.0,0.0,0.0,0.0,0.0,0.0,0.0,0.0,0.0,0.0,0.0,0.0,0.0,0.0,0.0,0.0,0.0,0.0,0.0,0.0,0.0,0.0,0.0,0.0,0.0,0.0,0.0,0.0,0.0,0.0,0.0,0.0,0.0,0.0,0.0,0.0,0.0,0.0,0.0,0.0,0.0,0.0,0.0,0.0,0.0,0.0,0.0,0.0,0.0,0.0,0.0,0.0,0.0,0.0,0.0,0.0,0.0,0.0,0.0,0.0,0.0,0.0,0.0,0.0,0.0,0.0,0.0,0.0,0.0,0.0,0.0,0.0,0.0,0.0,0.0,0.0,0.0,0.0,0.0,0.0,0.0,0.0,0.0,0.0,0.0,0.0,0.0,0.0,0.0,0.0,0.0,0.0,0.0,0.0,0.0,0.0,0.0,0.0,0.0,0.0,0.0,0.0,0.0,0.0,0.0,0.0,0.0,0.0,0.0,0.0,0.0,0.0,0.0,0.0,0.0,0.0,0.0,0.0,0.0,0.0,0.0,0.0,0.0,0.0,0.0,0.0,0.0,0.0,0.0,0.0,0.0,0.0,0.0,0.0,0.0,0.0,0.0,0.0,0.0,0.0,0.0,0.0,0.0,0.0,0.0,0.0,0.0,0.0,0.0,0.0,0.0,0.0,0.0,0.0,0.0,0.0,0.0,0.0,0.0,0.0,0.0,0.0,0.0,0.0,0.0,0.0,0.0,0.0,0.0,0.0,0.0,0.0,0.0,0.0,0.0,0.0,0.0,0.0,0.0,0.0,0.0,0.0,0.0,0.0,0.0,0.0,0.0,0.0,0.0,0.0,0.0,0.0,0.0,0.0,0.0,0.0,0.0,0.0,0.0,0.0,0.0,0.0,0.0,0.0,0.0,0.0,0.0,0.0,0.0,0.0,0.0,0.0,0.0,0.0,0.0,0.0,0.0,0.0,0.0,0.0,0.0,0.0,0.0,0.0,0.0,0.0,0.0,0.0,0.0,0.0,0.0,0.0,0.0,0.0,0.0,0.0,0.0,0.0,0.0,0.0,0.0,0.0,0.0,0.0,0.0,0.0,0.0,0.0,0.0,0.0,0.0,0.0,0.0,0.0,0.0,0.0,0.0,0.0,0.0,0.0,0.0,0.0,0.0,0.0,0.0,0.0,0.0,0.0,0.0,0.0,0.0,0.0,0.0,0.0,0.0,0.0,0.0,0.0,0.0,0.0,0.0,0.0,0.0,0.0,0.0,0.0,0.0,0.0,0.0,0.0,0.0,0.0,0.0,0.0,0.0,0.0,0.0,0.0,0.0,0.0,0.0,0.0,0.0,0.0,0.0,0.0,0.0,0.0,0.0,0.0,0.0,0.0,0.0,0.0,0.0,0.0,0.0,0.0,0.0,0.0,0.0,0.0,0.0,0.0,0.0,0.0,0.0,0.0,0.0,0.0,0.0,0.0,0.0,0.0,0.0,0.0,0.0,0.0,0.0,0.0,0.0,0.0,0.0,0.0,0.0,0.0,0.0,0.0,0.0,0.0,0.0,0.0,0.0,0.0,0.0,0.0,0.0,0.0,0.0,0.0,0.0,0.0,0.0,0.0,0.0,0.0,0.0,0.0,0.0,0.0,0.0,0.0,0.0,0.0,0.0,0.0,0.0,0.0,0.0,0.0,0.0,0.0,0.0,0.0,0.0,0.0,0.0,0.0,0.0,0.0,0.0,0.0,0.0,0.0,0.0,0.0,0.0,0.0,0.0,0.0,0.0,0.0,0.0,0.0,0.0,0.0,0.0,0.0,0.0,0.0,0.0,0.0,0.0,0.0,0.0,0.0,0.0,0.0,0.0,0.0,0.0,0.0,0.0,0.0,0.0,0.0,0.0,0.0,0.0,0.0,0.0,0.0,0.0,0.0,0.0,0.0,0.0,0.0,0.0,0.0,0.0,0.0,0.0,0.0,0.0,0.0,0.0,0.0,0.0,0.0,0.0,0.0,0.0,0.0,0.0,0.0,0.0,0.0,0.0,0.0,0.0,0.0,0.0,0.0,0.0,0.0,0.0,0.0,0.0,0.0,0.0,0.0,0.0,0.0,0.0,0.0,0.0,0.0,0.0,0.0,0.0,0.0,0.0,0.0,0.0,0.0,0.0,0.0,0.0,0.0,0.0,0.0,0.0,0.0,0.0,0.0,0.0,0.0,0.0,0.0,0.0,0.0,0.0,0.0,0.0,0.0,0.0,0.0,0.0,0.0,0.0,0.0,0.0,0.0,0.0,0.0,0.0,0.0,0.0,0.0,0.0,0.0,0.0,0.0,0.0,0.0,0.0,0.0,0.0,0.0,0.0,0.0,0.0,0.0,0.0,0.0,0.0,0.0,0.0,0.0,0.0,0.0,0.0,0.0,0.0,0.0,0.0,0.0,0.0,0.0,0.0,0.0,0.0,0.0,0.0,0.0,0.0,0.0,0.0,0.0,0.0,0.0,0.0,0.0,0.0,0.0,0.0,0.0,0.0,0.0,0.0,0.0,0.0,0.0,0.0,0.0,0.0,0.0,0.0,0.0,0.0,0.0,0.0,0.0,0.0,0.0,0.0,0.0,0.0,0.0,0.0,0.0,0.0,0.0,0.0,-0.9289,0.0,0.0,0.0,-0.9611,0.0,0.0,0.0,0.0,0.0,0.0,0.0,0.0,0.0,0.0,0.0,0.0,0.0,0.0,0.0,0.0,0.0,0.0,0.0,0.0,0.0,0.0,0.0,0.0,0.0,0.0,0.0,0.0,0.0,0.0,0.0,0.0,0.0,0.0,0.0,0.0,0.0,0.0,0.0,0.0,0.0,0.0,0.0,0.0,0.0,0.0,0.0,0.0,0.0,0.0,0.0,0.0,0.0,0.0,0.0,0.0,0.0,0.0,0.0,0.0,0.0,0.0,0.0,0.0,0.0,0.0,0.0,0.0,0.0,0.0,0.0,0.0,0.0,0.0,0.0,0.0,0.0,0.0,0.0,0.0,0.0,0.0,0.0,0.0,0.0,0.0,0.0,0.0,0.0,0.0,0.0,0.0,0.0,0.0,0.0,0.0,0.0,0.0,0.0,0.0,0.0,0.0,0.0,0.0,0.0,0.0,0.0,0.0,0.0,0.0,-0.9241,-0.855,-0.9588,-0.9821,-0.9041,0.0,0.0,0.0,0.0,0.0,0.0,0.0,0.0,0.0,0.0,0.0,0.0,0.0,0.0,0.0,0.0,0.0,0.0,0.0,0.0,0.0,0.0,0.0,0.0,0.0,0.0,0.0,0.0,0.0,0.0,0.0,0.0,0.0,0.0,0.0,0.0,0.0,0.0,0.0,0.0,0.0,0.0,0.0,0.0,0.0,0.0,0.0,0.0,0.0,0.0,0.0,0.0,0.0,0.0,0.0,0.0,0.0,0.0,0.0,0.0,0.0,0.0,0.0,0.0,0.0,0.0,0.0,0.0,0.0,0.0,0.0,0.0,0.0,0.0,0.0,0.0,0.0,0.0,0.0,0.0,0.0,0.0,0.0,0.0,0.0,0.0,0.0,0.0,0.0,0.0,0.0,0.0,0.0,0.0,0.0,0.0,0.0,0.0,0.0,0.0,0.0,0.0,0.0,0.0,0.0,0.0,0.0,0.0,0.0,0.0,0.0,0.0,-0.9854,-0.9918,-0.8847,0.0,0.0,0.0,0.0,0.0,0.0,0.0,0.0,0.0,0.0,0.0,0.0,0.0,0.0,0.0,0.0,0.0,0.0,0.0,0.0,0.0,0.0,0.0,0.0,0.0,0.0,0.0,0.0,0.0,0.0,0.0,0.0,0.0,0.0,0.0,0.0,0.0,0.0,0.0,0.0,0.0,0.0,0.0,0.0,0.0,0.0,0.0,0.0,0.0,0.0,0.0,0.0,0.0,0.0,0.0,0.0,0.0,0.0,0.0,0.0,0.0,0.0,0.0,0.0,0.0,0.0,0.0,0.0,0.0,0.0,0.0,0.0,0.0,0.0,0.0,0.0,0.0,0.0,0.0,0.0,0.0,0.0,0.0,0.0,0.0,0.0,0.0,0.0,0.0,0.0,0.0,0.0,0.0,0.0,0.0,0.0,0.0,0.0,0.0,0.0,0.0,0.0,0.0,0.0,0.0,0.0,0.0,0.0,0.0,0.0,-0.8886,-0.9491,-0.9627,0.0,-0.9572,0.0,0.0,0.0,0.0,0.0,0.0,0.0,0.0,0.0,0.0,0.0,0.0,0.0,0.0,0.0,0.0,0.0,0.0,0.0,0.0,0.0,0.0,0.0,0.0,0.0,0.0,0.0,0.0,0.0,0.0,0.0,0.0,0.0,0.0,0.0,0.0,0.0,0.0,0.0,0.0,0.0,0.0,0.0,0.0,0.0,0.0,0.0,0.0,0.0,0.0,0.0,0.0,0.0,0.0,0.0,0.0,0.0,0.0,0.0,0.0,0.0,0.0,0.0,0.0,0.0,0.0,0.0,0.0,0.0,0.0,0.0,0.0,0.0,0.0,0.0,0.0,0.0,0.0,0.0,0.0,0.0,0.0,0.0,0.0,0.0,0.0,0.0,0.0,0.0,0.0,0.0,0.0,0.0,0.0,0.0,0.0,0.0,0.0,0.0,0.0,0.0,0.0,0.0,0.0,0.0,0.0,0.0,0.0,0.0,0.0,-0.9269,-0.947,-0.9434,-0.9406,0.0,0.0,0.0,0.0,0.0,0.0,0.0,0.0,0.0,0.0,0.0,0.0,0.0,0.0,0.0,0.0,0.0,0.0,0.0,0.0,0.0,0.0,0.0,0.0,0.0,0.0,0.0,0.0,0.0,0.0,0.0,0.0,0.0,0.0,0.0,0.0,0.0,0.0,0.0,0.0,0.0,0.0,0.0,0.0,0.0,0.0,0.0,0.0,0.0,0.0,0.0,0.0,0.0,0.0,0.0,0.0,0.0,0.0,0.0,0.0,0.0,0.0,0.0,0.0,0.0,0.0,0.0,0.0,0.0,0.0,0.0,0.0,0.0,0.0,0.0,0.0,0.0,0.0,0.0,0.0,0.0,0.0,0.0,0.0,0.0,0.0,0.0,0.0,0.0,0.0,0.0,0.0,0.0,0.0,0.0,0.0,0.0,0.0,0.0,0.0,0.0,0.0,0.0,0.0,0.0,0.0,0.0,0.0,0.0,0.0,-0.9637,-0.9936,-1.0184,-0.9828,-0.9569,-0.9538,0.0,0.0,0.0,0.0,0.0,0.0,0.0,0.0,0.0,0.0,0.0,0.0,0.0,0.0,0.0,0.0,0.0,0.0,0.0,0.0,0.0,0.0,0.0,0.0,0.0,0.0,0.0,0.0,0.0,0.0,0.0,0.0,0.0,0.0,0.0,0.0,0.0,0.0,0.0,0.0,0.0,0.0,0.0,0.0,0.0,0.0,0.0,0.0,0.0,0.0,0.0,0.0,0.0,0.0,0.0,0.0,0.0,0.0,0.0,0.0,0.0,0.0,0.0,0.0,0.0,0.0,0.0,0.0,0.0,0.0,0.0,0.0,0.0,0.0,0.0,0.0,0.0,0.0,0.0,0.0,0.0,0.0,0.0,0.0,0.0,0.0,0.0,0.0,0.0,0.0,0.0,0.0,0.0,0.0,0.0,0.0,0.0,0.0,0.0,0.0,0.0,0.0,0.0,0.0,0.0,0.0,0.0,0.0,-1.1117,-1.06,-1.0907,-1.216,-1.1026,-1.0357,0.0,0.0,0.0,0.0,0.0,0.0,0.0,0.0,0.0,0.0,0.0,0.0,0.0,0.0,0.0,0.0,0.0,0.0,0.0,0.0,0.0,0.0,0.0,0.0,0.0,0.0,0.0,0.0,0.0,0.0,0.0,0.0,0.0,0.0,0.0,0.0,0.0,0.0,0.0,0.0,0.0,0.0,0.0,0.0,0.0,0.0,0.0,0.0,0.0,0.0,0.0,0.0,0.0,0.0,0.0,0.0,0.0,0.0,0.0,0.0,0.0,0.0,0.0,0.0,0.0,0.0,0.0,0.0,0.0,0.0,0.0,0.0,0.0,0.0,0.0,0.0,0.0,0.0,0.0,0.0,0.0,0.0,0.0,0.0,0.0,0.0,0.0,0.0,0.0,0.0,0.0,0.0,0.0,0.0,0.0,0.0,0.0,0.0,0.0,0.0,0.0,0.0,0.0,0.0,0.0,0.0,0.0,0.0,0.0,-1.001,-1.061,-1.1574,-1.2864,-1.1511,-1.0727,0.0,0.0,0.0,0.0,0.0,0.0,0.0,0.0,0.0,0.0,0.0,0.0,0.0,0.0,0.0,0.0,0.0,0.0,0.0,0.0,0.0,0.0,0.0,0.0,0.0,0.0,0.0,0.0,0.0,0.0,0.0,0.0,0.0,0.0,0.0,0.0,0.0,0.0,0.0,0.0,0.0,0.0,0.0,0.0,0.0,0.0,0.0,0.0,0.0,0.0,0.0,0.0,0.0,0.0,0.0,0.0,0.0,0.0,0.0,0.0,0.0,0.0,0.0,0.0,0.0,0.0,0.0,0.0,0.0,0.0,0.0,0.0,0.0,0.0,0.0,0.0,0.0,0.0,0.0,0.0,0.0,0.0,0.0,0.0,0.0,0.0,0.0,0.0,0.0,0.0,0.0,0.0,0.0,0.0,0.0,0.0,0.0,0.0,0.0,0.0,0.0,0.0,0.0,0.0,0.0,0.0,0.0,0.0,0.0,-1.0538,-1.1874,-1.2907,-1.3496,-1.2049,-1.1147,0.0,0.0,0.0,0.0,0.0,0.0,0.0,0.0,0.0,0.0,0.0,0.0,0.0,0.0,0.0,0.0,0.0,0.0,0.0,0.0,0.0,0.0,0.0,0.0,0.0,0.0,0.0,0.0,0.0,0.0,0.0,0.0,0.0,0.0,0.0,0.0,0.0,0.0,0.0,0.0,0.0,0.0,0.0,0.0,0.0,0.0,0.0,0.0,0.0,0.0,0.0,0.0,0.0,0.0,0.0,0.0,0.0,0.0,0.0,0.0,0.0,0.0,0.0,0.0,0.0,0.0,0.0,0.0,0.0,0.0,0.0,0.0,0.0,0.0,0.0,0.0,0.0,0.0,0.0,0.0,0.0,0.0,0.0,0.0,0.0,0.0,0.0,0.0,0.0,0.0,0.0,0.0,0.0,0.0,0.0,0.0,0.0,0.0,0.0,0.0,0.0,0.0,0.0,0.0,0.0,0.0,0.0,0.0,-1.0468,-1.3032,-1.4406,-1.4744,-1.4209,-1.2716,-1.1604,0.0,0.0,0.0,0.0,0.0,0.0,0.0,0.0,0.0,0.0,0.0,0.0,0.0,0.0,0.0,0.0,0.0,0.0,0.0,0.0,0.0,0.0,0.0,0.0,0.0,0.0,0.0,0.0,0.0,0.0,0.0,0.0,0.0,0.0,0.0,0.0,0.0,0.0,0.0,0.0,0.0,0.0,0.0,0.0,0.0,0.0,0.0,0.0,0.0,0.0,0.0,0.0,0.0,0.0,0.0,0.0,0.0,0.0,0.0,0.0,0.0,0.0,0.0,0.0,0.0,0.0,0.0,0.0,0.0,0.0,0.0,0.0,0.0,0.0,0.0,0.0,0.0,0.0,0.0,0.0,0.0,0.0,0.0,0.0,0.0,0.0,0.0,0.0,0.0,0.0,0.0,0.0,0.0,0.0,0.0,0.0,0.0,0.0,0.0,0.0,0.0,0.0,0.0,0.0,0.0,0.0,0.0,0.0,0.0,-1.2534,-1.3809,-1.4624,-1.4811,-1.3277,-1.2317,0.0,0.0,0.0,0.0,0.0,0.0,0.0,0.0,0.0,0.0,0.0,0.0,0.0,0.0,0.0,0.0,0.0,0.0,0.0,0.0,0.0,0.0,0.0,0.0,0.0,0.0,0.0,0.0,0.0,0.0,0.0,0.0,0.0,0.0,0.0,0.0,0.0,0.0,0.0,0.0,0.0,0.0,0.0,0.0,0.0,0.0,0.0,0.0,0.0,0.0,0.0,0.0,0.0,0.0,0.0,0.0,0.0,0.0,0.0,0.0,0.0,0.0,0.0,0.0,0.0,0.0,0.0,0.0,0.0,0.0,0.0,0.0,0.0,0.0,0.0,0.0,0.0,0.0,0.0,0.0,0.0,0.0,0.0,0.0,0.0,0.0,0.0,0.0,0.0,0.0,0.0,0.0,0.0,0.0,0.0,0.0,0.0,0.0,0.0,0.0,0.0,0.0,0.0,0.0,0.0,0.0,0.0,0.0,0.0,-1.3854,-1.5025,-1.5737,-1.5839,-1.4706,-1.3602,-1.2567,0.0,0.0,0.0,0.0,0.0,0.0,0.0,0.0,0.0,0.0,0.0,0.0,0.0,0.0,0.0,0.0,0.0,0.0,0.0,0.0,0.0,0.0,0.0,0.0,0.0,0.0,0.0,0.0,0.0,0.0,0.0,0.0,0.0,0.0,0.0,0.0,0.0,0.0,0.0,0.0,0.0,0.0,0.0,0.0,0.0,0.0,0.0,0.0,0.0,0.0,0.0,0.0,0.0,0.0,0.0,0.0,0.0,0.0,0.0,0.0,0.0,0.0,0.0,0.0,0.0,0.0,0.0,0.0,0.0,0.0,0.0,0.0,0.0,0.0,0.0,0.0,0.0,0.0,0.0,0.0,0.0,0.0,0.0,0.0,0.0,0.0,0.0,0.0,0.0,0.0,0.0,0.0,0.0,0.0,0.0,0.0,0.0,0.0,0.0,0.0,0.0,0.0,0.0,0.0,0.0,0.0,0.0,0.0,-1.6656,-1.7771,-1.7912,-1.7044,-1.668,-1.5272,0.0,0.0,0.0,0.0,0.0,0.0,0.0,0.0,0.0,0.0,0.0,0.0,0.0,0.0,0.0,0.0,0.0,0.0,0.0,0.0,0.0,0.0,0.0,0.0,0.0,0.0,0.0,0.0,0.0,0.0,0.0,0.0,0.0,0.0,0.0,0.0,0.0,0.0,0.0,0.0,0.0,0.0,0.0,0.0,0.0,0.0,0.0,0.0,0.0,0.0,0.0,0.0,0.0,0.0,0.0,0.0,0.0,0.0,0.0,0.0,0.0,0.0,0.0,0.0,0.0,0.0,0.0,0.0,0.0,0.0,0.0,0.0,0.0,0.0,0.0,0.0,0.0,0.0,0.0,0.0,0.0,0.0,0.0,0.0,0.0,0.0,0.0,0.0,0.0,0.0,0.0,0.0,0.0,0.0,0.0,0.0,0.0,0.0,0.0,0.0,0.0,0.0,0.0,0.0,0.0,0.0,0.0,0.0,0.0,-1.8848,-1.9783,-1.9602,-1.8332,-1.6867,-1.5533,0.0,0.0,0.0,0.0,0.0,0.0,0.0,0.0,0.0,0.0,0.0,0.0,0.0,0.0,0.0,0.0,0.0,0.0,0.0,0.0,0.0,0.0,0.0,0.0,0.0,0.0,0.0,0.0,0.0,0.0,0.0,0.0,0.0,0.0,0.0,0.0,0.0,0.0,0.0,0.0,0.0,0.0,0.0,0.0,0.0,0.0,0.0,0.0,0.0,0.0,0.0,0.0,0.0,0.0,0.0,0.0,0.0,0.0,0.0,0.0,0.0,0.0,0.0,0.0,0.0,0.0,0.0,0.0,0.0,0.0,0.0,0.0,0.0,0.0,0.0,0.0,0.0,0.0,0.0,0.0,0.0,0.0,0.0,0.0,0.0,0.0,0.0,0.0,0.0,0.0,0.0,0.0,0.0,0.0,0.0,0.0,0.0,0.0,0.0,0.0,0.0,0.0,0.0,0.0,0.0,0.0,0.0,0.0,-1.7231,-1.9219,-2.0479,-2.0603,-1.9538,-1.796,-1.6477,0.0,0.0,0.0,0.0,0.0,0.0,0.0,0.0,0.0,0.0,0.0,0.0,0.0,0.0,0.0,0.0,0.0,0.0,0.0,0.0,0.0,0.0,0.0,0.0,0.0,0.0,0.0,0.0,0.0,0.0,0.0,0.0,0.0,0.0,0.0,0.0,0.0,0.0,0.0,0.0,0.0,0.0,0.0,0.0,0.0,0.0,0.0,0.0,0.0,0.0,0.0,0.0,0.0,0.0,0.0,0.0,0.0,0.0,0.0,0.0,0.0,0.0,0.0,0.0,0.0,0.0,0.0,0.0,0.0,0.0,0.0,0.0,0.0,0.0,0.0,0.0,0.0,0.0,0.0,0.0,0.0,0.0,0.0,0.0,0.0,0.0,0.0,0.0,0.0,0.0,0.0,0.0,0.0,0.0,0.0,0.0,0.0,0.0,0.0,0.0,0.0,0.0,0.0,0.0,0.0,0.0,0.0,0.0,-1.7258,-1.8761,-2.0471,-2.1093,-2.0539,-1.944,-1.7768,0.0,0.0,0.0,0.0,0.0,0.0,0.0,0.0,0.0,0.0,0.0,0.0,0.0,0.0,0.0,0.0,0.0,0.0,0.0,0.0,0.0,0.0,0.0,0.0,0.0,0.0,0.0,0.0,0.0,0.0,0.0,0.0,0.0,0.0,0.0,0.0,0.0,0.0,0.0,0.0,0.0,0.0,0.0,0.0,0.0,0.0,0.0,0.0,0.0,0.0,0.0,0.0,0.0,0.0,0.0,0.0,0.0,0.0,0.0,0.0,0.0,0.0,0.0,0.0,0.0,0.0,0.0,0.0,0.0,0.0,0.0,0.0,0.0,0.0,0.0,0.0,0.0,0.0,0.0,0.0,0.0,0.0,0.0,0.0,0.0,0.0,0.0,0.0,0.0,0.0,0.0,0.0,0.0,0.0,0.0,0.0,0.0,0.0,0.0,0.0,0.0,0.0,0.0,0.0,0.0,0.0,0.0,0.0,-1.8873,-2.0586,-2.0925,-2.1028,-2.0895,-1.9623,-1.821,0.0,0.0,0.0,0.0,0.0,0.0,0.0,0.0,0.0,0.0,0.0,0.0,0.0,0.0,0.0,0.0,0.0,0.0,0.0,0.0,0.0,0.0,0.0,0.0,0.0,0.0,0.0,0.0,0.0,0.0,0.0,0.0,0.0,0.0,0.0,0.0,0.0,0.0,0.0,0.0,0.0,0.0,0.0,0.0,0.0,0.0,0.0,0.0,-1.1131,0.0,0.0,0.0,0.0,0.0,0.0,0.0,0.0,0.0,0.0,0.0,0.0,0.0,0.0,0.0,0.0,0.0,0.0,0.0,0.0,0.0,0.0,0.0,0.0,0.0,0.0,0.0,0.0,0.0,0.0,0.0,0.0,0.0,0.0,0.0,0.0,0.0,0.0,0.0,0.0,0.0,0.0,0.0,0.0,0.0,0.0,0.0,0.0,0.0,0.0,0.0,0.0,0.0,0.0,0.0,0.0,0.0,0.0,0.0,-1.9101,-2.0298,-2.0777,-2.0888,-2.062,-2.0223,-1.9114,0.0,0.0,0.0,0.0,0.0,0.0,0.0,0.0,0.0,0.0,0.0,0.0,0.0,0.0,0.0,0.0,0.0,0.0,0.0,0.0,0.0,0.0,0.0,0.0,0.0,0.0,0.0,0.0,0.0,0.0,0.0,0.0,0.0,0.0,0.0,0.0,0.0,0.0,0.0,0.0,0.0,0.0,0.0,0.0,0.0,0.0,0.0,0.0,0.0,0.0,0.0,0.0,0.0,0.0,0.0,0.0,0.0,0.0,0.0,0.0,0.0,0.0,0.0,0.0,0.0,0.0,0.0,0.0,0.0,0.0,0.0,0.0,0.0,0.0,0.0,0.0,0.0,0.0,0.0,0.0,0.0,0.0,0.0,0.0,0.0,0.0,0.0,0.0,0.0,0.0,0.0,0.0,0.0,0.0,0.0,0.0,0.0,0.0,0.0,0.0,0.0,0.0,0.0,0.0,0.0,0.0,0.0,-1.7491,-1.8986,-1.9844,-2.0664,-2.0866,-2.0412,-2.0882,-1.9927,-1.7465,0.0,0.0,0.0,0.0,0.0,0.0,0.0,0.0,0.0,0.0,0.0,0.0,0.0,0.0,0.0,0.0,0.0,0.0,0.0,0.0,0.0,0.0,0.0,0.0,0.0,0.0,0.0,0.0,0.0,0.0,0.0,0.0,0.0,0.0,0.0,0.0,0.0,0.0,-0.9288,-1.0495,0.0,0.0,0.0,0.0,0.0,0.0,0.0,0.0,-1.1667,0.0,0.0,0.0,0.0,0.0,0.0,0.0,0.0,0.0,0.0,0.0,0.0,0.0,0.0,0.0,0.0,0.0,0.0,0.0,0.0,0.0,0.0,0.0,0.0,0.0,0.0,0.0,0.0,0.0,0.0,0.0,0.0,0.0,0.0,0.0,0.0,0.0,0.0,0.0,0.0,0.0,0.0,0.0,0.0,0.0,0.0,0.0,0.0,0.0,0.0,0.0,0.0,0.0,0.0,0.0,0.0,-1.6997,-1.8218,-1.9856,-2.1839,-2.1603,-2.1367,-2.1288,-2.0959,-1.9659,-1.7379,0.0,0.0,0.0,0.0,0.0,0.0,0.0,0.0,0.0,0.0,0.0,0.0,0.0,0.0,0.0,0.0,0.0,0.0,0.0,0.0,0.0,0.0,0.0,0.0,0.0,0.0,0.0,0.0,0.0,0.0,0.0,0.0,0.0,0.0,0.0,0.0,0.0,0.0,0.0,-1.226,-1.2394,0.0,0.0,0.0,0.0,0.0,0.0,0.0,0.0,-1.2234,0.0,0.0,0.0,0.0,0.0,0.0,0.0,0.0,0.0,0.0,0.0,0.0,0.0,0.0,0.0,0.0,0.0,0.0,0.0,0.0,0.0,0.0,0.0,0.0,0.0,0.0,0.0,0.0,0.0,0.0,0.0,0.0,0.0,0.0,0.0,0.0,0.0,0.0,0.0,0.0,0.0,0.0,0.0,0.0,0.0,0.0,0.0,0.0,0.0,0.0,0.0,0.0,0.0,0.0,0.0,-1.6835,-1.9091,-2.0793,-2.1864,-2.1642,-2.1459,-2.1368,-2.0949,-1.954,0.0,0.0,0.0,0.0,0.0,0.0,0.0,0.0,0.0,0.0,0.0,0.0,0.0,0.0,0.0,0.0,0.0,0.0,0.0,0.0,0.0,0.0,0.0,0.0,0.0,0.0,0.0,0.0,0.0,0.0,0.0,0.0,0.0,0.0,0.0,0.0,0.0,0.0,0.0,0.0,-1.3197,-1.3637,-1.4626,0.0,0.0,0.0,0.0,0.0,0.0,-1.3153,-1.2403,0.0,0.0,0.0,0.0,0.0,0.0,0.0,0.0,0.0,0.0,0.0,0.0,0.0,0.0,0.0,0.0,0.0,0.0,0.0,0.0,0.0,0.0,0.0,0.0,0.0,0.0,0.0,0.0,0.0,0.0,0.0,0.0,0.0,0.0,0.0,0.0,0.0,0.0,0.0,0.0,0.0,0.0,0.0,0.0,0.0,0.0,0.0,0.0,0.0,0.0,0.0,0.0,0.0,0.0,0.0,-1.6557,-1.9764,-2.1524,-2.1589,-2.1602,-2.1523,-2.1404,-2.0679,-1.9207,0.0,0.0,0.0,0.0,0.0,0.0,0.0,0.0,0.0,0.0,0.0,0.0,0.0,0.0,0.0,0.0,0.0,0.0,0.0,0.0,0.0,0.0,0.0,0.0,0.0,0.0,0.0,0.0,0.0,0.0,0.0,0.0,0.0,0.0,0.0,0.0,0.0,0.0,0.0,0.0,0.0,-1.4644,-1.5331,-1.4947,0.0,0.0,0.0,0.0,-1.4333,-1.3887,0.0,0.0,0.0,0.0,0.0,0.0,0.0,0.0,0.0,0.0,0.0,0.0,0.0,0.0,0.0,0.0,0.0,0.0,0.0,0.0,0.0,0.0,0.0,0.0,0.0,0.0,0.0,0.0,0.0,0.0,0.0,0.0,0.0,0.0,0.0,0.0,0.0,0.0,0.0,0.0,0.0,0.0,0.0,0.0,0.0,0.0,0.0,0.0,0.0,0.0,0.0,0.0,0.0,0.0,0.0,0.0,-1.7133,-1.9876,-2.1548,-2.2,-2.1904,-2.1836,-2.181,-1.9947,-1.8093,0.0,0.0,0.0,0.0,0.0,0.0,0.0,0.0,0.0,0.0,0.0,0.0,0.0,0.0,0.0,0.0,0.0,0.0,0.0,0.0,0.0,0.0,0.0,0.0,0.0,0.0,0.0,0.0,0.0,0.0,0.0,0.0,0.0,0.0,0.0,0.0,0.0,0.0,0.0,0.0,0.0,-1.494,-1.6383,-1.5793,-1.5331,0.0,0.0,-1.6608,-1.7136,-1.7282,0.0,0.0,0.0,0.0,0.0,0.0,0.0,0.0,0.0,0.0,0.0,0.0,0.0,0.0,0.0,0.0,0.0,0.0,0.0,0.0,0.0,0.0,0.0,0.0,0.0,0.0,0.0,0.0,0.0,0.0,0.0,0.0,0.0,0.0,0.0,0.0,0.0,0.0,0.0,0.0,0.0,0.0,0.0,0.0,0.0,0.0,0.0,0.0,0.0,0.0,0.0,0.0,0.0,0.0,0.0,-1.649,-1.7622,-2.0875,-2.2585,-2.2508,-2.2439,-2.237,-2.2298,-2.0309,-1.848,0.0,0.0,0.0,0.0,0.0,0.0,0.0,0.0,0.0,0.0,0.0,0.0,0.0,0.0,0.0,0.0,0.0,0.0,0.0,0.0,0.0,0.0,0.0,0.0,0.0,0.0,0.0,0.0,0.0,0.0,0.0,0.0,0.0,0.0,0.0,0.0,0.0,0.0,0.0,0.0,0.0,0.0,-1.7127,-1.6854,0.0,0.0,0.0,-1.7184,-1.7142,0.0,0.0,0.0,0.0,0.0,0.0,0.0,0.0,0.0,0.0,0.0,0.0,0.0,0.0,0.0,0.0,0.0,0.0,0.0,0.0,0.0,0.0,0.0,0.0,0.0,0.0,0.0,0.0,0.0,0.0,0.0,0.0,0.0,0.0,0.0,0.0,0.0,0.0,0.0,0.0,0.0,0.0,0.0,0.0,0.0,0.0,0.0,0.0,0.0,0.0,0.0,0.0,0.0,0.0,0.0,0.0,0.0,-1.7862,-2.1717,-2.3475,-2.2968,-2.2901,-2.2827,-2.2702,-2.0898,0.0,0.0,0.0,0.0,0.0,0.0,0.0,0.0,0.0,0.0,0.0,0.0,0.0,0.0,0.0,0.0,0.0,0.0,0.0,0.0,0.0,0.0,0.0,0.0,0.0,0.0,0.0,-0.7179,0.0,0.0,0.0,0.0,0.0,0.0,0.0,0.0,0.0,0.0,0.0,0.0,0.0,0.0,-1.6311,-1.7533,-1.7715,-1.7892,0.0,0.0,-1.7617,-1.7513,-1.7863,-1.747,0.0,0.0,0.0,0.0,0.0,0.0,0.0,0.0,0.0,0.0,0.0,0.0,0.0,0.0,0.0,0.0,0.0,0.0,0.0,0.0,0.0,0.0,0.0,0.0,0.0,0.0,0.0,0.0,0.0,0.0,0.0,0.0,0.0,0.0,0.0,0.0,0.0,0.0,0.0,0.0,0.0,0.0,0.0,0.0,0.0,0.0,0.0,0.0,0.0,0.0,0.0,0.0,0.0,0.0,-1.7252,-1.7904,-2.199,-2.391,-2.3365,-2.3177,-2.3088,-2.302,-2.1542,-1.9459,0.0,0.0,0.0,0.0,0.0,0.0,0.0,0.0,0.0,0.0,0.0,0.0,0.0,0.0,0.0,0.0,0.0,0.0,0.0,0.0,0.0,0.0,0.0,0.0,0.0,0.0,0.0,0.0,0.0,0.0,0.0,0.0,0.0,0.0,0.0,0.0,0.0,0.0,0.0,0.0,0.0,-1.6262,-1.7523,-1.8022,-1.8461,0.0,-1.8528,-1.8407,-1.9421,-1.9826,-1.9151,-1.6618,0.0,0.0,0.0,0.0,0.0,0.0,0.0,0.0,0.0,0.0,0.0,0.0,0.0,0.0,0.0,0.0,0.0,0.0,0.0,0.0,0.0,0.0,0.0,0.0,0.0,0.0,0.0,0.0,0.0,0.0,0.0,0.0,0.0,0.0,0.0,0.0,0.0,0.0,0.0,0.0,0.0,0.0,0.0,0.0,0.0,0.0,0.0,0.0,0.0,0.0,0.0,0.0,0.0,-1.7289,-1.8259,-2.2078,-2.3953,-2.3782,-2.3665,-2.3828,-2.4136,-2.232,-2.0686,0.0,0.0,0.0,0.0,0.0,0.0,0.0,0.0,0.0,0.0,0.0,0.0,0.0,0.0,0.0,0.0,0.0,0.0,0.0,0.0,0.0,0.0,0.0,0.0,0.0,0.0,0.0,0.0,-1.0618,-1.0572,-0.9513,0.0,0.0,0.0,0.0,0.0,0.0,0.0,0.0,0.0,0.0,-1.6929,-1.8983,-1.9133,0.0,0.0,-1.98,-1.9563,-2.009,-1.9988,-1.9304,-1.7724,-1.6489,0.0,0.0,0.0,0.0,0.0,0.0,0.0,0.0,0.0,0.0,0.0,0.0,0.0,0.0,0.0,0.0,0.0,0.0,0.0,0.0,0.0,0.0,0.0,0.0,0.0,0.0,0.0,0.0,0.0,0.0,0.0,0.0,0.0,0.0,0.0,0.0,0.0,0.0,0.0,0.0,0.0,0.0,0.0,0.0,0.0,0.0,0.0,0.0,0.0,0.0,0.0,0.0,-1.7537,-1.8692,-2.2497,-2.4481,-2.4481,-2.4644,-2.4833,-2.4963,-2.3462,-2.2122,0.0,0.0,0.0,0.0,0.0,0.0,0.0,0.0,0.0,0.0,0.0,0.0,0.0,0.0,0.0,0.0,0.0,0.0,0.0,0.0,0.0,0.0,0.0,0.0,0.0,0.0,0.0,0.0,-1.1689,-1.1504,-0.9881,0.0,0.0,0.0,0.0,0.0,0.0,0.0,0.0,0.0,0.0,-1.8175,-2.0308,-2.0281,-2.0217,-2.085,-2.056,-2.0313,-2.0397,-2.006,-1.9503,-1.8697,0.0,0.0,0.0,0.0,0.0,0.0,0.0,0.0,0.0,0.0,0.0,0.0,0.0,0.0,0.0,0.0,0.0,0.0,0.0,0.0,0.0,0.0,0.0,0.0,0.0,0.0,0.0,-0.921,0.0,0.0,-0.8408,0.0,0.0,0.0,0.0,0.0,0.0,0.0,0.0,0.0,0.0,0.0,0.0,0.0,0.0,0.0,0.0,0.0,0.0,0.0,0.0,0.0,0.0,-1.8098,-1.9118,-2.3331,-2.5548,-2.5548,-2.6135,-2.6147,-2.5598,-2.5034,-2.3703,-2.1559,0.0,0.0,0.0,0.0,0.0,0.0,0.0,0.0,0.0,0.0,0.0,0.0,0.0,0.0,0.0,0.0,0.0,0.0,0.0,0.0,0.0,0.0,0.0,0.0,0.0,0.0,-0.8716,-0.9778,-1.0467,0.0,0.0,0.0,0.0,0.0,0.0,0.0,0.0,0.0,-1.705,-1.8573,-1.9978,-2.1203,-2.1412,-2.1315,-2.0878,-2.0657,-2.0511,-2.0484,-2.0326,-1.9996,0.0,0.0,0.0,0.0,0.0,0.0,0.0,0.0,0.0,0.0,0.0,0.0,0.0,0.0,0.0,0.0,0.0,0.0,0.0,0.0,0.0,0.0,0.0,0.0,0.0,0.0,0.0,-1.2986,-1.2538,0.0,0.0,0.0,0.0,0.0,0.0,0.0,0.0,0.0,0.0,0.0,-1.7245,-1.7834,0.0,0.0,0.0,0.0,0.0,0.0,0.0,0.0,0.0,0.0,0.0,0.0,-1.8599,-1.9851,-2.3978,-2.6021,-2.5624,-2.6197,-2.6399,-2.6197,-2.5297,-2.3954,-2.2083,0.0,0.0,0.0,0.0,0.0,0.0,0.0,0.0,0.0,0.0,0.0,0.0,0.0,0.0,0.0,0.0,0.0,0.0,0.0,0.0,0.0,0.0,0.0,0.0,0.0,-1.1166,0.0,0.0,0.0,0.0,0.0,0.0,0.0,0.0,0.0,0.0,-1.5121,-1.7412,-1.9017,-2.0097,-2.1216,-2.259,-2.2836,-2.2978,0.0,0.0,0.0,0.0,0.0,0.0,0.0,0.0,0.0,0.0,0.0,0.0,0.0,-1.7775,-1.6831,-1.3708,-1.3359,-1.3576,-1.3753,0.0,0.0,0.0,0.0,0.0,0.0,0.0,0.0,0.0,0.0,0.0,0.0,0.0,0.0,-1.6124,-1.5358,-1.5444,0.0,0.0,0.0,0.0,0.0,0.0,0.0,0.0,-1.8667,-1.9497,-1.9988,-2.0595,-2.0482,-1.9775,-1.951,-1.8012,0.0,0.0,0.0,0.0,0.0,0.0,0.0,0.0,-1.9522,-2.0898,-2.4746,-2.6688,-2.6502,-2.703,-2.7178,-2.6776,-2.5862,-2.487,-2.3791,-2.1769,-1.981,0.0,0.0,0.0,0.0,0.0,0.0,0.0,0.0,0.0,0.0,0.0,0.0,0.0,0.0,0.0,0.0,0.0,0.0,0.0,0.0,0.0,0.0,0.0,-1.2731,0.0,0.0,0.0,0.0,0.0,0.0,0.0,0.0,0.0,-1.4742,-1.7191,-1.9557,-2.1113,-2.1888,-2.2781,-2.3966,0.0,0.0,0.0,0.0,0.0,0.0,0.0,-2.2288,-2.1956,-2.1278,-2.0847,-2.108,-2.119,-2.1108,-2.0718,0.0,0.0,-1.7158,-1.6717,-1.6942,-1.7123,-1.7171,-1.7147,-1.7171,-1.7763,-1.8411,0.0,0.0,0.0,0.0,-1.8141,0.0,0.0,0.0,-1.9886,-1.9007,0.0,-1.8078,0.0,0.0,0.0,0.0,-1.6697,-1.823,0.0,0.0,-2.2849,-2.3647,-2.3208,-2.3728,-2.4017,-2.3991,-2.3396,-2.2359,-2.0717,-1.8141,-1.6158,0.0,0.0,0.0,0.0,0.0,-2.0835,-2.2435,-2.5661,-2.7595,-2.8097,-2.8637,-2.8461,-2.7381,-2.6839,-2.6524,-2.6399,-2.3879,-2.1834,-2.0484,-1.7023,0.0,0.0,0.0,0.0,0.0,0.0,0.0,0.0,0.0,0.0,0.0,0.0,0.0,0.0,0.0,0.0,0.0,0.0,0.0,0.0,-1.3853,0.0,0.0,0.0,0.0,0.0,0.0,0.0,0.0,0.0,-1.8301,-1.6804,-1.9188,-2.1665,-2.3212,0.0,0.0,0.0,0.0,-2.4494,-2.4205,-2.4123,-2.396,-2.336,-2.4003,-2.4463,-2.4243,0.0,0.0,-2.4156,-2.3717,-2.3159,-2.2109,-2.2736,-2.2814,-2.1372,-2.0576,-2.0211,-2.0202,-2.0223,-2.0251,-2.029,-2.0673,-2.1067,-2.1681,0.0,0.0,0.0,0.0,-2.0213,-2.1029,-2.2155,-2.2142,-2.1666,-2.0891,-2.0639,0.0,0.0,0.0,0.0,0.0,0.0,-2.1245,-2.3012,-2.3276,-2.3885,-2.4895,-2.5059,-2.4946,-2.4619,-2.5209,-2.5046,-2.4236,-2.3834,-2.1081,-1.6124,0.0,0.0,0.0,0.0,-2.2464,-2.4136,-2.6944,-2.8499,-2.865,-2.9602,-2.9591,-2.8486,-2.7921,-2.7373,-2.6866,-2.5697,-2.4107,-2.2031,-1.984,0.0,0.0,0.0,0.0,0.0,0.0,0.0,0.0,0.0,0.0,0.0,0.0,0.0,0.0,0.0,0.0,0.0,0.0,0.0,-1.3173,-1.4889,-1.5635,0.0,0.0,0.0,0.0,0.0,0.0,0.0,0.0,0.0,-2.083,-2.2029,-2.3251,0.0,0.0,-2.529,-2.5486,-2.5971,-2.6365,-2.6482,-2.6494,0.0,-2.6062,-2.5703,-2.5419,-2.5338,-2.5821,-2.6068,-2.5741,-2.5779,-2.578,-2.5443,-2.566,-2.5672,-2.525,-2.4104,-2.3196,-2.2858,-2.3305,-2.3634,-2.3357,-2.3691,-2.415,-2.5744,-2.3884,-2.2916,-2.2703,-2.3004,-2.3105,-2.3879,-2.5076,-2.5011,-2.4509,-2.3798,-2.3623,-2.2499,-2.0692,-2.049,0.0,0.0,0.0,-2.3734,-2.5611,-2.5239,-2.5636,-2.6565,-2.6816,-2.6753,-2.6455,-2.7118,-2.7256,-2.6917,-2.7042,-2.4883,-2.0602,0.0,-2.0388,-2.0552,-2.2573,-2.433,-2.5824,-2.8084,-2.9365,-2.9565,-3.0269,-3.0242,-2.95,-2.9099,-2.85,-2.7544,-2.7223,-2.6042,-2.3876,-2.2066,-2.0208,0.0,0.0,0.0,0.0,0.0,0.0,0.0,0.0,0.0,0.0,0.0,-0.966,-0.8563,0.0,0.0,0.0,-1.4938,-1.5561,-1.6111,-1.7268,0.0,0.0,0.0,0.0,0.0,0.0,0.0,-1.8586,-2.119,-2.3364,-2.4079,-2.4764,-2.5373,-2.5894,-2.6297,-2.6639,-2.6921,0.0,-2.7803,-2.811,-2.8109,-2.8084,-2.7982,-2.7578,-2.7334,-2.7478,-2.7682,-2.7873,-2.7847,-2.7891,-2.7834,-2.7798,-2.7486,-2.721,-2.721,-2.6393,-2.5624,-2.5143,-2.5504,-2.5781,-2.5493,-2.5697,-2.6021,-2.9738,-2.8838,-2.5862,-2.5423,-2.664,-2.6151,-2.6781,-2.8186,-2.8014,-2.7345,-2.6452,-2.6755,-2.5667,-2.3732,-2.3993,0.0,-2.5583,-2.5811,-2.6766,-2.8298,-2.826,-2.826,-2.8335,-2.8787,-2.9001,-2.8988,-2.9038,-2.9063,-2.9038,-2.8586,-2.7833,-2.6826,-2.5787,-2.4933,-2.4356,-2.5322,-2.6427,-2.7544,-2.9076,-3.0179,-3.0716,-3.0691,-3.0573,-3.04,-3.0298,-2.9646,-2.8465,-2.8367,-2.7556,-2.5837,-2.3884,-2.2037,-2.035,0.0,0.0,0.0,0.0,0.0,0.0,0.0,0.0,0.0,0.0,0.0,0.0,0.0,0.0,-1.7532,-1.93,0.0,-2.0998,-2.0363,0.0,0.0,0.0,-1.9213,-1.9707,-2.1096,-2.2006,-2.2073,0.0,0.0,-2.6638,-2.7225,-2.7739,-2.8183,-2.8147,-2.8322,-2.9018,-2.8922,-2.894,-2.9049,-2.915,-2.9187,-2.912,-2.9306,-2.9508,-2.9784,-3.0086,-2.9983,-2.9893,-2.9605,-2.9364,-2.9292,-2.8558,-2.7906,-2.7882,-2.7921,-2.7726,-2.7234,-2.7066,-2.7006,-2.6898,-2.6946,-2.703,-3.0602,-3.0733,-2.9955,-2.9313,-2.8724,-2.8536,-2.871,-2.9058,-2.9046,-2.8973,-2.89,-2.8525,-2.7863,-2.6966,-2.7449,-2.7774,-2.8086,-2.8599,-2.9239,-2.9967,-2.9591,-2.9616,-3.003,-3.0116,-2.9993,-2.9666,-3.0407,-3.0608,-3.0244,-3.0482,-3.0269,-2.9654,-2.9365,-2.8323,-2.6615,-2.7595,-2.8562,-2.9482,-3.0368,-3.117,-3.1944,-3.1519,-3.1255,-3.1213,-3.0807,-3.0184,-2.9321,-2.8907,-2.8217,-2.7239,-2.5575,-2.4353,-2.362,-2.0153,0.0,0.0,0.0,0.0,0.0,0.0,0.0,0.0,0.0,-1.4422,-1.2298,0.0,-1.75,0.0,-2.0917,-2.2177,-2.1479,-2.1922,0.0,0.0,-2.1797,-2.2157,-2.3516,-2.4241,-2.4828,-2.5367,-2.6858,-2.7977,-2.8169,-2.8706,-2.9371,-3.0079,-2.9439,-2.8905,-2.9091,-2.9272,-2.9407,-2.9496,-2.9731,-2.9866,-2.9878,-2.9934,-3.0049,-3.0062,-3.0098,-3.0086,-3.0098,-3.0001,-2.9893,-2.9893,-2.9725,-2.9532,-2.9496,-2.9532,-2.9472,-2.9316,-2.8703,-2.8005,-2.7594,-2.781,-2.8126,-3.2164,-3.2227,-3.2345,-3.1693,-3.0556,-3.0388,-3.0284,-3.0296,-3.0204,-3.0244,-3.0376,-2.9932,-2.9582,-2.9321,-2.9697,-2.9874,-2.9899,-3.033,-3.067,-3.0959,-3.0896,-3.0909,-3.0972,-3.121,-3.116,-3.0896,-3.1474,-3.175,-3.1725,-3.2001,-3.1989,-3.1712,-3.1712,-3.1085,-2.9905,-2.9503,-2.9401,-2.9635,-3.0602,-3.1546,-3.2339,-3.2081,-3.1546,-3.0822,-3.0982,-3.0425,-2.9056,-2.9178,-2.8663,-2.7294,-2.6421,-2.5496,-2.4576,-2.1972,-2.0424,0.0,0.0,0.0,0.0,0.0,0.0,0.0,0.0,0.0,0.0,0.0,-2.001,-2.0072,-2.2616,-2.3886,-2.3138,-2.3815,-2.4472,-2.4898,-2.4959,-2.5375,-2.6421,-2.694,-2.7363,-2.7742,-2.8733,-2.9467,-2.9644,-2.9975,-3.0429,-3.1163,-3.0671,-3.0238,-3.0262,-3.0446,-3.0531,-3.0544,-3.0688,-3.0795,-3.0838,-3.0838,-3.0826,-3.0795,-3.0783,-3.0838,-3.0838,-3.0826,-3.0795,-3.0783,-3.0603,-3.0477,-3.0434,-3.0242,-3.0098,-3.0013,-2.9629,-2.9063,-2.8546,-2.8655,-2.8823,-3.3519,-3.3104,-3.3436,-3.2957,-3.2008,-3.1692,-3.1517,-3.1489,-3.1294,-3.1253,-3.1253,-3.1075,-3.0991,-3.1033,-3.1158,-3.1253,-3.1307,-3.1447,-3.1517,-3.1555,-3.2018,-3.1981,-3.1542,-3.2006,-3.2243,-3.2231,-3.2243,-3.2494,-3.2982,-3.2982,-3.2957,-3.2882,-3.287,-3.2807,-3.2594,-3.0841,-2.9752,-2.9414,-3.0478,-3.143,-3.2154,-3.2117,-3.1392,-3.0024,-3.0871,-3.0527,-2.8723,-2.9435,-2.9042,-2.7262,-2.6992,-2.6279,-2.4844,-2.3732,-2.2737,0.0,-2.0638,0.0,0.0,0.0,0.0,0.0,0.0,0.0,0.0,-2.1956,-2.2824,-2.2421,-2.4456,-2.5765,-2.5554,-2.598,-2.6822,-2.807,-2.8276,-2.8403,-2.8763,-2.922,-2.9532,-2.9593,-3.0001,-3.047,-3.091,-3.1019,-3.1199,-3.1585,-3.1609,-3.1544,-3.1645,-3.1597,-3.1585,-3.1705,-3.1705,-3.1585,-3.1609,-3.1657,-3.1645,-3.1681,-3.1633,-3.1705,-3.1645,-3.1657,-3.1681,-3.1645,-3.1308,-3.1031,-3.0975,-3.0615,-3.0368,-3.0362,-3.0326,-3.0086,-2.9532,-2.9376,-2.9244,-3.2648,-3.2543,-3.2587,-3.2519,-3.2332,-3.2253,-3.2068,-3.1895,-3.1864,-3.1951,-3.2167,-3.2124,-3.2068,-3.2124,-3.2136,-3.2179,-3.2167,-3.2167,-3.221,-3.221,-3.2321,-3.2309,-3.2222,-3.2309,-3.2358,-3.237,-3.2358,-3.2407,-3.2519,-3.2519,-3.2284,-3.1809,-3.1797,-3.1353,-3.0569,0.0,0.0,0.0,-3.1161,-3.0839,-3.0994,-3.0589,-3.0208,-2.9926,-3.0515,0.0,-3.027,-3.0012,-2.9717,-2.93,-2.8465,0.0,0.0,0.0,0.0,0.0,0.0,0.0,0.0,0.0,0.0,0.0,-2.2965,-2.3124,-2.1621,-2.3717,-2.5442,-2.602,-2.6954,-2.7789,-2.8448,-2.8566,-2.8928,-2.9627,-2.9682,-2.9887,-3.0362,-3.0549,-3.0735,-3.1211,-3.1344,-3.144,-3.1512,-3.156,-3.1597,-3.1717,-3.1717,-3.1705,-3.1741,-3.1741,-3.1717,-3.1705,-3.1705,-3.1705,-3.1705,-3.1705,-3.1705,-3.1705,-3.1705,-3.1705,-3.1705,-3.1705,-3.1705,-3.1705,-3.1621,-3.1548,-3.1548,-3.1476,-3.1344,-3.1404,-3.1392,-3.1127,-3.0146,-2.9941,-2.9905,-3.276,-3.2859,-3.2729,-3.2438,0.0,-3.2038,-3.1981,-3.1881,-3.2125,-3.2269,-3.24,-3.24,-3.24,-3.24,-3.24,-3.24,-3.24,-3.24,-3.24,-3.24,-3.24,-3.24,-3.24,-3.24,-3.24,-3.24,-3.24,-3.24,-3.24,-3.24,-3.2253,-3.197,-3.1927,-3.1699,-3.1129,-3.1417,-3.1699,-3.1927,-3.1259,-3.104,-3.1174,-3.0931,-3.0584,-3.0191,-3.0668,0.0,0.0,0.0,0.0,0.0,0.0,0.0,0.0,-2.6503,-2.6001,-2.6347,-2.4966,-2.4319,-2.4764,-2.4582,-2.473,-2.5428,-2.6469,-2.6554,-2.5253,-2.6639,-2.7813,-2.8509,-2.8859,-2.9342,-2.9977,-3.0074,-3.029,-3.0826,-3.0867,-3.1031,-3.1216,-3.1308,-3.1416,-3.1645,-3.1705,-3.1705,-3.1705,-3.1705,-3.1837,-3.2022,-3.2126,-3.2223,-3.2403,-3.2042,-3.1717,-3.1705,-3.1705,-3.1705,-3.1705,-3.1705,-3.1717,-3.1705,-3.1705,-3.1705,-3.1705,-3.1705,-3.1705,-3.1705,-3.1705,-3.1705,-3.1705,-3.1705,-3.1705,-3.1705,-3.1705,-3.1573,-3.0983,-3.0706,-3.0386,-3.2852,-3.298,-3.2852,-3.237,-3.1705,-3.1705,-3.1705,-3.1705,-3.2113,0.0,0.0,-3.2257,-3.2269,-3.2257,-3.2257,-3.2257,-3.2257,-3.2313,-3.23,-3.2257,-3.2269,-3.2245,-3.2269,-3.23,-3.2257,-3.2269,-3.2257,-3.2257,-3.2257,-3.2257,-3.23,-3.2257,-3.23,-3.2269,-3.2257,-3.2257,-3.1949,-3.1295,-3.1144,-3.1253,-3.1491,-3.1419,-3.1046,-3.0311,-3.0864,-3.0748,-3.0086,-3.0036,-2.9631,-2.876,-2.8293,-2.8048,-2.7935,-2.7494,-2.7641,-2.8397,-2.7701,-2.7552,-2.8312,-2.7946,-2.8065,-2.8871,-2.9328,-2.9429,-2.9105,-2.9398,-2.9797,-3.0326,-3.0362,-3.0585,-3.1019,-3.1108,-3.138,-3.1813,-3.1946,-3.1994,-3.1994,-3.1994,-3.203,-3.1994,-3.2054,-3.2006,-3.2042,-3.2042,-3.2106,-3.2527,-3.2647,-3.2779,-3.3068,-3.2596,-3.2102,-3.2102,-3.2138,-3.2054,-3.2018,-3.2054,-3.1994,-3.209,-3.2054,-3.1958,-3.1886,-3.1862,-3.1813,-3.1717,-3.1705,-3.1705,-3.1705,-3.1705,-3.1705,-3.1705,-3.1705,-3.1705,-3.1669,-3.1368,-3.0903,-3.1925,-3.1913,-3.1869,-3.1793,-3.1705,-3.1705,-3.1705,-3.1705,-3.1761,-3.1805,-3.1793,-3.1793,-3.1793,-3.1793,-3.1793,-3.1805,-3.1805,-3.1805,-3.1805,-3.1805,-3.1805,-3.1793,-3.1805,-3.1805,-3.1805,-3.1805,-3.1805,-3.1805,-3.1805,-3.1805,-3.1793,-3.1805,-3.1805,-3.1805,-3.1805,-3.1805,-3.1757,-3.1616,-3.1047,-3.0805,-3.0837,-3.0396,-3.009,-3.0008,-3.0523,-3.0719,-3.0601,-3.0589,-3.0515,-3.0368,-3.0294,-3.0176,-2.9971,-2.9873,-2.9852,-2.9808,-2.9687,-2.9687,-2.9778,-2.973,-2.9947,-3.0513,-3.0657,-3.0657,-3.0597,-3.0645,-3.0867,-3.1428,-3.1476,-3.1512,-3.1621,-3.1985,-3.2274,-3.2406,-3.2779,-3.3056,-3.2996,-3.3008,-3.2984,-3.2984,-3.3056,-3.302,-3.2959,-3.2984,-3.2996,-3.314,-3.3236,-3.3236,-3.332,-3.3164,-3.3068,-3.3056,-3.3056,-3.3068,-3.2947,-3.3044,-3.2971,-3.3056,-3.2996,-3.2803,-3.2442,-3.2394,-3.2238,-3.1825,-3.1837,-3.1801,-3.1789,-3.1705,-3.1753,-3.1765,-3.1765,-3.1705,-3.1705,-3.1597,-3.1524,-3.1705,-3.1705,-3.1705,-3.1705,-3.1705,-3.1705,-3.1705,-3.1705,-3.1705,-3.1705,-3.1705,-3.1705,-3.1705,-3.1705,-3.1705,-3.1705,-3.1705,-3.1705,-3.1705,-3.1705,-3.1705,-3.1705,-3.1705,-3.1705,-3.1705,-3.1705,-3.1705,-3.1705,-3.1705,-3.1705,-3.1705,-3.1705,-3.1705,-3.1705,-3.1705,-3.1705,-3.1705,-3.1693,-3.1409,-3.1229,-3.1229,-3.101,-3.0864,-3.0877,-3.1119,-3.1241,-3.1241,-3.0962,-3.0804,-3.0804,-3.0537,-3.0458,-3.0664,-3.0646,-3.0779,-3.0946,-3.0675,-3.0639,-3.097,-3.0983,-3.1223,-3.1697,-3.1757,-3.2131,-3.2906,-3.2212,-3.1865,-3.2106,-3.2358,-3.2539,-3.2596,-3.2779,-3.2935,-3.2935,-3.3164,-3.3284,-3.3284,-3.3284,-3.3284,-3.3284,-3.3284,-3.3284,-3.3284,-3.3284,-3.3428,-3.3645,-3.3897,-3.4102,-3.4102,-3.4102,-3.3897,-3.3416,-3.3284,-3.3284,-3.3296,-3.3284,-3.3284,-3.3284,-3.3284,-3.3188,-3.2959,-3.2935,-3.2815,-3.2611,-3.2539,-3.2596,-3.2527,-3.2343,-3.2154,-3.2126,-3.1886,-3.1753,-3.1705,-3.1705,-3.1705,-3.1705,-3.1705,-3.1705,-3.1705,-3.1705,-3.1705,-3.1705,-3.1705,-3.1705,-3.1705,-3.1705,-3.1705,-3.1705,-3.1705,-3.1705,-3.1705,-3.1705,-3.1705,-3.1705,-3.1705,-3.1705,-3.1705,-3.1705,-3.1705,-3.1705,-3.1705,-3.1705,-3.1705,-3.1705,-3.1705,-3.1705,-3.1705,-3.1705,-3.1705,-3.1705,-3.1705,-3.1705,-3.1705,-3.1705,-3.1705,-3.1705,-3.1705,-3.1705,-3.1705,-3.1705,-3.1705,-3.1693,-3.1308,-3.1091,-3.1079,-3.0663,-3.0669,-3.1067,-3.1091,-3.1284,-3.1609,-3.132,-3.1332,-3.1837,-3.1961,-3.2259,-3.2635,-3.2886,-3.3383,-3.4156,-3.367,-3.3132,-3.3083,-3.3396,-3.3548,-3.3294,-3.3392,-3.3464,-3.3464,-3.3573,-3.3693,-3.3645,-3.3633,-3.3633,-3.3633,-3.3633,-3.3657,-3.3633,-3.3633,-3.3813,-3.4162,-3.4534,-3.4751,-3.4775,-3.4775,-3.4451,-3.3933,-3.3645,-3.3693,-3.3633,-3.3669,-3.3693,-3.3633,-3.3669,-3.3633,-3.3537,-3.3464,-3.3368,-3.3272,-3.3236,-3.3188,-3.3224,-3.2971,-3.2719,-3.2647,-3.2394,-3.207,-3.197,-3.1801,-3.1717,-3.1705,-3.1705,-3.1705,-3.1705,-3.1705,-3.1705,-3.1705,-3.1705,-3.1705,-3.1705,-3.1705,-3.1705,-3.1705,-3.1705,-3.1705,-3.1705,-3.1705,-3.1705,-3.1705,-3.1705,-3.1705,-3.1705,-3.1705,-3.1705,-3.1705,-3.1705,-3.1729,-3.1765,-3.1765,-3.1765,-3.1729,-3.1705,-3.1705,-3.1753,-3.1741,-3.1741,-3.1729,-3.1705,-3.1705,-3.1705,-3.1705,-3.1705,-3.1705,-3.1705,-3.1705,-3.1705,-3.1705,-3.1657,-3.1633,-3.1633,-3.1573,-3.1585,-3.1633,-3.1645,-3.1669,-3.1729,-3.1681,-3.1841,-3.2382,-3.2863,-3.3128,-3.3293,-3.3966,-3.4173,-3.3737,-3.4576,-3.4978,-3.4673,-3.4547,-3.4172,-3.3448,-3.3717,-3.397,-3.3958,-3.433,-3.4631,-3.457,-3.4643,-3.4679,-3.4643,-3.4559,-3.4679,-3.4559,-3.4559,-3.4619,-3.4595,-3.4691,-3.4775,-3.4775,-3.4763,-3.4751,-3.4655,-3.4655,-3.4619,-3.4534,-3.4619,-3.4498,-3.4583,-3.4643,-3.4366,-3.4066,-3.3898,-3.3814,-3.3645,-3.3416,-3.344,-3.3404,-3.3236,-3.3236,-3.32,-3.3068,-3.2947,-3.2515,-3.2106,-3.1886,-3.1705,-3.1705,-3.1705,-3.1705,-3.1705,-3.1705,-3.1705,-3.1705,-3.1705,-3.1705,-3.1705,-3.1705,-3.1705,-3.1705,-3.1705,-3.1705,-3.1705,-3.1705,-3.1705,-3.1705,-3.1705,-3.1705,-3.1705,-3.1705,-3.1705,-3.1753,-3.1997,-3.2166,-3.2214,-3.2466,-3.2623,-3.2635,-3.2668,-3.2668,-3.2668,-3.2623,-3.2668,-3.2668,-3.2668,-3.2623,-3.2551,-3.203,-3.1705,-3.1705,-3.1705,-3.1705,-3.1705,-3.1705,-3.1705,-3.1729,-3.1961,-3.2154,-3.2166,-3.25,-3.2623,-3.2668,-3.2668,-3.2731,-3.2959,-3.3176,-3.3416,-3.3705,-3.4068,-3.4691,-3.586,-3.6008,-3.6101,-3.6371,-3.5444,-3.4577,-3.4234,-3.4378,-3.4511,-3.4486,-3.4655,-3.4775,-3.4775,-3.4775,-3.4775,-3.4775,-3.4775,-3.4775,-3.4775,-3.4775,-3.4775,-3.4775,-3.4775,-3.4775,-3.4775,-3.4775,-3.4775,-3.4775,-3.4775,-3.4775,-3.4775,-3.4775,-3.4775,-3.4775,-3.4775,-3.4631,-3.4522,-3.445,-3.4366,-3.4186,-3.4126,-3.4126,-3.4246,-3.3897,-3.3729,-3.3693,-3.3428,-3.3212,-3.2996,-3.2791,-3.2596,-3.1705,-3.1705,-3.1705,-3.1705,-3.1705,-3.1705,-3.1705,-3.1705,-3.1705,-3.1705,-3.1717,-3.1862,-3.1901,-3.1922,-3.1789,-3.1705,-3.1705,-3.1705,-3.1801,-3.1922,-3.1934,-3.2018,-3.2151,-3.2151,-3.2151,-3.2211,-3.2515,-3.2719,-3.2755,-3.308,-3.3284,-3.3284,-3.3284,-3.3284,-3.3284,-3.3284,-3.3284,-3.3284,-3.3284,-3.3284,-3.3176,-3.2515,-3.2163,-3.2163,-3.2163,-3.2163,-3.2151,-3.2163,-3.2151,-3.213,-3.2503,-3.2719,-3.2731,-3.308,-3.3284,-3.3308,-3.3428,-3.3489,-3.3489,-3.3633,-3.3861,-3.4198,-3.4437,-3.5295,-3.6501,-3.6555,-3.6508,-3.6611,-3.5607,-3.4787,-3.4775,-3.4775,-3.4775,-3.4775,-3.4775,-3.4775,-3.4775,-3.4775,-3.4775,-3.4775,-3.4775,-3.4775,-3.4775,-3.4775,-3.4775,-3.4775,-3.4775,-3.4775,-3.4775,-3.4775,-3.4775,-3.4775,-3.4775,-3.4775,-3.4775,-3.4775,-3.4775,-3.4775,-3.4775,-3.4775,-3.4775,-3.4775,-3.4775,-3.4535,-3.4691,-3.4739,-3.457,-3.433,-3.4174,-3.4102,-3.3885,-3.349,-3.3372,-3.3311,-3.3047,-3.1705,-3.1705,-3.1705,-3.1705,-3.1705,-3.1705,-3.1729,-3.1765,-3.1741,-3.1729,-3.1862,-3.2238,-3.2466,-3.2418,-3.1985,-3.1741,-3.1741,-3.1801,-3.2022,-3.243,-3.2454,-3.2731,-3.32,-3.3224,-3.3188,-3.308,-3.3188,-3.3272,-3.3284,-3.332,-3.3284,-3.3332,-3.338,-3.3332,-3.3368,-3.3392,-3.332,-3.3392,-3.3404,-3.3344,-3.3332,-3.326,-3.3212,-3.3212,-3.32,-3.314,-3.3164,-3.32,-3.3188,-3.32,-3.3224,-3.326,-3.326,-3.3308,-3.3356,-3.3392,-3.3765,-3.3958,-3.4006,-3.4366,-3.4655,-3.48,-3.5425,-3.5821,-3.5415,-3.5908,-3.598,-3.5126,-3.509,-3.4835,-3.4823,-3.4847,-3.4811,-3.4823,-3.4799,-3.4775,-3.4775,-3.4775,-3.4775,-3.4775,-3.4775,-3.4775,-3.4775,-3.4775,-3.4775,-3.4775,-3.4775,-3.4775,-3.4775,-3.4775,-3.4775,-3.4775,-3.4775,-3.4775,-3.4775,-3.4775,-3.4775,-3.4775,-3.4775,-3.4775,-3.4775,-3.4775,-3.4775,-3.4775,-3.4775,-3.4775,-3.4775,-3.4739,-3.4667,-3.4522,-3.4258,-3.4018,-3.3792,-3.3279,-3.3006,-3.1705,-3.1705,-3.1705,-3.1705,-3.1705,-3.1705,-3.1922,-3.2235,-3.2202,-3.2394,-3.2695,-3.2923,-3.3008,-3.2996,-3.2803,-3.2707,-3.2741,-3.2707,-3.2815,-3.3008,-3.3008,-3.3104,-3.326,-3.3284,-3.3284,-3.3332,-3.3621,-3.3945,-3.4258,-3.427,-3.427,-3.427,-3.427,-3.427,-3.4282,-3.4282,-3.427,-3.4282,-3.427,-3.427,-3.4246,-3.427,-3.4222,-3.4246,-3.3621,-3.3284,-3.3284,-3.3284,-3.3284,-3.3284,-3.3597,-3.3718,-3.3801,-3.4102,-3.427,-3.4282,-3.4402,-3.4498,-3.4522,-3.4667,-3.4775,-3.4823,-3.5114,-3.5548,-3.5668,-3.5818,-3.5941,-3.6075,-3.5611,-3.534,-3.5219,-3.504,-3.4907,-3.5232,-3.5028,-3.4775,-3.4775,-3.4775,-3.4775,-3.4775,-3.4775,-3.4775,-3.4775,-3.4775,-3.4775,-3.4775,-3.4775,-3.4799,-3.4787,-3.4775,-3.4799,-3.4787,-3.4775,-3.4775,-3.4775,-3.4775,-3.4775,-3.4775,-3.4775,-3.4775,-3.4775,-3.4775,-3.4775,-3.4775,-3.4775,-3.4775,-3.4775,-3.4775,-3.4775,-3.4727,-3.4462,-3.433,-3.422,-3.3755,-3.3469,-3.1705,-3.1741,-3.1898,-3.1982,-3.1961,-3.2118,-3.2452,-3.2743,-3.2755,-3.2959,-3.3272,-3.3452,-3.3525,-3.3573,-3.3705,-3.3789,-3.3729,-3.3464,-3.338,-3.3525,-3.3525,-3.3621,-3.3765,-3.3777,-3.3789,-3.3837,-3.4078,-3.445,-3.4739,-3.4775,-3.4775,-3.4763,-3.4775,-3.4775,-3.4775,-3.4775,-3.4775,-3.4775,-3.4775,-3.4763,-3.4775,-3.4775,-3.4775,-3.4739,-3.415,-3.3789,-3.3777,-3.3789,-3.3777,-3.3837,-3.4066,-3.4246,-3.4294,-3.4583,-3.4775,-3.4775,-3.4763,-3.4775,-3.4775,-3.4775,-3.4775,-3.4799,-3.4992,-3.5418,-3.5999,-3.5795,-3.5965,-3.626,-3.5905,-3.5351,-3.5473,-3.5148,-3.4992,-3.5268,-3.504,-3.4775,-3.4775,-3.4775,-3.4775,-3.4775,-3.4775,-3.4775,-3.4799,-3.4943,-3.5027,-3.5027,-3.5039,-3.5124,-3.5292,-3.5123,-3.5123,-3.528,-3.522,-3.516,-3.5076,-3.5016,-3.4835,-3.4811,-3.4775,-3.4775,-3.4775,-3.4775,-3.4775,-3.4775,-3.4775,-3.4775,-3.4775,-3.4775,-3.4775,-3.4775,-3.4715,-3.4546,-3.4422,-3.4262,-3.3758,-3.1717,-3.1825,-3.2274,-3.2466,-3.2563,-3.2959,-3.3248,-3.3284,-3.3296,-3.3356,-3.3537,-3.3802,-3.3994,-3.409,-3.4463,-3.4691,-3.4535,-3.3825,-3.3669,-3.3982,-3.3994,-3.4246,-3.4679,-3.4607,-3.4655,-3.4667,-3.4727,-3.4751,-3.4763,-3.4775,-3.4775,-3.4775,-3.4775,-3.4775,-3.4775,-3.4775,-3.4775,-3.4775,-3.4775,-3.4775,-3.4775,-3.4775,-3.4775,-3.4775,-3.4727,-3.4643,-3.4691,-3.4739,-3.4631,-3.4715,-3.4715,-3.4763,-3.4715,-3.4763,-3.4775,-3.4775,-3.4775,-3.4775,-3.4787,-3.4811,-3.4919,-3.498,-3.5267,-3.5582,-3.5669,-3.563,-3.5667,-3.5644,-3.5305,-3.5051,-3.5461,-3.5136,-3.4871,-3.4811,-3.4847,-3.4775,-3.4775,-3.4775,-3.4775,-3.4775,-3.4775,-3.4775,-3.4871,-3.5087,-3.5315,-3.54,-3.5425,-3.5569,-3.5881,-3.5701,-3.5833,-3.6074,-3.5918,-3.5629,-3.5437,-3.5232,-3.5052,-3.4859,-3.4811,-3.4787,-3.4726,-3.4677,-3.4628,-3.4628,-3.4592,-3.4592,-3.4592,-3.4592,-3.4628,-3.464,-3.464,-3.4555,-3.4261,-3.3965,-3.3656,-3.1934,-3.2238,-3.243,-3.2719,-3.3032,-3.3224,-3.3464,-3.3801,-3.3801,-3.4006,-3.433,-3.4462,-3.4534,-3.4546,-3.4715,-3.4775,-3.4739,-3.4475,-3.4438,-3.4498,-3.4522,-3.4595,-3.4739,-3.4775,-3.4775,-3.4775,-3.4775,-3.4775,-3.4775,-3.4775,-3.4775,-3.4775,-3.4775,-3.4775,-3.4775,-3.4775,-3.4775,-3.4775,-3.4775,-3.4775,-3.4775,-3.4775,-3.4775,-3.4775,-3.4775,-3.4775,-3.4775,-3.4775,-3.4775,-3.4775,-3.4775,-3.4775,-3.4775,-3.4775,-3.4775,-3.4775,-3.4775,-3.4775,-3.4823,-3.5172,-3.5376,-3.54,-3.5545,-3.5605,-3.5617,-3.5617,-3.5617,-3.5617,-3.5399,-3.5473,-3.5485,-3.5136,-3.4992,-3.5328,-3.5003,-3.4775,-3.4775,-3.4775,-3.4775,-3.4775,-3.4775,-3.4775,-3.4799,-3.5015,-3.5172,-3.5208,-3.5184,-3.5376,-3.5749,-3.5905,-3.5833,-3.6242,-3.6122,-3.617,-3.6026,-3.5881,-3.5651,-3.5411,-3.5243,-3.4966,-3.4796,-3.4687,-3.4626,-3.4445,-3.4408,-3.4408,-3.4359,-3.4359,-3.4396,-3.4347,-3.431,-3.4113,-3.3817,-3.3457,-3.3035,-3.2178,-3.2527,-3.2911,-3.326,-3.3585,-3.3765,-3.403,-3.4258,-3.4282,-3.4474,-3.4727,-3.4775,-3.4775,-3.4775,-3.4775,-3.4775,-3.4775,-3.4775,-3.4775,-3.4775,-3.4775,-3.4775,-3.4775,-3.4775,-3.4775,-3.4775,-3.4775,-3.4775,-3.4775,-3.4775,-3.4775,-3.4775,-3.4775,-3.4775,-3.4775,-3.4775,-3.4775,-3.4775,-3.4775,-3.4775,-3.4775,-3.4775,-3.4775,-3.4775,-3.4775,-3.4775,-3.4775,-3.4775,-3.4775,-3.4775,-3.4775,-3.4775,-3.4775,-3.4775,-3.4775,-3.4811,-3.5016,-3.5136,-3.5172,-3.5629,-3.5797,-3.5689,-3.5797,-3.5797,-3.5689,-3.5617,-3.5617,-3.5617,-3.5412,-3.5279,-3.5219,-3.5003,-3.4955,-3.528,-3.4979,-3.4787,-3.4775,-3.4775,-3.4775,-3.4775,-3.4775,-3.4775,-3.4775,-3.5003,-3.5208,-3.534,-3.5425,-3.5737,-3.6182,-3.6362,-3.6555,-3.6699,-3.6759,-3.6759,-3.6687,-3.6543,-3.6324,-3.6009,-3.5745,-3.5346,-3.5044,-3.4911,-3.4825,-3.4404,-3.4211,-3.4211,-3.4211,-3.4162,-3.4162,-3.4113,-3.4026,-3.3927,-3.3717,-3.2823,-3.2297,-3.2539,-3.2707,-3.3621,-3.3958,-3.409,-3.4498,-3.4679,-3.4787,-3.4787,-3.4787,-3.4775,-3.4775,-3.4775,-3.4775,-3.4775,-3.4775,-3.4775,-3.4775,-3.4775,-3.4775,-3.4775,-3.4775,-3.4775,-3.4775,-3.4775,-3.4775,-3.4775,-3.4775,-3.4775,-3.4775,-3.4775,-3.4775,-3.4775,-3.4775,-3.4775,-3.4775,-3.4775,-3.4775,-3.4775,-3.4775,-3.4775,-3.4775,-3.4775,-3.4775,-3.4775,-3.4775,-3.4775,-3.4775,-3.4775,-3.4775,-3.4775,-3.4775,-3.4787,-3.4799,-3.4871,-3.4931,-3.5376,-3.5605,-3.5761,-3.605,-3.6158,-3.5833,-3.6002,-3.617,-3.5689,-3.5533,-3.5473,-3.5449,-3.5075,-3.4835,-3.4835,-3.4787,-3.4847,-3.4787,-3.4799,-3.4775,-3.4775,-3.4775,-3.4823,-3.4859,-3.4835,-3.4859,-3.4991,-3.5425,-3.5809,-3.6134,-3.6254,-3.6627,-3.7156,-3.7204,-3.7421,-3.7445,-3.736,-3.7312,-3.7216,-3.7132,-3.6948,-3.6733,-3.6371,-3.5899,-3.528,-3.5026,-3.4928,-3.4484,-3.4117,-3.412,-3.4023,-3.4021,-3.3924,-3.3878,-3.3828,-3.3878,-3.3247,-3.2196,-3.1246,-3.2947,-3.361,-3.3886,-3.421,-3.4558,-3.4739,-3.4775,-3.4775,-3.4775,-3.4775,-3.4775,-3.4775,-3.4775,-3.4775,-3.4775,-3.4775,-3.4775,-3.4775,-3.4775,-3.4775,-3.4775,-3.4775,-3.4775,-3.4775,-3.4775,-3.4775,-3.4775,-3.4775,-3.4775,-3.4775,-3.4775,-3.4775,-3.4775,-3.4775,-3.4775,-3.4775,-3.4775,-3.4775,-3.4775,-3.4775,-3.4775,-3.4775,-3.4775,-3.4775,-3.4775,-3.4775,-3.4775,-3.4775,-3.4775,-3.4775,-3.4775,-3.4775,-3.4835,-3.5184,-3.5376,-3.5485,-3.5869,-3.6182,-3.6206,-3.6314,-3.6314,-3.6194,-3.5966,-3.5761,-3.5629,-3.5256,-3.5027,-3.4955,-3.4823,-3.4775,-3.4775,-3.4775,-3.4775,-3.4775,-3.4775,-3.4775,-3.4775,-3.4787,-3.4968,-3.5316,-3.5376,-3.5533,-3.5821,-3.6026,-3.623,-3.6386,-3.6519,-3.6687,-3.7324,-3.7517,-3.7505,-3.7769,-3.7781,-3.7781,-3.7745,-3.7685,-3.7556,-3.7392,-3.6996,-3.6483,-3.5751,-3.5032,-3.4906,-3.4659,-3.431,-3.4198,-3.3935,-3.3804,-3.3688,-3.3531,-3.3288,-3.306,-3.2139,-3.1103,-3.0057,-3.3308,-3.4006,-3.4234,-3.4498,-3.4763,-3.4775,-3.4775,-3.4775,-3.4775,-3.4775,-3.4775,-3.4775,-3.4775,-3.4775,-3.4775,-3.4775,-3.4775,-3.4775,-3.4775,-3.4775,-3.4775,-3.4775,-3.4775,-3.4775,-3.4775,-3.4775,-3.4775,-3.4775,-3.4775,-3.4775,-3.4775,-3.4775,-3.4775,-3.4775,-3.4775,-3.4775,-3.4775,-3.4775,-3.4775,-3.4775,-3.4775,-3.4775,-3.4775,-3.4775,-3.4775,-3.4775,-3.4775,-3.4775,-3.4775,-3.4775,-3.4775,-3.4919,-3.516,-3.5437,-3.5713,-3.5918,-3.6242,-3.6398,-3.6411,-3.6398,-3.629,-3.6086,-3.5737,-3.5521,-3.5304,-3.498,-3.4775,-3.4787,-3.4775,-3.4775,-3.4775,-3.4775,-3.4775,-3.4775,-3.4775,-3.4775,-3.4775,-3.4775,-3.5088,-3.5437,-3.5653,-3.5821,-3.6326,-3.6411,-3.6543,-3.6675,-3.6783,-3.7084,-3.7469,-3.7469,-3.7553,-3.7829,-3.7921,-3.7861,-3.7796,-3.7695,-3.75,-3.7394,-3.7037,-3.6607,-3.6062,-3.5184,-3.4981,-3.4826,-3.4498,-3.4291,-3.4176,-3.3783,-3.3144,-3.29,-3.2556,-3.1918,-3.1016,-3.0329,-2.9205,-3.3621,-3.4114,-3.4583,-3.4775,-3.4775,-3.4775,-3.4775,-3.4775,-3.4775,-3.4775,-3.4775,-3.4775,-3.4775,-3.4775,-3.4775,-3.4775,-3.4775,-3.4775,-3.4775,-3.4775,-3.4775,-3.4775,-3.4775,-3.4775,-3.4775,-3.4775,-3.4775,-3.4775,-3.4775,-3.4775,-3.4775,-3.4775,-3.4775,-3.4775,-3.4775,-3.4775,-3.4775,-3.4775,-3.4775,-3.4775,-3.4775,-3.4775,-3.4775,-3.4775,-3.4775,-3.4775,-3.4847,-3.4895,-3.4907,-3.4883,-3.4907,-3.5208,-3.5617,-3.5725,-3.5942,-3.6302,-3.6459,-3.6531,-3.6386,-3.6314,-3.611,-3.5737,-3.5593,-3.5303,-3.4943,-3.4787,-3.4775,-3.4775,-3.4775,-3.4775,-3.4775,-3.4775,-3.4775,-3.4775,-3.4775,-3.4775,-3.4775,-3.4775,-3.5003,-3.5593,-3.5713,-3.5966,-3.6362,-3.6591,-3.6759,-3.7216,-3.7276,-3.7445,-3.7632,-3.7652,-3.7712,-3.782,-3.7826,-3.7814,-3.7708,-3.7655,-3.7376,-3.712,-3.6742,-3.6364,-3.6205,-3.5599,-3.5228,-3.4992,-3.4969,-3.4911,-3.4767,-3.4136,-3.3071,-3.241,-3.2184,-3.1095,-2.9999,-2.9523,-2.8648,-3.3825,-3.4619,-3.4775,-3.4775,-3.4775,-3.4775,-3.4775,-3.4775,-3.4775,-3.4775,-3.4775,-3.4775,-3.4775,-3.4775,-3.4775,-3.4775,-3.4775,-3.4775,-3.4775,-3.4775,-3.4775,-3.4775,-3.4775,-3.4775,-3.4775,-3.4775,-3.4775,-3.4775,-3.4775,-3.4775,-3.4775,-3.4775,-3.4775,-3.4775,-3.4775,-3.4775,-3.4775,-3.4775,-3.4775,-3.4775,-3.4775,-3.4775,-3.4775,-3.4775,-3.4847,-3.4799,-3.4883,-3.5232,-3.5437,-3.5399,-3.5497,-3.5749,-3.6194,-3.6555,-3.6627,-3.6543,-3.6759,-3.6783,-3.6423,-3.6002,-3.5749,-3.5569,-3.5256,-3.4956,-3.4823,-3.4775,-3.4775,-3.4775,-3.4775,-3.4775,-3.4775,-3.4775,-3.4775,-3.4775,-3.4775,-3.4775,-3.4775,-3.4775,-3.522,-3.5881,-3.6206,-3.6567,-3.7433,-3.7505,-3.7625,-3.7793,-3.7817,-3.7853,-3.782,-3.7773,-3.7732,-3.7679,-3.756,-3.7495,-3.7453,-3.7358,-3.7143,-3.6862,-3.6549,-3.632,-3.611,-3.6083,-3.5722,-3.5588,-3.5577,-3.5497,-3.537,-3.3977,-3.2749,-3.2298,-3.1643,-3.0459,-2.9436,-2.8832,-2.8369,-3.4092,-3.4463,-3.4679,-3.4775,-3.4775,-3.4775,-3.4775,-3.4775,-3.4775,-3.4775,-3.4775,-3.4775,-3.4775,-3.4775,-3.4775,-3.4775,-3.4775,-3.4775,-3.4775,-3.4775,-3.4775,-3.4775,-3.4775,-3.4775,-3.4775,-3.4775,-3.4775,-3.4775,-3.4775,-3.4775,-3.4775,-3.4775,-3.4775,-3.4775,-3.4775,-3.4775,-3.4775,-3.4775,-3.4775,-3.4775,-3.4775,-3.4775,-3.4775,-3.4859,-3.5052,-3.5147,-3.5207,-3.5713,-3.6086,-3.629,-3.635,-3.6459,-3.6651,-3.6807,-3.6759,-3.6843,-3.6447,-3.6386,-3.5966,-3.5569,-3.5256,-3.5256,-3.4919,-3.4835,-3.4775,-3.4775,-3.4775,-3.4775,-3.4775,-3.4775,-3.4775,-3.4775,-3.4775,-3.4775,-3.4775,-3.4775,-3.4775,-3.4787,-3.5112,-3.5869,-3.6206,-3.6723,-3.73,-3.7697,-3.795,-3.7866,-3.7666,-3.7713,-3.7631,-3.7584,-3.74,-3.7292,-3.7239,-3.7185,-3.7131,-3.7036,-3.682,-3.6657,-3.644,-3.632,-3.6217,-3.6228,-3.6197,-3.6071,-3.5921,-3.5967,-3.5591,-3.4053,-3.2659,-3.2026,-3.116,-2.9931,-2.8954,-2.8435,-2.8108,-3.4465,-3.422,-3.4655,-3.4775,-3.4775,-3.4775,-3.4775,-3.4775,-3.4775,-3.4775,-3.4775,-3.4775,-3.4775,-3.4775,-3.4775,-3.4775,-3.4775,-3.4775,-3.4775,-3.4775,-3.4775,-3.4775,-3.4775,-3.4775,-3.4775,-3.4775,-3.4775,-3.4775,-3.4775,-3.4775,-3.4775,-3.4775,-3.4775,-3.4775,-3.4775,-3.4775,-3.4775,-3.4775,-3.4775,-3.4775,-3.4775,-3.4775,-3.4811,-3.5088,-3.5328,-3.5629,-3.5797,-3.6242,-3.6711,-3.7156,-3.7204,-3.7204,-3.7084,-3.6843,-3.6531,-3.6928,-3.6122,-3.5725,-3.5497,-3.5136,-3.4823,-3.4775,-3.4775,-3.4775,-3.4775,-3.4775,-3.4775,-3.4775,-3.4775,-3.4775,-3.4775,-3.4775,-3.4775,-3.4775,-3.4775,-3.4775,-3.4775,-3.4775,-3.5112,-3.5557,-3.5978,-3.6447,-3.6976,-3.7409,-3.7697,-3.7885,-3.7672,-3.7495,-3.7465,-3.7316,-3.7143,-3.697,-3.6862,-3.6808,-3.6754,-3.6754,-3.6549,-3.6495,-3.6332,-3.632,-3.6266,-3.6266,-3.6266,-3.6266,-3.6197,-3.6197,-3.5617,-3.4063,-3.2815,-3.1927,-3.069,-2.9403,-2.8591,-2.7996,-2.7932,-3.4819,-3.5136,-3.4884,-3.4775,-3.4775,-3.4775,-3.4775,-3.4775,-3.4775,-3.4775,-3.4775,-3.4775,-3.4775,-3.4775,-3.4775,-3.4775,-3.4775,-3.4775,-3.4775,-3.4775,-3.4775,-3.4775,-3.4775,-3.4775,-3.4775,-3.4775,-3.4775,-3.4775,-3.4775,-3.4775,-3.4775,-3.4775,-3.4775,-3.4775,-3.4775,-3.4775,-3.4775,-3.4775,-3.4775,-3.4775,-3.4775,-3.4859,-3.5075,-3.5437,-3.5701,-3.5942,-3.6326,-3.6759,-3.7108,-3.718,-3.7192,-3.718,-3.706,-3.6964,-3.6603,-3.6086,-3.5737,-3.5339,-3.5027,-3.4871,-3.4775,-3.4775,-3.4775,-3.4775,-3.4775,-3.4775,-3.4775,-3.4775,-3.4775,-3.4775,-3.4775,-3.4775,-3.4775,-3.4775,-3.4775,-3.4775,-3.4775,-3.4811,-3.4943,-3.5425,-3.5737,-3.6086,-3.6663,-3.7168,-3.7481,-3.7568,-3.7369,-3.7364,-3.7465,-3.7143,-3.6808,-3.6646,-3.6538,-3.6483,-3.6386,-3.6429,-3.6375,-3.6375,-3.632,-3.632,-3.6266,-3.6266,-3.6266,-3.5982,-3.6091,-3.6243,-3.5333,-3.3979,-3.306,-3.2241,-3.0596,-2.8888,-2.8608,-2.837,-2.8306,-3.5187,-3.4969,-3.4858,-3.4775,-3.4775,-3.4775,-3.4775,-3.4775,-3.4775,-3.4775,-3.4775,-3.4775,-3.4775,-3.4775,-3.4775,-3.4775,-3.4775,-3.4775,-3.4775,-3.4775,-3.4775,-3.4775,-3.4775,-3.4775,-3.4775,-3.4775,-3.4775,-3.4775,-3.4775,-3.4775,-3.4775,-3.4775,-3.4775,-3.4775,-3.4775,-3.4775,-3.4775,-3.4775,-3.4775,-3.4775,-3.4823,-3.5015,-3.5509,-3.5918,-3.629,-3.6567,-3.6819,-3.7324,-3.7445,-3.7264,-3.7204,-3.6892,-3.6579,-3.6338,-3.617,-3.5677,-3.5376,-3.5087,-3.4823,-3.4775,-3.4775,-3.4775,-3.4775,-3.4775,-3.4775,-3.4775,-3.4775,-3.4775,-3.4775,-3.4775,-3.4775,-3.4775,-3.4775,-3.4775,-3.4775,-3.4775,-3.4775,-3.4775,-3.5016,-3.5328,-3.5833,-3.6218,-3.6507,-3.694,-3.7264,-3.724,-3.7025,-3.7145,-3.7322,-3.6982,-3.6538,-3.6483,-3.6375,-3.6375,-3.632,-3.632,-3.6266,-3.6266,-3.6091,-3.6091,-3.5872,-3.5697,-3.5477,-3.5201,-3.5543,-3.5806,-3.5411,-3.4269,-3.3406,-3.2328,-3.0529,-2.9139,-2.897,-2.8838,-2.8709,-3.5675,-3.4853,-3.5034,-3.5102,-3.5054,-3.4872,-3.5102,-3.5295,-3.4957,-3.4957,-3.5054,-3.492,-3.4775,-3.4775,-3.4775,-3.4775,-3.4775,-3.4775,-3.4775,-3.4775,-3.4775,-3.4775,-3.4775,-3.4775,-3.4775,-3.4775,-3.4775,-3.4775,-3.4775,-3.4775,-3.4775,-3.4775,-3.4775,-3.4775,-3.4775,-3.4775,-3.4775,-3.4775,-3.4775,-3.4799,-3.5027,-3.5497,-3.6026,-3.6507,-3.6976,-3.7156,-3.718,-3.7457,-3.7409,-3.7084,-3.6807,-3.6483,-3.5773,-3.5521,-3.5411,-3.5351,-3.4991,-3.4823,-3.4775,-3.4775,-3.4775,-3.4775,-3.4775,-3.4775,-3.4775,-3.4775,-3.4775,-3.4775,-3.4775,-3.4775,-3.4775,-3.4775,-3.4775,-3.4775,-3.4775,-3.4775,-3.4775,-3.4799,-3.4956,-3.5376,-3.5954,-3.6326,-3.6555,-3.6699,-3.7024,-3.7242,-3.7038,-3.682,-3.6907,-3.6688,-3.6375,-3.6375,-3.632,-3.632,-3.6266,-3.6266,-3.6266,-3.6266,-3.5817,-3.5477,-3.519,-3.4847,-3.4514,-3.4112,-3.4458,-3.4614,-3.4558,-3.4101,-3.268,-3.1313,-3.0011,-2.9313,-2.9066,-2.8948,-2.8874,-3.6665,-3.5766,-3.6042,-3.6131,-3.5988,-3.5295,-3.5858,-3.707,-3.5571,-3.5343,-3.5953,-3.5199,-3.4775,-3.4775,-3.4775,-3.4775,-3.4775,-3.4775,-3.4775,-3.4775,-3.4775,-3.4775,-3.4775,-3.4775,-3.4775,-3.4775,-3.4775,-3.4775,-3.4775,-3.4775,-3.4775,-3.4775,-3.4775,-3.4775,-3.4775,-3.4775,-3.4775,-3.4787,-3.4811,-3.5051,-3.5569,-3.6062,-3.6567,-3.6988,-3.7156,-3.7204,-3.718,-3.7264,-3.7012,-3.6543,-3.6062,-3.5785,-3.5545,-3.5099,-3.4919,-3.4871,-3.4811,-3.4775,-3.4775,-3.4775,-3.4775,-3.4775,-3.4775,-3.4775,-3.4775,-3.4775,-3.4775,-3.4775,-3.4775,-3.4775,-3.4775,-3.4775,-3.4775,-3.4775,-3.4775,-3.4775,-3.4775,-3.4799,-3.4956,-3.5437,-3.6026,-3.6302,-3.6531,-3.6576,-3.668,-3.6935,-3.7051,-3.6808,-3.6622,-3.6426,-3.6332,-3.6266,-3.6266,-3.6266,-3.6036,-3.6091,-3.5872,-3.5982,-3.53,-3.4692,-3.428,-3.3765,-3.3134,-3.2907,-3.3191,-3.3077,-3.268,-3.2052,-3.1265,-3.0645,-2.9844,-2.9381,-2.9035,-2.8984,-2.8984,-3.8176,-3.7266,-3.717,-3.7163,-3.7116,-3.6637,-3.6977,-3.7335,-3.632,-3.5906,-3.6036,-3.5247,-3.4775,-3.4872,-3.4775,-3.4775,-3.4775,-3.4775,-3.4775,-3.4775,-3.4775,-3.4775,-3.4775,-3.4775,-3.4775,-3.4775,-3.4775,-3.4775,-3.4775,-3.4775,-3.4775,-3.4775,-3.4775,-3.4775,-3.4847,-3.4787,-3.4967,-3.5219,-3.5531,-3.599,-3.6423,-3.6759,-3.7096,-3.7577,-3.7336,-3.7204,-3.7096,-3.6855,-3.6495,-3.6038,-3.5677,-3.5461,-3.522,-3.4907,-3.4775,-3.4775,-3.4775,-3.4775,-3.4775,-3.4775,-3.4775,-3.4775,-3.4775,-3.4775,-3.4775,-3.4775,-3.4775,-3.4775,-3.4775,-3.4775,-3.4775,-3.4775,-3.4775,-3.4775,-3.4775,-3.4775,-3.4775,-3.4847,-3.5004,-3.5545,-3.6086,-3.6396,-3.672,-3.6888,-3.6988,-3.7108,-3.7045,-3.6707,-3.6556,-3.6449,-3.6375,-3.6266,-3.6266,-3.6266,-3.5927,-3.5708,-3.5146,-3.4914,-3.3989,-3.3427,-3.3145,-3.2623,-3.1937,-3.1255,-3.1033,-3.0917,-3.0742,-3.0801,-3.0752,-3.0295,-2.9844,-2.9381,-2.8984,-2.8984,-2.8984,-3.9451,-3.886,-3.8367,-3.816,-3.8115,-3.79,-3.8082,-3.8387,-3.6917,-3.6414,-3.6367,-3.5702,-3.5199,-3.5199,-3.5199,-3.515,-3.4775,-3.4775,-3.4775,-3.4775,-3.4775,-3.4775,-3.4775,-3.4775,-3.4775,-3.4775,-3.4775,-3.4775,-3.4823,-3.4895,-3.4967,-3.4799,-3.4991,-3.5003,-3.5027,-3.5207,-3.5521,-3.5821,-3.6302,-3.6723,-3.7072,-3.7288,-3.7493,-3.7565,-3.7421,-3.7084,-3.6783,-3.6459,-3.5966,-3.5521,-3.5388,-3.5184,-3.4883,-3.4811,-3.4775,-3.4775,-3.4775,-3.4775,-3.4775,-3.4775,-3.4775,-3.4775,-3.4775,-3.4775,-3.4775,-3.4775,-3.4775,-3.4775,-3.4775,-3.4775,-3.4775,-3.4775,-3.4775,-3.4775,-3.4775,-3.4775,-3.4799,-3.4907,-3.528,-3.5905,-3.6396,-3.6812,-3.7088,-3.7244,-3.7302,-3.7299,-3.7032,-3.6601,-3.6449,-3.6363,-3.6266,-3.6157,-3.6145,-3.5982,-3.5422,-3.5035,-3.4536,-3.3797,-3.2861,-3.2223,-3.2004,-3.1323,-3.0529,-2.9844,-2.9499,-2.9558,-2.9835,-3.0128,-3.0304,-2.9844,-2.9381,-2.9213,-2.8984,-2.8984,-2.8984,-4.0112,-4.0446,-3.9475,-3.9108,-3.9033,-3.816,-3.885,-3.9837,-3.7461,-3.6824,-3.7196,-3.6637,-3.6036,-3.6083,-3.581,-3.5427,-3.4775,-3.4775,-3.4775,-3.4775,-3.4775,-3.4775,-3.4775,-3.4775,-3.4775,-3.4775,-3.4775,-3.4775,-3.4944,-3.5304,-3.5172,-3.4907,-3.54,-3.5533,-3.5701,-3.5954,-3.617,-3.6459,-3.6867,-3.7132,-3.736,-3.7517,-3.7637,-3.7312,-3.7144,-3.6759,-3.5821,-3.5701,-3.5497,-3.4955,-3.4943,-3.4992,-3.4799,-3.4775,-3.4775,-3.4775,-3.4775,-3.4775,-3.4775,-3.4775,-3.4775,-3.4775,-3.4775,-3.4775,-3.4775,-3.4775,-3.4775,-3.4775,-3.4775,-3.4775,-3.4775,-3.4775,-3.4775,-3.4775,-3.4775,-3.4775,-3.4883,-3.5123,-3.5557,-3.6242,-3.6648,-3.6805,-3.7037,-3.7103,-3.7104,-3.7073,-3.6893,-3.6483,-3.6236,-3.6157,-3.6102,-3.6036,-3.5982,-3.5587,-3.4703,-3.4078,-3.3335,-3.253,-3.1669,-3.1217,-3.0878,-3.0138,-2.9558,-2.939,-2.9153,-2.9044,-2.8984,-2.944,-2.9558,-2.9272,-2.9035,-2.8984,-2.8984,-2.8984,-2.8984,-4.0477,-4.0659,-4.0286,-4.0142,-4.0099,-3.9749,-3.9648,-3.9502,-3.7965,-3.7023,-3.693,-3.6461,-3.6273,-3.6178,-3.5571,-3.5199,-3.4823,-3.4775,-3.4775,-3.4775,-3.4775,-3.4775,-3.4775,-3.4775,-3.4775,-3.4787,-3.4847,-3.5003,-3.5352,-3.5617,-3.5773,-3.5821,-3.6026,-3.605,-3.6266,-3.6591,-3.6831,-3.7012,-3.7348,-3.7661,-3.7661,-3.7469,-3.7397,-3.7228,-3.6398,-3.611,-3.5579,-3.5292,-3.5003,-3.4847,-3.4775,-3.4775,-3.4775,-3.4775,-3.4775,-3.4775,-3.4775,-3.4775,-3.4775,-3.4775,-3.4775,-3.4775,-3.4775,-3.4775,-3.4775,-3.4775,-3.4775,-3.4775,-3.4775,-3.4775,-3.4775,-3.4775,-3.4775,-3.4775,-3.4775,-3.4775,-3.4895,-3.5147,-3.5469,-3.5982,-3.6227,-3.6383,-3.666,-3.6908,-3.6907,-3.6862,-3.6592,-3.6386,-3.6157,-3.5763,-3.5598,-3.519,-3.5068,-3.438,-3.3494,-3.2815,-3.2119,-3.1323,-3.0529,-3.0246,-3.002,-2.9618,-2.9153,-2.9044,-2.8984,-2.8984,-2.8984,-2.8984,-2.8984,-2.8984,-2.8984,-2.8984,-2.8984,-2.8984,-2.8984,-4.0702,-4.0702,-4.0702,-4.0702,-4.0702,-4.0702,-4.0329,-3.959,-3.8644,-3.7874,-3.7183,-3.7183,-3.6964,-3.659,-3.6131,-3.5247,-3.5017,-3.4775,-3.4775,-3.4775,-3.4775,-3.4775,-3.4775,-3.4775,-3.4775,-3.4811,-3.5052,-3.5304,-3.5557,-3.5905,-3.6278,-3.6579,-3.6795,-3.6819,-3.6759,-3.7132,-3.7421,-3.7529,-3.7553,-3.7757,-3.7661,-3.724,-3.6807,-3.6663,-3.6002,-3.5605,-3.5303,-3.5003,-3.4859,-3.4787,-3.4775,-3.4775,-3.4775,-3.4775,-3.4775,-3.4775,-3.4775,-3.4775,-3.4775,-3.4775,-3.4775,-3.4775,-3.4775,-3.4775,-3.4775,-3.4775,-3.4775,-3.4775,-3.4775,-3.4775,-3.4775,-3.4775,-3.4775,-3.4775,-3.4775,-3.4787,-3.4944,-3.5099,-3.5346,-3.5675,-3.5991,-3.6445,-3.6479,-3.6692,-3.6619,-3.6592,-3.6483,-3.632,-3.6157,-3.5598,-3.4858,-3.4346,-3.3821,-3.3021,-3.2109,-3.1717,-3.1275,-3.0412,-2.9726,-2.9499,-2.9213,-2.8984,-2.8984,-2.8984,-2.8984,-2.8984,-2.8984,-2.8984,-2.8984,-2.8984,-2.8984,-2.8984,-2.8984,-2.8984,-2.8984,-4.0702,-4.0702,-4.0702,-4.0702,-4.0702,-4.0702,-4.0602,-4.0243,-3.9445,-3.8975,-3.8796,-3.8796,-3.8315,-3.7658,-3.707,-3.6001,-3.5005,-3.4775,-3.4775,-3.4775,-3.4775,-3.4775,-3.4775,-3.4775,-3.4883,-3.4931,-3.5244,-3.5521,-3.5773,-3.6495,-3.6976,-3.7252,-3.7457,-3.7541,-3.7252,-3.7673,-3.7926,-3.7866,-3.7445,-3.7324,-3.7108,-3.6687,-3.6254,-3.5942,-3.5641,-3.5304,-3.504,-3.4871,-3.4775,-3.4775,-3.4775,-3.4775,-3.4775,-3.4775,-3.4775,-3.4775,-3.4775,-3.4775,-3.4775,-3.4775,-3.4775,-3.4775,-3.4775,-3.4775,-3.4775,-3.4775,-3.4775,-3.4775,-3.4775,-3.4775,-3.4775,-3.4775,-3.4775,-3.4775,-3.4775,-3.4787,-3.4944,-3.493,-3.5091,-3.5331,-3.6125,-3.672,-3.657,-3.6526,-3.6406,-3.632,-3.632,-3.6211,-3.6102,-3.508,-3.4112,-3.3371,-3.268,-3.1659,-3.0917,-3.0869,-3.0421,-2.9558,-2.9094,-2.9044,-2.8984,-2.8984,-2.8984,-2.8984,-2.8984,-2.8984,-2.8984,-2.8984,-2.8984,-2.8984,-2.8984,-2.8984,-2.8984,-2.8984,-2.8984,-4.0702,-4.0702,-4.0702,-4.0702,-4.0702,-4.0702,-4.0372,-3.9722,-3.9343,-3.9197,-3.9019,-3.8599,-3.816,-3.7533,-3.6555,-3.5667,-3.5005,-3.4775,-3.4775,-3.4775,-3.4775,-3.4775,-3.4775,-3.4835,-3.5016,-3.5304,-3.5617,-3.6122,-3.6711,-3.7132,-3.7433,-3.7709,-3.7781,-3.7866,-3.7781,-3.7902,-3.7853,-3.7505,-3.724,-3.7048,-3.6663,-3.6182,-3.5735,-3.5569,-3.5304,-3.504,-3.4787,-3.4775,-3.4775,-3.4775,-3.4775,-3.4775,-3.4775,-3.4775,-3.4775,-3.4775,-3.4775,-3.4775,-3.4775,-3.4775,-3.4775,-3.4775,-3.4775,-3.4775,-3.4775,-3.4775,-3.4775,-3.4775,-3.4775,-3.4775,-3.4775,-3.4775,-3.4775,-3.4775,-3.4775,-3.4775,-3.4835,-3.4687,-3.4766,-3.4964,-3.5545,-3.6156,-3.6295,-3.6394,-3.632,-3.6157,-3.6102,-3.6211,-3.6211,-3.438,-3.301,-3.2338,-3.1544,-3.047,-2.9785,-2.9962,-2.9962,-2.9331,-2.9035,-2.8984,-2.8984,-2.8984,-2.8984,-2.8984,-2.8984,-2.8984,-2.8984,-2.8984,-2.8984,-2.8984,-2.8984,-2.8984,-2.8984,-2.8984,-2.8984,-4.0702,-4.0702,-4.0702,-4.0702,-4.0702,-4.0702,-4.0272,-3.9766,-3.9722,-3.9722,-3.959,-3.906,-3.8612,-3.8011,-3.7031,-3.5655,-3.5427,-3.5331,-3.492,-3.4872,-3.4775,-3.4775,-3.4799,-3.4967,-3.5292,-3.5641,-3.6086,-3.6591,-3.7084,-3.736,-3.7637,-3.7841,-3.7793,-3.7649,-3.7637,-3.7601,-3.7553,-3.7168,-3.6879,-3.6411,-3.605,-3.5689,-3.534,-3.5232,-3.5052,-3.4775,-3.4775,-3.4775,-3.4775,-3.4775,-3.4775,-3.4775,-3.4775,-3.4775,-3.4775,-3.4775,-3.4775,-3.4775,-3.4775,-3.4775,-3.4775,-3.4775,-3.4775,-3.4775,-3.4775,-3.4775,-3.4775,-3.4775,-3.4775,-3.4775,-3.4775,-3.4775,-3.4775,-3.4775,-3.4726,-3.4726,-3.464,-3.4492,-3.4601,-3.482,-3.5193,-3.5647,-3.6079,-3.6194,-3.632,-3.6102,-3.5938,-3.5993,-3.5872,-3.4035,-3.2385,-3.1822,-3.0859,-2.9844,-2.9272,-2.9272,-2.9213,-2.9044,-2.8984,-2.8984,-2.8984,-2.8984,-2.8984,-2.8984,-2.8984,-2.8984,-2.8984,-2.8984,-2.8984,-2.8984,-2.8984,-2.8984,-2.8984,-2.8984,-2.8984,-4.0702,-4.0702,-4.0702,-4.0702,-4.0702,-4.0702,-4.0659,-4.0645,-4.0645,-4.0645,-4.0616,-4.0416,-3.9779,-3.921,-3.893,-3.7848,-3.659,-3.6367,-3.5763,-3.5199,-3.5102,-3.4981,-3.5101,-3.5328,-3.5653,-3.605,-3.6495,-3.6976,-3.7276,-3.7469,-3.7757,-3.7757,-3.7372,-3.7228,-3.7168,-3.7048,-3.6988,-3.6663,-3.6278,-3.5857,-3.5533,-3.5184,-3.5004,-3.4931,-3.4811,-3.4775,-3.4775,-3.4775,-3.4775,-3.4775,-3.4775,-3.4775,-3.4775,-3.4775,-3.4775,-3.4775,-3.4775,-3.4775,-3.4775,-3.4775,-3.4775,-3.4775,-3.4775,-3.4775,-3.4775,-3.4775,-3.4775,-3.4775,-3.4775,-3.4775,-3.4775,-3.4775,-3.4775,-3.4677,-3.4592,-3.4482,-3.4384,-3.4412,-3.4574,-3.4839,-3.5236,-3.5663,-3.6048,-3.6211,-3.5763,-3.5477,-3.5146,-3.4847,-3.4503,-3.3427,-3.2109,-3.1765,-3.0694,-2.9381,-2.8984,-2.8984,-2.8984,-2.8984,-2.8984,-2.8984,-2.8984,-2.8984,-2.8984,-2.8984,-2.8984,-2.8984,-2.8984,-2.8984,-2.8984,-2.8984,-2.8984,-2.8984,-2.8984,-2.8984,-2.8984,-4.0702,-4.0702,-4.0702,-4.0702,-4.0702,-4.0702,-4.0702,-4.0702,-4.0702,-4.0702,-4.0659,-3.9954,-3.9634,-3.9166,-3.8509,-3.7919,-3.7566,-3.7256,-3.6696,-3.6156,-3.5645,-3.5563,-3.5525,-3.5629,-3.6062,-3.6579,-3.706,-3.7385,-3.7565,-3.7673,-3.7421,-3.7324,-3.6879,-3.6699,-3.6507,-3.6266,-3.617,-3.605,-3.5701,-3.5437,-3.5184,-3.4919,-3.4775,-3.4775,-3.4775,-3.4775,-3.4775,-3.4775,-3.4775,-3.4775,-3.4775,-3.4775,-3.4775,-3.4775,-3.4775,-3.4775,-3.4775,-3.4775,-3.4775,-3.4775,-3.4775,-3.4775,-3.4775,-3.4775,-3.4775,-3.4775,-3.4775,-3.4775,-3.4775,-3.4775,-3.4775,-3.4775,-3.4775,-3.4677,-3.4506,-3.4394,-3.4308,-3.4211,-3.4404,-3.5045,-3.5439,-3.5646,-3.6057,-3.5488,-3.5035,-3.4692,-3.4291,-3.3832,-3.3314,-3.2291,-3.1785,-3.1439,-3.0519,-2.9153,-2.8984,-2.8984,-2.8984,-2.8984,-2.8984,-2.8984,-2.8984,-2.8984,-2.8984,-2.8984,-2.8984,-2.8984,-2.8984,-2.8984,-2.8984,-2.8984,-2.8984,-2.8984,-2.8984,-2.8984,-2.8984,-4.0702,-4.0702,-4.0702,-4.0702,-4.0702,-4.0702,-4.0702,-4.0702,-4.0702,-4.0702,-4.0645,-4.0128,-3.9809,-3.9779,-3.9339,-3.8836,-3.8328,-3.7808,-3.7163,-3.6358,-3.6152,-3.5819,-3.568,-3.6062,-3.6603,-3.7096,-3.7385,-3.7565,-3.7553,-3.7192,-3.6879,-3.6831,-3.6362,-3.6158,-3.5954,-3.5641,-3.5364,-3.534,-3.5195,-3.5039,-3.4907,-3.4775,-3.4775,-3.4775,-3.4775,-3.4775,-3.4775,-3.4775,-3.4775,-3.4775,-3.4775,-3.4775,-3.4775,-3.4775,-3.4775,-3.4775,-3.4775,-3.4775,-3.4775,-3.4775,-3.4775,-3.4775,-3.4775,-3.4775,-3.4775,-3.4775,-3.4775,-3.4775,-3.4775,-3.4775,-3.4775,-3.4775,-3.4726,-3.4628,-3.4492,-3.4306,-3.4152,-3.4008,-3.4507,-3.5213,-3.5554,-3.5731,-3.5543,-3.4869,-3.419,-3.3551,-3.2918,-3.2234,-3.2015,-3.1554,-3.1217,-3.1043,-3.007,-2.8984,-2.8984,-2.8984,-2.8984,-2.8984,-2.8984,-2.8984,-2.8984,-2.8984,-2.8984,-2.8984,-2.8984,-2.8984,-2.8984,-2.8984,-2.8984,-2.8984,-2.8984,-2.8984,-2.8984,-2.8984,-2.8984,-4.0702,-4.0702,-4.0702,-4.0702,-4.0702,-4.0702,-4.0702,-4.0702,-4.0702,-4.0702,-4.0702,-4.0702,-4.0602,-4.043,-4.03,-3.9736,-3.9046,-3.8373,-3.7544,-3.6395,-3.6208,-3.5976,-3.6247,-3.6651,-3.6964,-3.73,-3.7469,-3.7433,-3.7036,-3.6651,-3.6338,-3.6314,-3.5809,-3.5557,-3.5473,-3.5172,-3.498,-3.4931,-3.4919,-3.4835,-3.4811,-3.4775,-3.4775,-3.4775,-3.4775,-3.4775,-3.4775,-3.4775,-3.4775,-3.4775,-3.4775,-3.4775,-3.4775,-3.4775,-3.4775,-3.4775,-3.4775,-3.4775,-3.4775,-3.4775,-3.4775,-3.4775,-3.4775,-3.4775,-3.4775,-3.4775,-3.4775,-3.4775,-3.4775,-3.4775,-3.4775,-3.4677,-3.458,-3.4433,-3.4272,-3.4169,-3.4027,-3.4101,-3.4653,-3.5338,-3.5826,-3.5847,-3.498,-3.4302,-3.3268,-3.2509,-3.1544,-3.081,-3.0645,-3.0538,-3.0538,-3.048,-2.9795,-2.8984,-2.8984,-2.8984,-2.8984,-2.8984,-2.8984,-2.8984,-2.8984,-2.8984,-2.8984,-2.8984,-2.8984,-2.8984,-2.8984,-2.8984,-2.8984,-2.8984,-2.8984,-2.8984,-2.8984,-2.8984,-2.8984,-4.0702,-4.0702,-4.0702,-4.0702,-4.0702,-4.0702,-4.0702,-4.0702,-4.0702,-4.0702,-4.0702,-4.0702,-4.0702,-4.0702,-4.0702,-4.0142,-3.9254,-3.8836,-3.8057,-3.7321,-3.6761,-3.6837,-3.6819,-3.717,-3.7296,-3.7228,-3.7252,-3.7072,-3.6579,-3.611,-3.5785,-3.5749,-3.5328,-3.51,-3.5088,-3.4787,-3.4775,-3.4775,-3.4775,-3.4775,-3.4775,-3.4775,-3.4775,-3.4775,-3.4775,-3.4775,-3.4775,-3.4775,-3.4775,-3.4775,-3.4775,-3.4775,-3.4775,-3.4775,-3.4775,-3.4775,-3.4775,-3.4775,-3.4775,-3.4775,-3.4775,-3.4775,-3.4775,-3.4775,-3.4775,-3.4775,-3.4775,-3.4775,-3.4775,-3.4775,-3.4775,-3.4628,-3.4482,-3.4249,-3.4075,-3.3995,-3.3935,-3.4428,-3.4877,-3.5416,-3.5967,-3.5419,-3.4503,-3.3505,-3.2519,-3.1381,-3.0177,-2.9499,-2.9558,-2.9558,-2.9677,-2.9618,-2.944,-2.8984,-2.8984,-2.8984,-2.8984,-2.8984,-2.8984,-2.8984,-2.8984,-2.8984,-2.8984,-2.8984,-2.8984,-2.8984,-2.8984,-2.8984,-2.8984,-2.8984,-2.8984,-2.8984,-2.8984,-2.8984,-2.8984,-4.0702,-4.0702,-4.0702,-4.0702,-4.0702,-4.0702,-4.0702,-4.0702,-4.0702,-4.0702,-4.0702,-4.0702,-4.0702,-4.0702,-4.0702,-4.0128,-3.9343,-3.9197,-3.8234,-3.7524,-3.7853,-3.804,-3.7989,-3.7839,-3.798,-3.7853,-3.678,-3.6266,-3.599,-3.5569,-3.5256,-3.5244,-3.4883,-3.4775,-3.4775,-3.4775,-3.4775,-3.4775,-3.4775,-3.4775,-3.4775,-3.4775,-3.4775,-3.4775,-3.4775,-3.4775,-3.4775,-3.4775,-3.4775,-3.4775,-3.4775,-3.4775,-3.4775,-3.4775,-3.4775,-3.4775,-3.4775,-3.4775,-3.4775,-3.4775,-3.4775,-3.4775,-3.4775,-3.4775,-3.4775,-3.4775,-3.4775,-3.4775,-3.4775,-3.4775,-3.4726,-3.4628,-3.4384,-3.42,-3.4021,-3.395,-3.4421,-3.5108,-3.5474,-3.583,-3.5715,-3.4626,-3.3607,-3.2416,-3.1381,-3.0412,-2.9153,-2.9044,-2.8984,-2.8984,-2.8984,-2.8984,-2.8984,-2.8984,-2.8984,-2.8984,-2.8984,-2.8984,-2.8984,-2.8984,-2.8984,-2.8984,-2.8984,-2.8984,-2.8984,-2.8984,-2.8984,-2.8984,-2.8984,-2.8984,-2.8984,-2.8984,-2.8984,-2.8984,-2.8984,-4.0702,-4.0702,-4.0702,-4.0702,-4.0702,-4.0702,-4.0702,-4.0702,-4.0702,-4.0702,-4.0702,-4.0702,-4.0702,-4.0702,-4.0659,-3.9954,-3.9543,-3.9485,-3.8523,-3.8273,-3.8958,-3.8836,-3.868,-3.868,-3.8265,-3.7466,-3.6328,-3.5813,-3.5497,-3.5087,-3.4883,-3.4787,-3.4775,-3.4775,-3.4775,-3.4775,-3.4775,-3.4775,-3.4775,-3.4775,-3.4775,-3.4775,-3.4775,-3.4775,-3.4775,-3.4775,-3.4775,-3.4775,-3.4775,-3.4775,-3.4775,-3.4775,-3.4775,-3.4775,-3.4775,-3.4775,-3.4775,-3.4775,-3.4775,-3.4775,-3.4775,-3.4775,-3.4775,-3.4775,-3.4775,-3.4775,-3.4775,-3.4775,-3.4775,-3.4787,-3.4689,-3.4506,-3.4321,-3.4158,-3.405,-3.4051,-3.4855,-3.5405,-3.5583,-3.5879,-3.488,-3.3765,-3.2633,-3.1391,-3.047,-2.944,-2.8984,-2.8984,-2.8984,-2.8984,-2.8984,-2.8984,-2.8984,-2.8984,-2.8984,-2.8984,-2.8984,-2.8984,-2.8984,-2.8984,-2.8984,-2.8984,-2.8984,-2.8984,-2.8984,-2.8984,-2.8984,-2.8984,-2.8984,-2.8984,-2.8984,-2.8984,-2.8984,-2.8984,-2.8925,-4.0702,-4.0702,-4.0702,-4.0702,-4.0702,-4.0702,-4.0702,-4.0702,-4.0702,-4.0702,-4.0702,-4.0702,-4.0702,-4.0702,-4.0702,-4.0241,-3.9561,-3.9775,-3.9673,-3.9377,-3.9839,-3.9522,-3.9006,-3.8617,-3.7667,-3.654,-3.5536,-3.5125,-3.5075,-3.4895,-3.4775,-3.4775,-3.4775,-3.4775,-3.4775,-3.4775,-3.4775,-3.4775,-3.4775,-3.4775,-3.4775,-3.4775,-3.4775,-3.4775,-3.4775,-3.4775,-3.4775,-3.4775,-3.4775,-3.4775,-3.4775,-3.4775,-3.4775,-3.4775,-3.4775,-3.4775,-3.4775,-3.4775,-3.4775,-3.4775,-3.4775,-3.4775,-3.4775,-3.4775,-3.4775,-3.4775,-3.4775,-3.4775,-3.4787,-3.4835,-3.4749,-3.4442,-3.4231,-3.4231,-3.4144,-3.4498,-3.5039,-3.4737,-3.4537,-3.4261,-3.3698,-3.2633,-3.1564,-3.0704,-3.0246,-2.9381,-2.8984,-2.8984,-2.8984,-2.8984,-2.8984,-2.8984,-2.8984,-2.8984,-2.8984,-2.8984,-2.8984,-2.8984,-2.8984,-2.8984,-2.8984,-2.8984,-2.8984,-2.8984,-2.8984,-2.8984,-2.8984,-2.8984,-2.8984,-2.8984,-2.8984,-2.8984,-2.8984,-2.8925,-2.8806]},{"header":{"parameterUnit":"m.s-1","parameterCategory":1,"la1":31.0,"la2":29.5877,"lo1":-88.7671,"lo2":-86.6584,"dx":0.0162,"dy":0.0185,"nx":115,"ny":88,"refTime":"2023-01-04T18:00:00:Z","depth":0,"parameterNumber":3,"parameterNumberName":"V-component_of_WINDS"},"data":[0.0,0.0,0.0,0.0,0.0,0.0,0.0,0.0,0.0,0.0,0.0,0.0,0.0,0.0,0.0,0.0,0.0,0.0,0.0,0.0,0.0,0.0,0.0,0.0,0.0,0.0,0.0,0.0,0.0,0.0,0.0,0.0,0.0,0.0,0.0,0.0,0.0,0.0,0.0,0.0,0.0,0.0,0.0,0.0,0.0,0.0,0.0,0.0,0.0,0.0,0.0,0.0,0.0,0.0,0.0,0.0,0.0,0.0,0.0,0.0,0.0,0.0,0.0,0.0,0.0,0.0,0.0,0.0,0.0,0.0,0.0,0.0,0.0,0.0,0.0,0.0,0.0,0.0,0.0,0.0,0.0,0.0,0.0,0.0,0.0,0.0,0.0,0.0,0.0,0.0,0.0,0.0,0.0,0.0,0.0,0.0,0.0,0.0,0.0,0.0,0.0,0.0,0.0,0.0,0.0,0.0,0.0,0.0,0.0,0.0,0.0,0.0,0.0,0.0,0.0,0.0,0.0,0.0,0.0,0.0,0.0,0.0,0.0,0.0,0.0,0.0,0.0,0.0,0.0,0.0,0.0,0.0,0.0,0.0,0.0,0.0,0.0,0.0,0.0,0.0,0.0,0.0,0.0,0.0,0.0,0.0,0.0,0.0,0.0,0.0,0.0,0.0,0.0,0.0,0.0,0.0,0.0,0.0,0.0,0.0,0.0,0.0,0.0,0.0,0.0,0.0,0.0,0.0,0.0,0.0,0.0,0.0,0.0,0.0,0.0,0.0,0.0,0.0,0.0,0.0,0.0,0.0,0.0,0.0,0.0,0.0,0.0,0.0,0.0,0.0,0.0,0.0,0.0,0.0,0.0,0.0,0.0,0.0,0.0,0.0,0.0,0.0,0.0,0.0,0.0,0.0,0.0,0.0,0.0,0.0,0.0,0.0,0.0,0.0,0.0,0.0,0.0,0.0,0.0,0.0,0.0,0.0,0.0,0.0,0.0,0.0,0.0,0.0,0.0,0.0,0.0,0.0,0.0,0.0,0.0,0.0,0.0,0.0,0.0,0.0,0.0,0.0,0.0,0.0,0.0,0.0,0.0,0.0,0.0,0.0,0.0,0.0,0.0,0.0,0.0,0.0,0.0,0.0,0.0,0.0,0.0,0.0,0.0,0.0,0.0,0.0,0.0,0.0,0.0,0.0,0.0,0.0,0.0,0.0,0.0,0.0,0.0,0.0,0.0,0.0,0.0,0.0,0.0,0.0,0.0,0.0,0.0,0.0,0.0,0.0,0.0,0.0,0.0,0.0,0.0,0.0,0.0,0.0,0.0,0.0,0.0,0.0,0.0,0.0,0.0,0.0,0.0,0.0,0.0,0.0,0.0,0.0,0.0,0.0,0.0,0.0,0.0,0.0,0.0,0.0,0.0,0.0,0.0,0.0,0.0,0.0,0.0,0.0,0.0,0.0,0.0,0.0,0.0,0.0,0.0,0.0,0.0,0.0,0.0,0.0,0.0,0.0,0.0,0.0,0.0,0.0,0.0,0.0,0.0,0.0,0.0,0.0,0.0,0.0,0.0,0.0,0.0,0.0,0.0,0.0,0.0,0.0,0.0,0.0,0.0,0.0,0.0,0.0,0.0,0.0,0.0,0.0,0.0,0.0,0.0,0.0,0.0,0.0,0.0,0.0,0.0,0.0,0.0,0.0,0.0,0.0,0.0,0.0,0.0,0.0,0.0,0.0,0.0,0.0,0.0,0.0,0.0,0.0,0.0,0.0,0.0,0.0,0.0,0.0,0.0,0.0,0.0,0.0,0.0,0.0,0.0,0.0,0.0,0.0,0.0,0.0,0.0,0.0,0.0,0.0,0.0,0.0,0.0,0.0,0.0,0.0,0.0,0.0,0.0,0.0,0.0,0.0,0.0,0.0,0.0,0.0,0.0,0.0,0.0,0.0,0.0,0.0,0.0,0.0,0.0,0.0,0.0,0.0,0.0,0.0,0.0,0.0,0.0,0.0,0.0,0.0,0.0,0.0,0.0,0.0,0.0,0.0,0.0,0.0,0.0,0.0,0.0,0.0,0.0,0.0,0.0,0.0,0.0,0.0,0.0,0.0,0.0,0.0,0.0,0.0,0.0,0.0,0.0,0.0,0.0,0.0,0.0,0.0,0.0,0.0,0.0,0.0,0.0,0.0,0.0,0.0,0.0,0.0,0.0,0.0,0.0,0.0,0.0,0.0,0.0,0.0,0.0,0.0,0.0,0.0,0.0,0.0,0.0,0.0,0.0,0.0,0.0,0.0,0.0,0.0,0.0,0.0,0.0,0.0,0.0,0.0,0.0,0.0,0.0,0.0,0.0,0.0,0.0,0.0,0.0,0.0,0.0,0.0,0.0,0.0,0.0,0.0,0.0,0.0,0.0,0.0,0.0,0.0,0.0,0.0,0.0,0.0,0.0,0.0,0.0,0.0,0.0,0.0,0.0,0.0,0.0,0.0,0.0,0.0,0.0,0.0,0.0,0.0,0.0,0.0,0.0,0.0,0.0,0.0,0.0,0.0,0.0,0.0,0.0,0.0,0.0,0.0,0.0,0.0,0.0,0.0,0.0,0.0,0.0,0.0,0.0,0.0,0.0,0.0,0.0,0.0,0.0,0.0,0.0,0.0,0.0,0.0,0.0,0.0,0.0,0.0,0.0,0.0,0.0,0.0,0.0,0.0,0.0,0.0,0.0,0.0,0.0,0.0,0.0,0.0,0.0,0.0,0.0,0.0,0.0,0.0,0.0,0.0,0.0,0.0,0.0,0.0,0.0,0.0,0.0,0.0,0.0,0.0,0.0,0.0,0.0,0.0,0.0,0.0,0.0,0.0,0.0,0.0,0.0,0.0,0.0,0.0,0.0,0.0,0.0,0.0,0.0,0.0,0.0,0.0,0.0,0.0,0.0,0.0,0.0,0.0,0.0,0.0,0.0,0.0,0.0,0.0,0.0,0.0,0.0,0.0,0.0,0.0,0.0,0.0,0.0,0.0,0.0,0.0,0.0,0.0,0.0,0.0,0.0,0.0,0.0,0.0,0.0,0.0,0.0,0.0,0.0,0.0,0.0,0.0,0.0,0.0,0.0,0.0,0.0,0.0,0.0,0.0,0.0,0.0,0.0,0.0,0.0,0.0,0.0,0.0,0.0,0.0,0.0,0.0,0.0,0.0,0.0,0.0,0.0,0.0,0.0,0.0,0.0,0.0,0.0,0.0,0.0,0.0,0.0,0.0,0.0,0.0,0.0,0.0,0.0,0.0,0.0,0.0,0.0,0.0,0.0,0.0,0.0,0.0,0.0,0.0,0.0,0.0,0.0,0.0,0.0,0.0,0.0,0.0,0.0,0.0,0.0,0.0,0.0,0.0,0.0,0.0,0.0,0.0,0.0,0.0,0.0,0.0,0.0,0.0,0.0,0.0,0.0,0.0,0.0,0.0,0.0,0.0,0.0,0.0,0.0,0.0,0.0,0.0,0.0,0.0,0.0,0.0,0.0,0.0,0.0,0.0,0.0,0.0,0.0,0.0,0.0,0.0,0.0,0.0,0.0,0.0,0.0,0.0,0.0,0.0,0.0,0.0,0.0,0.0,0.0,0.0,0.0,0.0,0.0,0.0,0.0,0.0,0.0,0.0,0.0,0.0,0.0,0.0,0.0,0.0,0.0,0.0,0.0,0.0,0.0,0.0,0.0,0.0,0.0,0.0,0.0,0.0,0.0,0.0,0.0,0.0,0.0,0.0,0.0,0.0,0.0,0.0,0.0,0.0,0.0,0.0,0.0,0.0,0.0,0.0,0.0,0.0,0.0,0.0,0.0,0.0,0.0,0.0,0.0,0.0,0.0,0.0,0.0,0.0,0.0,0.0,0.0,0.0,0.0,0.0,0.0,0.0,0.0,0.0,0.0,0.0,0.0,0.0,0.0,0.0,0.0,0.0,0.0,0.0,0.0,0.0,0.0,0.0,0.0,0.0,0.0,0.0,0.0,0.0,0.0,0.0,0.0,0.0,0.0,0.0,0.0,0.0,0.0,0.0,0.0,0.0,0.0,0.0,0.0,0.0,0.0,0.0,0.0,0.0,0.0,0.0,0.0,0.0,0.0,0.0,0.0,0.0,0.0,0.0,0.0,0.0,0.0,0.0,0.0,0.0,0.0,0.0,0.0,0.0,0.0,0.0,0.0,0.0,0.0,0.0,0.0,0.0,0.0,0.0,0.0,0.0,0.0,0.0,0.0,0.0,0.6207,0.0,0.0,0.0,0.6498,0.0,0.0,0.0,0.0,0.0,0.0,0.0,0.0,0.0,0.0,0.0,0.0,0.0,0.0,0.0,0.0,0.0,0.0,0.0,0.0,0.0,0.0,0.0,0.0,0.0,0.0,0.0,0.0,0.0,0.0,0.0,0.0,0.0,0.0,0.0,0.0,0.0,0.0,0.0,0.0,0.0,0.0,0.0,0.0,0.0,0.0,0.0,0.0,0.0,0.0,0.0,0.0,0.0,0.0,0.0,0.0,0.0,0.0,0.0,0.0,0.0,0.0,0.0,0.0,0.0,0.0,0.0,0.0,0.0,0.0,0.0,0.0,0.0,0.0,0.0,0.0,0.0,0.0,0.0,0.0,0.0,0.0,0.0,0.0,0.0,0.0,0.0,0.0,0.0,0.0,0.0,0.0,0.0,0.0,0.0,0.0,0.0,0.0,0.0,0.0,0.0,0.0,0.0,0.0,0.0,0.0,0.0,0.0,0.0,0.0,0.6277,0.5835,0.6498,0.664,0.6156,0.0,0.0,0.0,0.0,0.0,0.0,0.0,0.0,0.0,0.0,0.0,0.0,0.0,0.0,0.0,0.0,0.0,0.0,0.0,0.0,0.0,0.0,0.0,0.0,0.0,0.0,0.0,0.0,0.0,0.0,0.0,0.0,0.0,0.0,0.0,0.0,0.0,0.0,0.0,0.0,0.0,0.0,0.0,0.0,0.0,0.0,0.0,0.0,0.0,0.0,0.0,0.0,0.0,0.0,0.0,0.0,0.0,0.0,0.0,0.0,0.0,0.0,0.0,0.0,0.0,0.0,0.0,0.0,0.0,0.0,0.0,0.0,0.0,0.0,0.0,0.0,0.0,0.0,0.0,0.0,0.0,0.0,0.0,0.0,0.0,0.0,0.0,0.0,0.0,0.0,0.0,0.0,0.0,0.0,0.0,0.0,0.0,0.0,0.0,0.0,0.0,0.0,0.0,0.0,0.0,0.0,0.0,0.0,0.0,0.0,0.0,0.0,0.6662,0.6706,0.6024,0.0,0.0,0.0,0.0,0.0,0.0,0.0,0.0,0.0,0.0,0.0,0.0,0.0,0.0,0.0,0.0,0.0,0.0,0.0,0.0,0.0,0.0,0.0,0.0,0.0,0.0,0.0,0.0,0.0,0.0,0.0,0.0,0.0,0.0,0.0,0.0,0.0,0.0,0.0,0.0,0.0,0.0,0.0,0.0,0.0,0.0,0.0,0.0,0.0,0.0,0.0,0.0,0.0,0.0,0.0,0.0,0.0,0.0,0.0,0.0,0.0,0.0,0.0,0.0,0.0,0.0,0.0,0.0,0.0,0.0,0.0,0.0,0.0,0.0,0.0,0.0,0.0,0.0,0.0,0.0,0.0,0.0,0.0,0.0,0.0,0.0,0.0,0.0,0.0,0.0,0.0,0.0,0.0,0.0,0.0,0.0,0.0,0.0,0.0,0.0,0.0,0.0,0.0,0.0,0.0,0.0,0.0,0.0,0.0,0.0,0.6036,0.6432,0.6509,0.0,0.6487,0.0,0.0,0.0,0.0,0.0,0.0,0.0,0.0,0.0,0.0,0.0,0.0,0.0,0.0,0.0,0.0,0.0,0.0,0.0,0.0,0.0,0.0,0.0,0.0,0.0,0.0,0.0,0.0,0.0,0.0,0.0,0.0,0.0,0.0,0.0,0.0,0.0,0.0,0.0,0.0,0.0,0.0,0.0,0.0,0.0,0.0,0.0,0.0,0.0,0.0,0.0,0.0,0.0,0.0,0.0,0.0,0.0,0.0,0.0,0.0,0.0,0.0,0.0,0.0,0.0,0.0,0.0,0.0,0.0,0.0,0.0,0.0,0.0,0.0,0.0,0.0,0.0,0.0,0.0,0.0,0.0,0.0,0.0,0.0,0.0,0.0,0.0,0.0,0.0,0.0,0.0,0.0,0.0,0.0,0.0,0.0,0.0,0.0,0.0,0.0,0.0,0.0,0.0,0.0,0.0,0.0,0.0,0.0,0.0,0.0,0.6341,0.66,0.6652,0.6725,0.0,0.0,0.0,0.0,0.0,0.0,0.0,0.0,0.0,0.0,0.0,0.0,0.0,0.0,0.0,0.0,0.0,0.0,0.0,0.0,0.0,0.0,0.0,0.0,0.0,0.0,0.0,0.0,0.0,0.0,0.0,0.0,0.0,0.0,0.0,0.0,0.0,0.0,0.0,0.0,0.0,0.0,0.0,0.0,0.0,0.0,0.0,0.0,0.0,0.0,0.0,0.0,0.0,0.0,0.0,0.0,0.0,0.0,0.0,0.0,0.0,0.0,0.0,0.0,0.0,0.0,0.0,0.0,0.0,0.0,0.0,0.0,0.0,0.0,0.0,0.0,0.0,0.0,0.0,0.0,0.0,0.0,0.0,0.0,0.0,0.0,0.0,0.0,0.0,0.0,0.0,0.0,0.0,0.0,0.0,0.0,0.0,0.0,0.0,0.0,0.0,0.0,0.0,0.0,0.0,0.0,0.0,0.0,0.0,0.0,0.6701,0.699,0.7315,0.7141,0.7065,0.7139,0.0,0.0,0.0,0.0,0.0,0.0,0.0,0.0,0.0,0.0,0.0,0.0,0.0,0.0,0.0,0.0,0.0,0.0,0.0,0.0,0.0,0.0,0.0,0.0,0.0,0.0,0.0,0.0,0.0,0.0,0.0,0.0,0.0,0.0,0.0,0.0,0.0,0.0,0.0,0.0,0.0,0.0,0.0,0.0,0.0,0.0,0.0,0.0,0.0,0.0,0.0,0.0,0.0,0.0,0.0,0.0,0.0,0.0,0.0,0.0,0.0,0.0,0.0,0.0,0.0,0.0,0.0,0.0,0.0,0.0,0.0,0.0,0.0,0.0,0.0,0.0,0.0,0.0,0.0,0.0,0.0,0.0,0.0,0.0,0.0,0.0,0.0,0.0,0.0,0.0,0.0,0.0,0.0,0.0,0.0,0.0,0.0,0.0,0.0,0.0,0.0,0.0,0.0,0.0,0.0,0.0,0.0,0.0,0.8058,0.7772,0.8015,0.8916,0.8084,0.7576,0.0,0.0,0.0,0.0,0.0,0.0,0.0,0.0,0.0,0.0,0.0,0.0,0.0,0.0,0.0,0.0,0.0,0.0,0.0,0.0,0.0,0.0,0.0,0.0,0.0,0.0,0.0,0.0,0.0,0.0,0.0,0.0,0.0,0.0,0.0,0.0,0.0,0.0,0.0,0.0,0.0,0.0,0.0,0.0,0.0,0.0,0.0,0.0,0.0,0.0,0.0,0.0,0.0,0.0,0.0,0.0,0.0,0.0,0.0,0.0,0.0,0.0,0.0,0.0,0.0,0.0,0.0,0.0,0.0,0.0,0.0,0.0,0.0,0.0,0.0,0.0,0.0,0.0,0.0,0.0,0.0,0.0,0.0,0.0,0.0,0.0,0.0,0.0,0.0,0.0,0.0,0.0,0.0,0.0,0.0,0.0,0.0,0.0,0.0,0.0,0.0,0.0,0.0,0.0,0.0,0.0,0.0,0.0,0.0,0.7323,0.7923,0.8722,0.9671,0.8933,0.8476,0.0,0.0,0.0,0.0,0.0,0.0,0.0,0.0,0.0,0.0,0.0,0.0,0.0,0.0,0.0,0.0,0.0,0.0,0.0,0.0,0.0,0.0,0.0,0.0,0.0,0.0,0.0,0.0,0.0,0.0,0.0,0.0,0.0,0.0,0.0,0.0,0.0,0.0,0.0,0.0,0.0,0.0,0.0,0.0,0.0,0.0,0.0,0.0,0.0,0.0,0.0,0.0,0.0,0.0,0.0,0.0,0.0,0.0,0.0,0.0,0.0,0.0,0.0,0.0,0.0,0.0,0.0,0.0,0.0,0.0,0.0,0.0,0.0,0.0,0.0,0.0,0.0,0.0,0.0,0.0,0.0,0.0,0.0,0.0,0.0,0.0,0.0,0.0,0.0,0.0,0.0,0.0,0.0,0.0,0.0,0.0,0.0,0.0,0.0,0.0,0.0,0.0,0.0,0.0,0.0,0.0,0.0,0.0,0.0,0.7923,0.907,0.9904,1.0356,0.967,0.9169,0.0,0.0,0.0,0.0,0.0,0.0,0.0,0.0,0.0,0.0,0.0,0.0,0.0,0.0,0.0,0.0,0.0,0.0,0.0,0.0,0.0,0.0,0.0,0.0,0.0,0.0,0.0,0.0,0.0,0.0,0.0,0.0,0.0,0.0,0.0,0.0,0.0,0.0,0.0,0.0,0.0,0.0,0.0,0.0,0.0,0.0,0.0,0.0,0.0,0.0,0.0,0.0,0.0,0.0,0.0,0.0,0.0,0.0,0.0,0.0,0.0,0.0,0.0,0.0,0.0,0.0,0.0,0.0,0.0,0.0,0.0,0.0,0.0,0.0,0.0,0.0,0.0,0.0,0.0,0.0,0.0,0.0,0.0,0.0,0.0,0.0,0.0,0.0,0.0,0.0,0.0,0.0,0.0,0.0,0.0,0.0,0.0,0.0,0.0,0.0,0.0,0.0,0.0,0.0,0.0,0.0,0.0,0.0,0.8142,1.0159,1.1255,1.152,1.1126,1.0274,0.9566,0.0,0.0,0.0,0.0,0.0,0.0,0.0,0.0,0.0,0.0,0.0,0.0,0.0,0.0,0.0,0.0,0.0,0.0,0.0,0.0,0.0,0.0,0.0,0.0,0.0,0.0,0.0,0.0,0.0,0.0,0.0,0.0,0.0,0.0,0.0,0.0,0.0,0.0,0.0,0.0,0.0,0.0,0.0,0.0,0.0,0.0,0.0,0.0,0.0,0.0,0.0,0.0,0.0,0.0,0.0,0.0,0.0,0.0,0.0,0.0,0.0,0.0,0.0,0.0,0.0,0.0,0.0,0.0,0.0,0.0,0.0,0.0,0.0,0.0,0.0,0.0,0.0,0.0,0.0,0.0,0.0,0.0,0.0,0.0,0.0,0.0,0.0,0.0,0.0,0.0,0.0,0.0,0.0,0.0,0.0,0.0,0.0,0.0,0.0,0.0,0.0,0.0,0.0,0.0,0.0,0.0,0.0,0.0,0.0,0.9749,1.0813,1.1451,1.1624,1.0945,1.045,0.0,0.0,0.0,0.0,0.0,0.0,0.0,0.0,0.0,0.0,0.0,0.0,0.0,0.0,0.0,0.0,0.0,0.0,0.0,0.0,0.0,0.0,0.0,0.0,0.0,0.0,0.0,0.0,0.0,0.0,0.0,0.0,0.0,0.0,0.0,0.0,0.0,0.0,0.0,0.0,0.0,0.0,0.0,0.0,0.0,0.0,0.0,0.0,0.0,0.0,0.0,0.0,0.0,0.0,0.0,0.0,0.0,0.0,0.0,0.0,0.0,0.0,0.0,0.0,0.0,0.0,0.0,0.0,0.0,0.0,0.0,0.0,0.0,0.0,0.0,0.0,0.0,0.0,0.0,0.0,0.0,0.0,0.0,0.0,0.0,0.0,0.0,0.0,0.0,0.0,0.0,0.0,0.0,0.0,0.0,0.0,0.0,0.0,0.0,0.0,0.0,0.0,0.0,0.0,0.0,0.0,0.0,0.0,0.0,1.1319,1.1952,1.2406,1.2655,1.2312,1.1772,1.0997,0.0,0.0,0.0,0.0,0.0,0.0,0.0,0.0,0.0,0.0,0.0,0.0,0.0,0.0,0.0,0.0,0.0,0.0,0.0,0.0,0.0,0.0,0.0,0.0,0.0,0.0,0.0,0.0,0.0,0.0,0.0,0.0,0.0,0.0,0.0,0.0,0.0,0.0,0.0,0.0,0.0,0.0,0.0,0.0,0.0,0.0,0.0,0.0,0.0,0.0,0.0,0.0,0.0,0.0,0.0,0.0,0.0,0.0,0.0,0.0,0.0,0.0,0.0,0.0,0.0,0.0,0.0,0.0,0.0,0.0,0.0,0.0,0.0,0.0,0.0,0.0,0.0,0.0,0.0,0.0,0.0,0.0,0.0,0.0,0.0,0.0,0.0,0.0,0.0,0.0,0.0,0.0,0.0,0.0,0.0,0.0,0.0,0.0,0.0,0.0,0.0,0.0,0.0,0.0,0.0,0.0,0.0,0.0,1.451,1.4552,1.4408,1.4113,1.4183,1.3363,0.0,0.0,0.0,0.0,0.0,0.0,0.0,0.0,0.0,0.0,0.0,0.0,0.0,0.0,0.0,0.0,0.0,0.0,0.0,0.0,0.0,0.0,0.0,0.0,0.0,0.0,0.0,0.0,0.0,0.0,0.0,0.0,0.0,0.0,0.0,0.0,0.0,0.0,0.0,0.0,0.0,0.0,0.0,0.0,0.0,0.0,0.0,0.0,0.0,0.0,0.0,0.0,0.0,0.0,0.0,0.0,0.0,0.0,0.0,0.0,0.0,0.0,0.0,0.0,0.0,0.0,0.0,0.0,0.0,0.0,0.0,0.0,0.0,0.0,0.0,0.0,0.0,0.0,0.0,0.0,0.0,0.0,0.0,0.0,0.0,0.0,0.0,0.0,0.0,0.0,0.0,0.0,0.0,0.0,0.0,0.0,0.0,0.0,0.0,0.0,0.0,0.0,0.0,0.0,0.0,0.0,0.0,0.0,0.0,1.7158,1.7579,1.7342,1.6506,1.5388,1.4358,0.0,0.0,0.0,0.0,0.0,0.0,0.0,0.0,0.0,0.0,0.0,0.0,0.0,0.0,0.0,0.0,0.0,0.0,0.0,0.0,0.0,0.0,0.0,0.0,0.0,0.0,0.0,0.0,0.0,0.0,0.0,0.0,0.0,0.0,0.0,0.0,0.0,0.0,0.0,0.0,0.0,0.0,0.0,0.0,0.0,0.0,0.0,0.0,0.0,0.0,0.0,0.0,0.0,0.0,0.0,0.0,0.0,0.0,0.0,0.0,0.0,0.0,0.0,0.0,0.0,0.0,0.0,0.0,0.0,0.0,0.0,0.0,0.0,0.0,0.0,0.0,0.0,0.0,0.0,0.0,0.0,0.0,0.0,0.0,0.0,0.0,0.0,0.0,0.0,0.0,0.0,0.0,0.0,0.0,0.0,0.0,0.0,0.0,0.0,0.0,0.0,0.0,0.0,0.0,0.0,0.0,0.0,0.0,1.6316,1.808,1.9561,1.994,1.9074,1.7081,1.5636,0.0,0.0,0.0,0.0,0.0,0.0,0.0,0.0,0.0,0.0,0.0,0.0,0.0,0.0,0.0,0.0,0.0,0.0,0.0,0.0,0.0,0.0,0.0,0.0,0.0,0.0,0.0,0.0,0.0,0.0,0.0,0.0,0.0,0.0,0.0,0.0,0.0,0.0,0.0,0.0,0.0,0.0,0.0,0.0,0.0,0.0,0.0,0.0,0.0,0.0,0.0,0.0,0.0,0.0,0.0,0.0,0.0,0.0,0.0,0.0,0.0,0.0,0.0,0.0,0.0,0.0,0.0,0.0,0.0,0.0,0.0,0.0,0.0,0.0,0.0,0.0,0.0,0.0,0.0,0.0,0.0,0.0,0.0,0.0,0.0,0.0,0.0,0.0,0.0,0.0,0.0,0.0,0.0,0.0,0.0,0.0,0.0,0.0,0.0,0.0,0.0,0.0,0.0,0.0,0.0,0.0,0.0,0.0,1.7296,1.8276,2.0877,2.1986,2.1409,1.8979,1.7083,0.0,0.0,0.0,0.0,0.0,0.0,0.0,0.0,0.0,0.0,0.0,0.0,0.0,0.0,0.0,0.0,0.0,0.0,0.0,0.0,0.0,0.0,0.0,0.0,0.0,0.0,0.0,0.0,0.0,0.0,0.0,0.0,0.0,0.0,0.0,0.0,0.0,0.0,0.0,0.0,0.0,0.0,0.0,0.0,0.0,0.0,0.0,0.0,0.0,0.0,0.0,0.0,0.0,0.0,0.0,0.0,0.0,0.0,0.0,0.0,0.0,0.0,0.0,0.0,0.0,0.0,0.0,0.0,0.0,0.0,0.0,0.0,0.0,0.0,0.0,0.0,0.0,0.0,0.0,0.0,0.0,0.0,0.0,0.0,0.0,0.0,0.0,0.0,0.0,0.0,0.0,0.0,0.0,0.0,0.0,0.0,0.0,0.0,0.0,0.0,0.0,0.0,0.0,0.0,0.0,0.0,0.0,0.0,1.9759,2.1364,2.2147,2.2452,2.2309,2.0012,1.825,0.0,0.0,0.0,0.0,0.0,0.0,0.0,0.0,0.0,0.0,0.0,0.0,0.0,0.0,0.0,0.0,0.0,0.0,0.0,0.0,0.0,0.0,0.0,0.0,0.0,0.0,0.0,0.0,0.0,0.0,0.0,0.0,0.0,0.0,0.0,0.0,0.0,0.0,0.0,0.0,0.0,0.0,0.0,0.0,0.0,0.0,0.0,0.0,1.2553,0.0,0.0,0.0,0.0,0.0,0.0,0.0,0.0,0.0,0.0,0.0,0.0,0.0,0.0,0.0,0.0,0.0,0.0,0.0,0.0,0.0,0.0,0.0,0.0,0.0,0.0,0.0,0.0,0.0,0.0,0.0,0.0,0.0,0.0,0.0,0.0,0.0,0.0,0.0,0.0,0.0,0.0,0.0,0.0,0.0,0.0,0.0,0.0,0.0,0.0,0.0,0.0,0.0,0.0,0.0,0.0,0.0,0.0,0.0,2.0216,2.153,2.2232,2.2449,2.2112,2.1171,1.988,0.0,0.0,0.0,0.0,0.0,0.0,0.0,0.0,0.0,0.0,0.0,0.0,0.0,0.0,0.0,0.0,0.0,0.0,0.0,0.0,0.0,0.0,0.0,0.0,0.0,0.0,0.0,0.0,0.0,0.0,0.0,0.0,0.0,0.0,0.0,0.0,0.0,0.0,0.0,0.0,0.0,0.0,0.0,0.0,0.0,0.0,0.0,0.0,0.0,0.0,0.0,0.0,0.0,0.0,0.0,0.0,0.0,0.0,0.0,0.0,0.0,0.0,0.0,0.0,0.0,0.0,0.0,0.0,0.0,0.0,0.0,0.0,0.0,0.0,0.0,0.0,0.0,0.0,0.0,0.0,0.0,0.0,0.0,0.0,0.0,0.0,0.0,0.0,0.0,0.0,0.0,0.0,0.0,0.0,0.0,0.0,0.0,0.0,0.0,0.0,0.0,0.0,0.0,0.0,0.0,0.0,0.0,1.8593,2.0271,2.1233,2.2257,2.2523,2.1985,2.2295,2.1369,1.9018,0.0,0.0,0.0,0.0,0.0,0.0,0.0,0.0,0.0,0.0,0.0,0.0,0.0,0.0,0.0,0.0,0.0,0.0,0.0,0.0,0.0,0.0,0.0,0.0,0.0,0.0,0.0,0.0,0.0,0.0,0.0,0.0,0.0,0.0,0.0,0.0,0.0,0.0,1.0429,1.1681,0.0,0.0,0.0,0.0,0.0,0.0,0.0,0.0,1.3511,0.0,0.0,0.0,0.0,0.0,0.0,0.0,0.0,0.0,0.0,0.0,0.0,0.0,0.0,0.0,0.0,0.0,0.0,0.0,0.0,0.0,0.0,0.0,0.0,0.0,0.0,0.0,0.0,0.0,0.0,0.0,0.0,0.0,0.0,0.0,0.0,0.0,0.0,0.0,0.0,0.0,0.0,0.0,0.0,0.0,0.0,0.0,0.0,0.0,0.0,0.0,0.0,0.0,0.0,0.0,0.0,1.8307,1.9969,2.186,2.4043,2.3835,2.3627,2.3488,2.3074,2.1643,1.9175,0.0,0.0,0.0,0.0,0.0,0.0,0.0,0.0,0.0,0.0,0.0,0.0,0.0,0.0,0.0,0.0,0.0,0.0,0.0,0.0,0.0,0.0,0.0,0.0,0.0,0.0,0.0,0.0,0.0,0.0,0.0,0.0,0.0,0.0,0.0,0.0,0.0,0.0,0.0,1.3797,1.3887,0.0,0.0,0.0,0.0,0.0,0.0,0.0,0.0,1.4974,0.0,0.0,0.0,0.0,0.0,0.0,0.0,0.0,0.0,0.0,0.0,0.0,0.0,0.0,0.0,0.0,0.0,0.0,0.0,0.0,0.0,0.0,0.0,0.0,0.0,0.0,0.0,0.0,0.0,0.0,0.0,0.0,0.0,0.0,0.0,0.0,0.0,0.0,0.0,0.0,0.0,0.0,0.0,0.0,0.0,0.0,0.0,0.0,0.0,0.0,0.0,0.0,0.0,0.0,0.0,1.8534,2.1156,2.3093,2.4283,2.4036,2.3938,2.3993,2.3267,2.175,0.0,0.0,0.0,0.0,0.0,0.0,0.0,0.0,0.0,0.0,0.0,0.0,0.0,0.0,0.0,0.0,0.0,0.0,0.0,0.0,0.0,0.0,0.0,0.0,0.0,0.0,0.0,0.0,0.0,0.0,0.0,0.0,0.0,0.0,0.0,0.0,0.0,0.0,0.0,0.0,1.495,1.5447,1.6788,0.0,0.0,0.0,0.0,0.0,0.0,1.5606,1.5113,0.0,0.0,0.0,0.0,0.0,0.0,0.0,0.0,0.0,0.0,0.0,0.0,0.0,0.0,0.0,0.0,0.0,0.0,0.0,0.0,0.0,0.0,0.0,0.0,0.0,0.0,0.0,0.0,0.0,0.0,0.0,0.0,0.0,0.0,0.0,0.0,0.0,0.0,0.0,0.0,0.0,0.0,0.0,0.0,0.0,0.0,0.0,0.0,0.0,0.0,0.0,0.0,0.0,0.0,0.0,1.847,2.2047,2.401,2.4136,2.415,2.4221,2.43,2.3169,2.1472,0.0,0.0,0.0,0.0,0.0,0.0,0.0,0.0,0.0,0.0,0.0,0.0,0.0,0.0,0.0,0.0,0.0,0.0,0.0,0.0,0.0,0.0,0.0,0.0,0.0,0.0,0.0,0.0,0.0,0.0,0.0,0.0,0.0,0.0,0.0,0.0,0.0,0.0,0.0,0.0,0.0,1.6772,1.7753,1.7156,0.0,0.0,0.0,0.0,1.6525,1.6367,0.0,0.0,0.0,0.0,0.0,0.0,0.0,0.0,0.0,0.0,0.0,0.0,0.0,0.0,0.0,0.0,0.0,0.0,0.0,0.0,0.0,0.0,0.0,0.0,0.0,0.0,0.0,0.0,0.0,0.0,0.0,0.0,0.0,0.0,0.0,0.0,0.0,0.0,0.0,0.0,0.0,0.0,0.0,0.0,0.0,0.0,0.0,0.0,0.0,0.0,0.0,0.0,0.0,0.0,0.0,0.0,1.9029,2.2367,2.4356,2.4921,2.5031,2.5064,2.5035,2.2695,2.045,0.0,0.0,0.0,0.0,0.0,0.0,0.0,0.0,0.0,0.0,0.0,0.0,0.0,0.0,0.0,0.0,0.0,0.0,0.0,0.0,0.0,0.0,0.0,0.0,0.0,0.0,0.0,0.0,0.0,0.0,0.0,0.0,0.0,0.0,0.0,0.0,0.0,0.0,0.0,0.0,0.0,1.7111,1.9013,1.8128,1.7443,0.0,0.0,1.9232,1.9756,2.0505,0.0,0.0,0.0,0.0,0.0,0.0,0.0,0.0,0.0,0.0,0.0,0.0,0.0,0.0,0.0,0.0,0.0,0.0,0.0,0.0,0.0,0.0,0.0,0.0,0.0,0.0,0.0,0.0,0.0,0.0,0.0,0.0,0.0,0.0,0.0,0.0,0.0,0.0,0.0,0.0,0.0,0.0,0.0,0.0,0.0,0.0,0.0,0.0,0.0,0.0,0.0,0.0,0.0,0.0,0.0,1.8556,1.9875,2.3803,2.581,2.5722,2.5756,2.5791,2.5878,2.3209,2.1072,0.0,0.0,0.0,0.0,0.0,0.0,0.0,0.0,0.0,0.0,0.0,0.0,0.0,0.0,0.0,0.0,0.0,0.0,0.0,0.0,0.0,0.0,0.0,0.0,0.0,0.0,0.0,0.0,0.0,0.0,0.0,0.0,0.0,0.0,0.0,0.0,0.0,0.0,0.0,0.0,0.0,0.0,1.979,1.9561,0.0,0.0,0.0,2.0076,1.9983,0.0,0.0,0.0,0.0,0.0,0.0,0.0,0.0,0.0,0.0,0.0,0.0,0.0,0.0,0.0,0.0,0.0,0.0,0.0,0.0,0.0,0.0,0.0,0.0,0.0,0.0,0.0,0.0,0.0,0.0,0.0,0.0,0.0,0.0,0.0,0.0,0.0,0.0,0.0,0.0,0.0,0.0,0.0,0.0,0.0,0.0,0.0,0.0,0.0,0.0,0.0,0.0,0.0,0.0,0.0,0.0,0.0,2.0367,2.5038,2.7185,2.6539,2.6519,2.6609,2.6639,2.4146,0.0,0.0,0.0,0.0,0.0,0.0,0.0,0.0,0.0,0.0,0.0,0.0,0.0,0.0,0.0,0.0,0.0,0.0,0.0,0.0,0.0,0.0,0.0,0.0,0.0,0.0,0.0,0.8406,0.0,0.0,0.0,0.0,0.0,0.0,0.0,0.0,0.0,0.0,0.0,0.0,0.0,0.0,1.8972,2.0213,2.065,2.1089,0.0,0.0,2.081,2.0642,2.1241,2.0959,0.0,0.0,0.0,0.0,0.0,0.0,0.0,0.0,0.0,0.0,0.0,0.0,0.0,0.0,0.0,0.0,0.0,0.0,0.0,0.0,0.0,0.0,0.0,0.0,0.0,0.0,0.0,0.0,0.0,0.0,0.0,0.0,0.0,0.0,0.0,0.0,0.0,0.0,0.0,0.0,0.0,0.0,0.0,0.0,0.0,0.0,0.0,0.0,0.0,0.0,0.0,0.0,0.0,0.0,1.9629,2.046,2.5577,2.7995,2.7357,2.7439,2.7515,2.7495,2.5446,2.2884,0.0,0.0,0.0,0.0,0.0,0.0,0.0,0.0,0.0,0.0,0.0,0.0,0.0,0.0,0.0,0.0,0.0,0.0,0.0,0.0,0.0,0.0,0.0,0.0,0.0,0.0,0.0,0.0,0.0,0.0,0.0,0.0,0.0,0.0,0.0,0.0,0.0,0.0,0.0,0.0,0.0,1.904,2.0247,2.1055,2.1759,0.0,2.1983,2.2034,2.3248,2.4105,2.3597,2.0295,0.0,0.0,0.0,0.0,0.0,0.0,0.0,0.0,0.0,0.0,0.0,0.0,0.0,0.0,0.0,0.0,0.0,0.0,0.0,0.0,0.0,0.0,0.0,0.0,0.0,0.0,0.0,0.0,0.0,0.0,0.0,0.0,0.0,0.0,0.0,0.0,0.0,0.0,0.0,0.0,0.0,0.0,0.0,0.0,0.0,0.0,0.0,0.0,0.0,0.0,0.0,0.0,0.0,1.9933,2.1005,2.5964,2.842,2.8155,2.8203,2.8397,2.8828,2.6424,2.4328,0.0,0.0,0.0,0.0,0.0,0.0,0.0,0.0,0.0,0.0,0.0,0.0,0.0,0.0,0.0,0.0,0.0,0.0,0.0,0.0,0.0,0.0,0.0,0.0,0.0,0.0,0.0,0.0,1.3141,1.3203,1.1774,0.0,0.0,0.0,0.0,0.0,0.0,0.0,0.0,0.0,0.0,2.0265,2.2825,2.3107,0.0,0.0,2.4126,2.3891,2.4317,2.4301,2.3522,2.1358,2.0047,0.0,0.0,0.0,0.0,0.0,0.0,0.0,0.0,0.0,0.0,0.0,0.0,0.0,0.0,0.0,0.0,0.0,0.0,0.0,0.0,0.0,0.0,0.0,0.0,0.0,0.0,0.0,0.0,0.0,0.0,0.0,0.0,0.0,0.0,0.0,0.0,0.0,0.0,0.0,0.0,0.0,0.0,0.0,0.0,0.0,0.0,0.0,0.0,0.0,0.0,0.0,0.0,2.0442,2.1741,2.6633,2.9175,2.9175,2.937,2.9594,2.9816,2.7838,2.6132,0.0,0.0,0.0,0.0,0.0,0.0,0.0,0.0,0.0,0.0,0.0,0.0,0.0,0.0,0.0,0.0,0.0,0.0,0.0,0.0,0.0,0.0,0.0,0.0,0.0,0.0,0.0,0.0,1.4435,1.4333,1.223,0.0,0.0,0.0,0.0,0.0,0.0,0.0,0.0,0.0,0.0,2.1999,2.4745,2.4767,2.4744,2.5463,2.522,2.4918,2.4799,2.4443,2.3764,2.258,0.0,0.0,0.0,0.0,0.0,0.0,0.0,0.0,0.0,0.0,0.0,0.0,0.0,0.0,0.0,0.0,0.0,0.0,0.0,0.0,0.0,0.0,0.0,0.0,0.0,0.0,0.0,1.0807,0.0,0.0,0.9976,0.0,0.0,0.0,0.0,0.0,0.0,0.0,0.0,0.0,0.0,0.0,0.0,0.0,0.0,0.0,0.0,0.0,0.0,0.0,0.0,0.0,0.0,2.1144,2.2533,2.7744,3.0447,3.0447,3.1077,3.1092,3.0507,2.9834,2.8248,2.5636,0.0,0.0,0.0,0.0,0.0,0.0,0.0,0.0,0.0,0.0,0.0,0.0,0.0,0.0,0.0,0.0,0.0,0.0,0.0,0.0,0.0,0.0,0.0,0.0,0.0,0.0,1.0457,1.1835,1.2811,0.0,0.0,0.0,0.0,0.0,0.0,0.0,0.0,0.0,2.0546,2.248,2.4182,2.5551,2.5631,2.5458,2.4881,2.4837,2.4882,2.4904,2.4933,2.4748,0.0,0.0,0.0,0.0,0.0,0.0,0.0,0.0,0.0,0.0,0.0,0.0,0.0,0.0,0.0,0.0,0.0,0.0,0.0,0.0,0.0,0.0,0.0,0.0,0.0,0.0,0.0,1.5339,1.4745,0.0,0.0,0.0,0.0,0.0,0.0,0.0,0.0,0.0,0.0,0.0,2.028,2.0881,0.0,0.0,0.0,0.0,0.0,0.0,0.0,0.0,0.0,0.0,0.0,0.0,2.1873,2.3346,2.845,3.0943,3.0537,3.1152,3.1391,3.1152,3.0148,2.8547,2.6318,0.0,0.0,0.0,0.0,0.0,0.0,0.0,0.0,0.0,0.0,0.0,0.0,0.0,0.0,0.0,0.0,0.0,0.0,0.0,0.0,0.0,0.0,0.0,0.0,0.0,1.3727,0.0,0.0,0.0,0.0,0.0,0.0,0.0,0.0,0.0,0.0,1.8466,2.1311,2.3328,2.4489,2.5794,2.7648,2.7825,2.8062,0.0,0.0,0.0,0.0,0.0,0.0,0.0,0.0,0.0,0.0,0.0,0.0,0.0,2.2497,2.1302,1.7546,1.7568,1.8139,1.8004,0.0,0.0,0.0,0.0,0.0,0.0,0.0,0.0,0.0,0.0,0.0,0.0,0.0,0.0,1.9131,1.8142,1.8324,0.0,0.0,0.0,0.0,0.0,0.0,0.0,0.0,2.2148,2.3082,2.3716,2.4328,2.4194,2.341,2.3199,2.1371,0.0,0.0,0.0,0.0,0.0,0.0,0.0,0.0,2.301,2.4686,2.9361,3.1735,3.1584,3.2213,3.2318,3.1839,3.0821,2.9639,2.8353,2.5944,2.3661,0.0,0.0,0.0,0.0,0.0,0.0,0.0,0.0,0.0,0.0,0.0,0.0,0.0,0.0,0.0,0.0,0.0,0.0,0.0,0.0,0.0,0.0,0.0,1.5652,0.0,0.0,0.0,0.0,0.0,0.0,0.0,0.0,0.0,1.8044,2.1088,2.4097,2.613,2.6909,2.782,2.9399,0.0,0.0,0.0,0.0,0.0,0.0,0.0,2.7037,2.6576,2.587,2.5516,2.6031,2.6344,2.6359,2.5871,0.0,0.0,2.1716,2.1639,2.218,2.2065,2.2028,2.2046,2.2028,2.2482,2.294,0.0,0.0,0.0,0.0,2.162,0.0,0.0,0.0,2.3699,2.2652,0.0,2.1545,0.0,0.0,0.0,0.0,1.9899,2.1774,0.0,0.0,2.723,2.8244,2.772,2.8278,2.8622,2.8592,2.7944,2.6647,2.4634,2.162,1.9256,0.0,0.0,0.0,0.0,0.0,2.4611,2.6737,3.0582,3.2886,3.3484,3.4204,3.3918,3.2632,3.1914,3.154,3.1391,2.8457,2.6195,2.4904,2.0467,0.0,0.0,0.0,0.0,0.0,0.0,0.0,0.0,0.0,0.0,0.0,0.0,0.0,0.0,0.0,0.0,0.0,0.0,0.0,0.0,1.6955,0.0,0.0,0.0,0.0,0.0,0.0,0.0,0.0,0.0,2.2299,2.0521,2.3643,2.6814,2.8728,0.0,0.0,0.0,0.0,2.9648,2.8974,2.8813,2.8618,2.8025,2.8989,2.9875,3.0004,0.0,0.0,3.0573,2.975,2.8921,2.7609,2.8583,2.8746,2.6749,2.581,2.5352,2.5284,2.5367,2.5345,2.5338,2.5932,2.6367,2.5839,0.0,0.0,0.0,0.0,2.4088,2.5061,2.6462,2.6447,2.5878,2.4896,2.4597,0.0,0.0,0.0,0.0,0.0,0.0,2.5262,2.7425,2.7739,2.8528,2.9669,2.9864,2.9729,2.934,3.0043,2.9849,2.882,2.8342,2.5068,1.9258,0.0,0.0,0.0,0.0,2.6712,2.8828,3.2182,3.4039,3.4219,3.5357,3.5265,3.3948,3.3275,3.2766,3.2375,3.1035,2.9309,2.7146,2.4446,0.0,0.0,0.0,0.0,0.0,0.0,0.0,0.0,0.0,0.0,0.0,0.0,0.0,0.0,0.0,0.0,0.0,0.0,0.0,1.6123,1.8428,1.9307,0.0,0.0,0.0,0.0,0.0,0.0,0.0,0.0,0.0,2.5781,2.7022,2.8394,0.0,0.0,3.0408,3.0576,3.1366,3.2054,3.2412,3.2428,0.0,3.2401,3.1812,3.1389,3.143,3.2244,3.2772,3.2433,3.2701,3.2849,3.2419,3.2696,3.2785,3.2173,3.0714,2.949,2.906,2.9628,3.0114,2.9761,3.0119,3.0703,3.0076,2.8401,2.725,2.6996,2.7355,2.7475,2.8457,2.9951,3.0006,2.9534,2.8677,2.8594,2.7293,2.5213,2.4747,0.0,0.0,0.0,2.8222,3.0522,3.0146,3.0552,3.1659,3.1958,3.1884,3.1598,3.2317,3.2482,3.2078,3.2228,2.9654,2.4552,0.0,2.4298,2.4492,2.6901,2.8996,3.0776,3.3469,3.4996,3.5312,3.6073,3.6121,3.5392,3.4988,3.442,3.3638,3.3245,3.2016,2.9748,2.7494,2.5179,0.0,0.0,0.0,0.0,0.0,0.0,0.0,0.0,0.0,0.0,0.0,1.1956,1.0457,0.0,0.0,0.0,1.8489,1.9216,1.9851,2.1277,0.0,0.0,0.0,0.0,0.0,0.0,0.0,2.2697,2.6168,2.8981,2.9935,3.0512,3.1124,3.1834,3.2186,3.246,3.2658,0.0,3.4334,3.4713,3.479,3.4836,3.4942,3.4515,3.421,3.4545,3.4957,3.5278,3.5324,3.5538,3.5706,3.566,3.526,3.4905,3.4905,3.3858,3.2798,3.2182,3.2644,3.3072,3.2702,3.2964,3.338,3.4059,3.4444,3.0821,3.0298,3.1749,3.1165,3.1988,3.3665,3.3833,3.3246,3.216,3.282,3.1766,2.9438,2.9301,0.0,3.1104,3.0966,3.1898,3.3724,3.3679,3.3679,3.3769,3.4384,3.4638,3.4547,3.4683,3.4713,3.4607,3.4068,3.317,3.1899,3.0731,2.9714,2.9026,3.0178,3.1495,3.2826,3.4728,3.6046,3.6768,3.6738,3.676,3.6878,3.6836,3.6284,3.523,3.5109,3.4257,3.2481,2.9892,2.7642,2.5814,0.0,0.0,0.0,0.0,0.0,0.0,0.0,0.0,0.0,0.0,0.0,0.0,0.0,0.0,2.1942,2.4155,0.0,2.6047,2.4978,0.0,0.0,0.0,2.3673,2.4554,2.6344,2.7542,2.7564,0.0,0.0,3.3116,3.3846,3.4562,3.5431,3.5385,3.5446,3.5914,3.6116,3.6302,3.6114,3.6158,3.6204,3.6283,3.676,3.7347,3.795,3.8508,3.829,3.8262,3.7892,3.7584,3.7492,3.6553,3.5799,3.5768,3.5737,3.5568,3.4936,3.472,3.4643,3.4505,3.4566,3.4674,3.6149,3.6626,3.5699,3.509,3.4767,3.4618,3.4829,3.525,3.5235,3.4991,3.4595,3.4297,3.3502,3.2495,3.2931,3.3321,3.3621,3.4083,3.4846,3.5714,3.5265,3.5295,3.5789,3.5971,3.5744,3.5355,3.6237,3.6477,3.6043,3.6327,3.6073,3.534,3.4996,3.3754,3.1719,3.2886,3.4266,3.5686,3.6676,3.7813,3.9098,3.8663,3.8425,3.8459,3.7958,3.7357,3.6697,3.6178,3.5554,3.4708,3.2588,3.0891,2.9827,2.5223,0.0,0.0,0.0,0.0,0.0,0.0,0.0,0.0,0.0,1.7574,1.482,0.0,2.1466,0.0,2.6062,2.788,2.7063,2.7559,0.0,0.0,2.7159,2.7546,2.9235,3.0407,3.1213,3.1607,3.369,3.5171,3.5493,3.6089,3.7007,3.824,3.6928,3.5854,3.6005,3.6636,3.7053,3.7082,3.7544,3.7885,3.7901,3.8056,3.8288,3.8477,3.8523,3.8508,3.8523,3.84,3.8262,3.8262,3.8046,3.78,3.7754,3.78,3.7723,3.7523,3.6738,3.5845,3.5398,3.5675,3.5999,3.6919,3.7484,3.7872,3.7937,3.7734,3.6863,3.6493,3.6508,3.6559,3.6526,3.6442,3.615,3.5806,3.549,3.5786,3.5919,3.5949,3.6226,3.6552,3.6896,3.6821,3.6836,3.6911,3.7195,3.7135,3.6821,3.7509,3.7838,3.7808,3.8138,3.8123,3.7793,3.7793,3.7045,3.5639,3.516,3.5194,3.5711,3.7041,3.8439,3.9935,3.9616,3.9043,3.8147,3.8345,3.774,3.6284,3.6437,3.5873,3.4467,3.329,3.2053,3.0689,2.7194,2.5054,0.0,0.0,0.0,0.0,0.0,0.0,0.0,0.0,0.0,0.0,0.0,2.4711,2.4787,2.8305,3.0164,2.9088,2.9872,3.0697,3.1231,3.1308,3.19,3.3364,3.4173,3.471,3.5033,3.6366,3.7379,3.7688,3.8023,3.8685,3.9797,3.8818,3.8014,3.8045,3.8448,3.8729,3.8744,3.9103,3.9416,3.9382,3.9382,3.9367,3.9416,3.94,3.9382,3.9382,3.9367,3.9416,3.94,3.917,3.8921,3.8954,3.8708,3.8523,3.8415,3.7923,3.72,3.6538,3.6676,3.6892,3.739,3.7914,3.8634,3.9451,4.015,3.8446,3.7728,3.7777,3.7963,3.7997,3.7997,3.8118,3.8186,3.8152,3.805,3.7997,3.7978,3.7811,3.7728,3.7773,3.8327,3.8282,3.7758,3.8312,3.8597,3.8582,3.8597,3.8897,3.9481,3.9481,3.9451,3.9361,3.9346,3.9272,3.9017,3.6918,3.5614,3.5209,3.689,3.8383,3.9707,3.9662,3.8766,3.716,3.8208,3.7782,3.5549,3.643,3.5944,3.3666,3.3332,3.2452,3.0749,2.9111,2.7705,0.0,2.498,0.0,0.0,0.0,0.0,0.0,0.0,0.0,0.0,2.7357,2.8438,2.8061,3.0884,3.2463,3.1982,3.2442,3.3569,3.5447,3.5707,3.6029,3.6815,3.74,3.78,3.7877,3.84,3.9,3.9474,3.9613,3.9844,4.0336,4.0366,4.0194,4.0413,4.0351,4.0336,4.0489,4.0489,4.0336,4.0366,4.0428,4.0413,4.0459,4.0397,4.0489,4.0413,4.0428,4.0459,4.0413,3.9982,3.9628,3.9647,3.9185,3.8782,3.8862,3.8816,3.8508,3.78,3.76,3.743,3.9429,3.9566,3.9707,3.9889,4.0016,3.9652,3.9601,3.9741,3.9791,3.9721,3.9546,3.9581,3.9601,3.9581,3.9596,3.9561,3.9546,3.9546,3.9511,3.9511,3.9647,3.9632,3.9526,3.9632,3.9693,3.9708,3.9693,3.9753,3.9889,3.9889,3.9602,3.9107,3.9092,3.8546,3.7498,0.0,0.0,0.0,3.8224,3.8083,3.836,3.7858,3.7387,3.7038,3.7767,0.0,3.7463,3.7144,3.678,3.6263,3.523,0.0,0.0,0.0,0.0,0.0,0.0,0.0,0.0,0.0,0.0,0.0,2.855,2.8748,2.7,2.955,3.1771,3.2859,3.4038,3.5171,3.6168,3.6399,3.686,3.7751,3.7906,3.8167,3.8862,3.9013,3.9339,3.9859,4.0028,4.0151,4.0243,4.0305,4.0351,4.0505,4.0505,4.0489,4.0536,4.0536,4.0505,4.0489,4.0489,4.0489,4.0489,4.0489,4.0489,4.0489,4.0489,4.0489,4.0489,4.0489,4.0489,4.0489,4.0382,4.029,4.029,4.0197,4.0028,4.0105,4.009,3.9751,3.8585,3.8323,3.8277,3.9565,3.9508,3.9615,3.9879,0.0,4.0277,4.0296,4.0351,4.0207,4.0117,4.0011,4.0011,4.0011,4.0011,4.0011,4.0011,4.0011,4.0011,4.0011,4.0011,4.0011,4.0011,4.0011,4.0011,4.0011,4.0011,4.0011,4.0011,4.0011,4.0011,3.9829,3.948,3.9514,3.9146,3.8527,3.8796,3.9146,3.9514,3.8948,3.8849,3.9191,3.8886,3.8363,3.7702,3.8296,0.0,0.0,0.0,0.0,0.0,0.0,0.0,0.0,3.2949,3.2325,3.3049,3.1177,3.0369,3.1063,3.0834,3.109,3.2182,3.35,3.3533,3.1748,3.3565,3.5201,3.6245,3.669,3.7304,3.8369,3.8492,3.8769,3.9367,3.9508,3.9628,3.9955,3.9982,4.012,4.0413,4.0489,4.0489,4.0489,4.0489,4.0659,4.0986,4.1028,4.1151,4.1381,4.092,4.0505,4.0489,4.0489,4.0489,4.0489,4.0489,4.0505,4.0489,4.0489,4.0489,4.0489,4.0489,4.0489,4.0489,4.0489,4.0489,4.0489,4.0489,4.0489,4.0489,4.0489,4.032,3.9567,3.9213,3.8893,3.9412,3.9305,3.9412,3.9884,4.0489,4.0489,4.0489,4.0489,4.0191,0.0,0.0,4.0101,4.0117,4.0101,4.0101,4.0101,4.0101,4.0081,4.0066,4.0101,4.0117,4.0086,4.0117,4.0066,4.0101,4.0117,4.0101,4.0101,4.0101,4.0101,4.0066,4.0101,4.0066,4.0117,4.0101,4.0101,3.9897,3.952,3.9241,3.9378,4.0036,3.9944,3.9293,3.8106,3.8715,3.8482,3.7236,3.7175,3.6673,3.5595,3.5018,3.4714,3.4729,3.4257,3.444,3.5461,3.4592,3.4561,3.5753,3.537,3.56,3.6953,3.7538,3.7583,3.6919,3.7459,3.8138,3.8816,3.8862,3.9059,3.9613,3.9816,4.0074,4.0628,4.0797,4.0858,4.0858,4.0858,4.0905,4.0858,4.0935,4.0874,4.092,4.092,4.1093,4.1632,4.1786,4.1955,4.2325,4.1627,4.0997,4.0997,4.1043,4.0935,4.0889,4.0935,4.0858,4.0981,4.0935,4.0812,4.072,4.0689,4.0628,4.0505,4.0489,4.0489,4.0489,4.0489,4.0489,4.0489,4.0489,4.0489,4.0443,4.0059,3.9554,4.0316,4.0301,4.0335,4.042,4.0489,4.0489,4.0489,4.0489,4.047,4.0436,4.042,4.042,4.042,4.042,4.042,4.0436,4.0436,4.0436,4.0436,4.0436,4.0436,4.042,4.0436,4.0436,4.0436,4.0436,4.0436,4.0436,4.0436,4.0436,4.042,4.0436,4.0436,4.0436,4.0436,4.0436,4.0374,4.0286,3.8944,3.8211,3.8336,3.7788,3.7408,3.7223,3.7861,3.8105,3.7874,3.7858,3.7767,3.7585,3.7494,3.7514,3.7678,3.7556,3.7698,3.7981,3.7827,3.7827,3.8029,3.7967,3.8244,3.8967,3.9152,3.9152,3.9075,3.9136,3.9508,4.0136,4.0197,4.0243,4.0382,4.094,4.1309,4.1478,4.1955,4.2309,4.2232,4.2248,4.2217,4.2217,4.2309,4.2263,4.2186,4.2217,4.2232,4.2417,4.254,4.254,4.2648,4.2448,4.2325,4.2309,4.2309,4.2325,4.2171,4.2294,4.2202,4.2309,4.2232,4.1986,4.1524,4.1463,4.1263,4.0643,4.0659,4.0612,4.0597,4.0489,4.0551,4.0566,4.0566,4.0489,4.0489,4.0351,4.0259,4.0489,4.0489,4.0489,4.0489,4.0489,4.0489,4.0489,4.0489,4.0489,4.0489,4.0489,4.0489,4.0489,4.0489,4.0489,4.0489,4.0489,4.0489,4.0489,4.0489,4.0489,4.0489,4.0489,4.0489,4.0489,4.0489,4.0489,4.0489,4.0489,4.0489,4.0489,4.0489,4.0489,4.0489,4.0489,4.0489,4.0489,4.0474,3.9753,3.9348,3.9348,3.9072,3.8889,3.8904,3.921,3.9363,3.9363,3.9011,3.8812,3.8812,3.8476,3.8463,3.8898,3.8962,3.9131,3.9521,3.9262,3.9216,3.9551,3.9567,3.9874,4.057,4.0647,4.0576,4.0455,4.0587,4.0786,4.1093,4.1417,4.1648,4.1627,4.1955,4.2155,4.2155,4.2448,4.2602,4.2602,4.2602,4.2602,4.2602,4.2602,4.2602,4.2602,4.2602,4.2786,4.3063,4.3387,4.3648,4.3648,4.3648,4.3387,4.2771,4.2602,4.2602,4.2617,4.2602,4.2602,4.2602,4.2602,4.2479,4.2186,4.2155,4.2001,4.174,4.1648,4.1627,4.1632,4.1304,4.1155,4.1028,4.072,4.0551,4.0489,4.0489,4.0489,4.0489,4.0489,4.0489,4.0489,4.0489,4.0489,4.0489,4.0489,4.0489,4.0489,4.0489,4.0489,4.0489,4.0489,4.0489,4.0489,4.0489,4.0489,4.0489,4.0489,4.0489,4.0489,4.0489,4.0489,4.0489,4.0489,4.0489,4.0489,4.0489,4.0489,4.0489,4.0489,4.0489,4.0489,4.0489,4.0489,4.0489,4.0489,4.0489,4.0489,4.0489,4.0489,4.0489,4.0489,4.0489,4.0489,4.0474,3.9982,3.9705,3.969,3.9247,3.9167,3.9674,3.9705,3.9951,4.0366,3.9997,4.0013,4.0659,4.0909,4.1197,4.1771,4.1623,4.1502,4.1527,4.1672,4.1652,4.1591,4.1891,4.227,4.2519,4.274,4.2833,4.2833,4.2971,4.3125,4.3063,4.3048,4.3048,4.3048,4.3048,4.3079,4.3048,4.3048,4.3279,4.3824,4.4302,4.4579,4.461,4.461,4.4095,4.3433,4.3063,4.3125,4.3048,4.3094,4.3125,4.3048,4.3094,4.3048,4.2925,4.2833,4.2709,4.2586,4.254,4.2479,4.2525,4.2202,4.1878,4.1786,4.1463,4.1047,4.0828,4.0612,4.0505,4.0489,4.0489,4.0489,4.0489,4.0489,4.0489,4.0489,4.0489,4.0489,4.0489,4.0489,4.0489,4.0489,4.0489,4.0489,4.0489,4.0489,4.0489,4.0489,4.0489,4.0489,4.0489,4.0489,4.0489,4.0489,4.0489,4.052,4.0566,4.0566,4.0566,4.052,4.0489,4.0489,4.0551,4.0536,4.0536,4.052,4.0489,4.0489,4.0489,4.0489,4.0489,4.0489,4.0489,4.0489,4.0489,4.0489,4.0428,4.0397,4.0397,4.032,4.0336,4.0397,4.0413,4.0443,4.052,4.0459,4.0755,4.1447,4.2063,4.2402,4.2421,4.1758,4.164,4.2319,4.2319,4.1963,4.1505,4.1355,4.1918,4.2523,4.3156,4.3479,4.3562,4.3941,4.4425,4.4348,4.444,4.4387,4.444,4.4233,4.4387,4.4233,4.4233,4.431,4.4379,4.4502,4.461,4.461,4.4594,4.4579,4.4356,4.4356,4.431,4.4302,4.4409,4.4255,4.4264,4.4341,4.4086,4.3701,4.3485,4.3377,4.3063,4.2771,4.2802,4.2756,4.254,4.254,4.2494,4.2325,4.2171,4.1617,4.1093,4.072,4.0489,4.0489,4.0489,4.0489,4.0489,4.0489,4.0489,4.0489,4.0489,4.0489,4.0489,4.0489,4.0489,4.0489,4.0489,4.0489,4.0489,4.0489,4.0489,4.0489,4.0489,4.0489,4.0489,4.0489,4.0489,4.0551,4.0955,4.117,4.1232,4.1555,4.1755,4.1771,4.172,4.172,4.172,4.1755,4.172,4.172,4.172,4.1755,4.1663,4.0905,4.0489,4.0489,4.0489,4.0489,4.0489,4.0489,4.0489,4.052,4.0909,4.1155,4.117,4.1504,4.1755,4.172,4.172,4.1894,4.2186,4.2463,4.2771,4.314,4.2829,4.2554,4.2267,4.2628,4.255,4.1932,4.2617,4.3373,4.3719,4.4002,4.4172,4.424,4.4456,4.461,4.461,4.461,4.461,4.461,4.461,4.461,4.461,4.461,4.461,4.461,4.461,4.461,4.461,4.461,4.461,4.461,4.461,4.461,4.461,4.461,4.461,4.461,4.461,4.4425,4.4286,4.4194,4.4086,4.3756,4.3679,4.3679,4.3833,4.3387,4.3171,4.3125,4.2786,4.2509,4.2232,4.1971,4.1627,4.0489,4.0489,4.0489,4.0489,4.0489,4.0489,4.0489,4.0489,4.0489,4.0489,4.0505,4.0689,4.0832,4.0766,4.0597,4.0489,4.0489,4.0489,4.0612,4.0766,4.0782,4.0889,4.1058,4.1058,4.1058,4.1135,4.1617,4.1878,4.1925,4.234,4.2602,4.2602,4.2602,4.2602,4.2602,4.2602,4.2602,4.2602,4.2602,4.2602,4.2463,4.1617,4.1074,4.1074,4.1074,4.1074,4.1058,4.1074,4.1058,4.1124,4.1601,4.1878,4.1894,4.234,4.2602,4.2633,4.2786,4.2863,4.2863,4.3048,4.334,4.3771,4.3683,4.3296,4.2927,4.3086,4.3126,4.2961,4.3873,4.4526,4.461,4.461,4.461,4.461,4.461,4.461,4.461,4.461,4.461,4.461,4.461,4.461,4.461,4.461,4.461,4.461,4.461,4.461,4.461,4.461,4.461,4.461,4.461,4.461,4.461,4.461,4.461,4.461,4.461,4.461,4.461,4.461,4.461,4.4202,4.4502,4.4564,4.4348,4.404,4.384,4.3747,4.3371,4.2961,4.3004,4.2828,4.2489,4.0489,4.0489,4.0489,4.0489,4.0489,4.0489,4.052,4.0566,4.0536,4.052,4.0689,4.1263,4.1555,4.1494,4.094,4.0536,4.0536,4.0612,4.0986,4.1509,4.154,4.1894,4.2494,4.2525,4.2479,4.234,4.2479,4.2586,4.2602,4.2648,4.2602,4.2663,4.2725,4.2663,4.2709,4.274,4.2648,4.274,4.2756,4.2679,4.2663,4.2571,4.2509,4.2509,4.2494,4.2417,4.2448,4.2494,4.2479,4.2494,4.2525,4.2571,4.2571,4.2633,4.2694,4.274,4.3217,4.3562,4.3624,4.4086,4.4456,4.4441,4.3844,4.3648,4.4028,4.3754,4.3744,4.4358,4.4511,4.4687,4.4671,4.4603,4.4656,4.4671,4.4641,4.461,4.461,4.461,4.461,4.461,4.461,4.461,4.461,4.461,4.461,4.461,4.461,4.461,4.461,4.461,4.461,4.461,4.461,4.461,4.461,4.461,4.461,4.461,4.461,4.461,4.461,4.461,4.461,4.461,4.461,4.461,4.461,4.4564,4.4471,4.4286,4.3947,4.3639,4.3741,4.3273,4.3015,4.0489,4.0489,4.0489,4.0489,4.0489,4.0489,4.0766,4.1166,4.1217,4.1463,4.1848,4.214,4.2248,4.2232,4.1986,4.1863,4.1812,4.1863,4.2001,4.2248,4.2248,4.2371,4.2571,4.2602,4.2602,4.2663,4.3033,4.3448,4.3848,4.3864,4.3864,4.3864,4.3864,4.3864,4.3879,4.3879,4.3864,4.3879,4.3864,4.3864,4.3833,4.3864,4.3901,4.3833,4.3033,4.2602,4.2602,4.2602,4.2602,4.2602,4.3002,4.3254,4.3264,4.3648,4.3864,4.3879,4.4132,4.4255,4.4286,4.4471,4.461,4.4572,4.4343,4.3996,4.3949,4.433,4.4682,4.4549,4.4971,4.5234,4.518,4.4849,4.4779,4.5095,4.4833,4.461,4.461,4.461,4.461,4.461,4.461,4.461,4.461,4.461,4.461,4.461,4.461,4.4641,4.4625,4.461,4.4641,4.4625,4.461,4.461,4.461,4.461,4.461,4.461,4.461,4.461,4.461,4.461,4.461,4.461,4.461,4.461,4.461,4.461,4.461,4.4548,4.4209,4.4238,4.4496,4.409,4.3915,4.0489,4.0536,4.0735,4.0843,4.0909,4.1109,4.1443,4.1909,4.1925,4.2186,4.2586,4.2817,4.291,4.2971,4.314,4.3248,4.3171,4.2833,4.2725,4.291,4.291,4.3033,4.3217,4.3233,4.3248,4.331,4.3716,4.4194,4.4564,4.461,4.461,4.4594,4.461,4.461,4.461,4.461,4.461,4.461,4.461,4.4594,4.461,4.461,4.461,4.4464,4.371,4.3248,4.3233,4.3248,4.3233,4.331,4.3701,4.3932,4.3994,4.4363,4.461,4.461,4.4594,4.461,4.461,4.461,4.461,4.4641,4.4787,4.4626,4.4158,4.5,4.5214,4.4978,4.4937,4.5349,4.5403,4.4987,4.4787,4.5141,4.4849,4.461,4.461,4.461,4.461,4.461,4.461,4.461,4.4641,4.4825,4.4933,4.4933,4.4949,4.4957,4.5172,4.5056,4.5056,4.5157,4.508,4.5003,4.4895,4.4818,4.4687,4.4656,4.461,4.461,4.461,4.461,4.461,4.461,4.461,4.461,4.461,4.461,4.461,4.461,4.4533,4.4516,4.4759,4.4955,4.4798,4.0505,4.0643,4.1309,4.1555,4.1678,4.2186,4.2556,4.2602,4.2617,4.2694,4.2925,4.3362,4.3608,4.3732,4.411,4.4502,4.4202,4.3294,4.3094,4.3593,4.3608,4.3932,4.4387,4.4394,4.4356,4.4372,4.4548,4.4579,4.4594,4.461,4.461,4.461,4.461,4.461,4.461,4.461,4.461,4.461,4.461,4.461,4.461,4.461,4.461,4.461,4.4449,4.444,4.4502,4.4464,4.4425,4.4433,4.4533,4.4594,4.4533,4.4594,4.461,4.461,4.461,4.461,4.4625,4.4656,4.4695,4.4772,4.5241,4.5441,4.5348,4.5503,4.5549,4.5418,4.5087,4.4964,4.5387,4.4972,4.4633,4.4656,4.4702,4.461,4.461,4.461,4.461,4.461,4.461,4.461,4.4733,4.501,4.5303,4.5311,4.5341,4.5526,4.5926,4.5695,4.5865,4.6172,4.5972,4.5603,4.5357,4.5095,4.4864,4.4718,4.4656,4.4625,4.4648,4.4685,4.4723,4.4723,4.4776,4.4776,4.4776,4.4776,4.4723,4.4739,4.4739,4.483,4.5055,4.5278,4.5484,4.0782,4.1263,4.1509,4.1878,4.2279,4.2525,4.2833,4.3264,4.3264,4.3525,4.3941,4.4209,4.4302,4.4317,4.4533,4.461,4.4564,4.4125,4.4079,4.4255,4.4286,4.4379,4.4564,4.461,4.461,4.461,4.461,4.461,4.461,4.461,4.461,4.461,4.461,4.461,4.461,4.461,4.461,4.461,4.461,4.461,4.461,4.461,4.461,4.461,4.461,4.461,4.461,4.461,4.461,4.461,4.461,4.461,4.461,4.461,4.461,4.461,4.461,4.461,4.4671,4.5018,4.528,4.5311,4.5495,4.5572,4.5588,4.5588,4.5588,4.5588,4.5411,4.5403,4.5418,4.4972,4.4787,4.5218,4.4902,4.461,4.461,4.461,4.461,4.461,4.461,4.461,4.4641,4.4918,4.5018,4.5064,4.5033,4.528,4.5757,4.5957,4.5865,4.6388,4.6234,4.6296,4.6111,4.5926,4.5734,4.5426,4.521,4.4956,4.4939,4.49,4.4922,4.4889,4.4942,4.4942,4.498,4.498,4.4927,4.4964,4.5017,4.5167,4.5389,4.563,4.5889,4.1186,4.1632,4.2125,4.2571,4.2987,4.3217,4.3556,4.3947,4.3978,4.4225,4.4548,4.461,4.461,4.461,4.461,4.461,4.461,4.461,4.461,4.461,4.461,4.461,4.461,4.461,4.461,4.461,4.461,4.461,4.461,4.461,4.461,4.461,4.461,4.461,4.461,4.461,4.461,4.461,4.461,4.461,4.461,4.461,4.461,4.461,4.461,4.461,4.461,4.461,4.461,4.461,4.461,4.461,4.461,4.461,4.461,4.4656,4.4818,4.4972,4.5018,4.5603,4.5818,4.568,4.5818,4.5818,4.568,4.5588,4.5588,4.5588,4.5326,4.5257,4.518,4.4902,4.4841,4.5157,4.4872,4.4625,4.461,4.461,4.461,4.461,4.461,4.461,4.461,4.4902,4.5064,4.5234,4.5341,4.5741,4.6311,4.6542,4.6788,4.6973,4.705,4.705,4.6957,4.6773,4.6597,4.6297,4.5958,4.565,4.5464,4.5394,4.5385,4.5142,4.5092,4.5092,4.5092,4.5129,4.5129,4.5167,4.5257,4.5331,4.5463,4.6017,4.634,4.1648,4.1863,4.3033,4.3562,4.3732,4.4255,4.4486,4.4526,4.4526,4.4526,4.461,4.461,4.461,4.461,4.461,4.461,4.461,4.461,4.461,4.461,4.461,4.461,4.461,4.461,4.461,4.461,4.461,4.461,4.461,4.461,4.461,4.461,4.461,4.461,4.461,4.461,4.461,4.461,4.461,4.461,4.461,4.461,4.461,4.461,4.461,4.461,4.461,4.461,4.461,4.461,4.461,4.461,4.4625,4.4641,4.4733,4.481,4.528,4.5572,4.5772,4.6142,4.628,4.5865,4.608,4.6296,4.568,4.548,4.5403,4.5372,4.4995,4.4687,4.4687,4.4625,4.4603,4.4625,4.4641,4.461,4.461,4.461,4.4671,4.4718,4.4687,4.4718,4.4887,4.5341,4.5834,4.6249,4.6403,4.688,4.7558,4.7619,4.7896,4.7927,4.7819,4.7758,4.7635,4.7527,4.7398,4.7441,4.7079,4.6679,4.6291,4.6166,4.6142,4.5865,4.5481,4.5382,4.5356,4.5456,4.543,4.5368,4.5405,4.5368,4.576,4.641,4.6984,4.2171,4.3116,4.347,4.3886,4.4332,4.4564,4.461,4.461,4.461,4.461,4.461,4.461,4.461,4.461,4.461,4.461,4.461,4.461,4.461,4.461,4.461,4.461,4.461,4.461,4.461,4.461,4.461,4.461,4.461,4.461,4.461,4.461,4.461,4.461,4.461,4.461,4.461,4.461,4.461,4.461,4.461,4.461,4.461,4.461,4.461,4.461,4.461,4.461,4.461,4.461,4.461,4.461,4.4687,4.5033,4.528,4.5418,4.5911,4.6311,4.6342,4.648,4.648,4.6326,4.6034,4.5772,4.5603,4.5126,4.4933,4.4841,4.4671,4.461,4.461,4.461,4.461,4.461,4.461,4.461,4.461,4.4625,4.4756,4.5203,4.528,4.548,4.5849,4.6111,4.6372,4.6573,4.6742,4.6957,4.7773,4.8019,4.8004,4.8343,4.8358,4.8358,4.8312,4.8235,4.8286,4.8511,4.8323,4.7978,4.7551,4.7235,4.728,4.7268,4.6579,4.6322,4.6176,4.6103,4.5945,4.594,4.5923,4.6135,4.6545,4.7103,4.7754,4.2633,4.3624,4.3917,4.4255,4.4594,4.461,4.461,4.461,4.461,4.461,4.461,4.461,4.461,4.461,4.461,4.461,4.461,4.461,4.461,4.461,4.461,4.461,4.461,4.461,4.461,4.461,4.461,4.461,4.461,4.461,4.461,4.461,4.461,4.461,4.461,4.461,4.461,4.461,4.461,4.461,4.461,4.461,4.461,4.461,4.461,4.461,4.461,4.461,4.461,4.461,4.461,4.4695,4.5003,4.5357,4.5711,4.5972,4.6388,4.6588,4.6603,4.6588,4.6449,4.6188,4.5741,4.5464,4.5187,4.4772,4.461,4.4625,4.461,4.461,4.461,4.461,4.461,4.461,4.461,4.461,4.461,4.461,4.491,4.5357,4.5634,4.5849,4.6496,4.6603,4.6773,4.6942,4.708,4.7465,4.7958,4.7958,4.8065,4.8419,4.8646,4.8569,4.8594,4.8574,4.8651,4.8953,4.915,4.8912,4.8514,4.8094,4.7927,4.7824,4.7482,4.7198,4.704,4.7035,4.7225,4.7205,4.7039,4.7098,4.7533,4.7836,4.8485,4.3033,4.3762,4.4363,4.461,4.461,4.461,4.461,4.461,4.461,4.461,4.461,4.461,4.461,4.461,4.461,4.461,4.461,4.461,4.461,4.461,4.461,4.461,4.461,4.461,4.461,4.461,4.461,4.461,4.461,4.461,4.461,4.461,4.461,4.461,4.461,4.461,4.461,4.461,4.461,4.461,4.461,4.461,4.461,4.461,4.461,4.461,4.4603,4.4664,4.4779,4.4748,4.4679,4.5064,4.5588,4.5726,4.6003,4.6465,4.6665,4.6757,4.6573,4.648,4.6219,4.5741,4.5557,4.5287,4.4825,4.4625,4.461,4.461,4.461,4.461,4.461,4.461,4.461,4.461,4.461,4.461,4.461,4.461,4.4902,4.5557,4.5711,4.6034,4.6542,4.6834,4.705,4.7635,4.7711,4.7927,4.8276,4.8409,4.8486,4.8625,4.8744,4.8728,4.8811,4.8852,4.9041,4.9259,4.9541,4.9481,4.904,4.8662,4.8376,4.8162,4.813,4.8051,4.7963,4.8079,4.8345,4.8391,4.8167,4.8343,4.8596,4.8772,4.9246,4.3294,4.4409,4.451,4.461,4.461,4.461,4.461,4.461,4.461,4.461,4.461,4.461,4.461,4.461,4.461,4.461,4.461,4.461,4.461,4.461,4.461,4.461,4.461,4.461,4.461,4.461,4.461,4.461,4.461,4.461,4.461,4.461,4.461,4.461,4.461,4.461,4.461,4.461,4.461,4.461,4.461,4.461,4.461,4.461,4.4603,4.4641,4.4748,4.5095,4.5357,4.5411,4.5434,4.5757,4.6326,4.6788,4.688,4.6773,4.705,4.708,4.6619,4.608,4.5757,4.5526,4.5126,4.4741,4.4671,4.461,4.461,4.461,4.461,4.461,4.461,4.461,4.461,4.461,4.461,4.461,4.461,4.461,4.508,4.5926,4.6342,4.6803,4.7912,4.8004,4.8158,4.8373,4.8404,4.845,4.8625,4.8785,4.8841,4.8883,4.8949,4.8975,4.9031,4.9128,4.9291,4.9477,4.9733,4.9876,4.9474,4.9324,4.9055,4.8983,4.8968,4.8857,4.8683,4.8978,4.9245,4.9262,4.9431,4.9826,5.0097,5.0065,5.0014,4.286,4.411,4.4486,4.461,4.461,4.461,4.461,4.461,4.461,4.461,4.461,4.461,4.461,4.461,4.461,4.461,4.461,4.461,4.461,4.461,4.461,4.461,4.461,4.461,4.461,4.461,4.461,4.461,4.461,4.461,4.461,4.461,4.461,4.461,4.461,4.461,4.461,4.461,4.461,4.461,4.461,4.461,4.461,4.4718,4.4864,4.5087,4.5164,4.5711,4.6188,4.6449,4.6526,4.6665,4.6911,4.7111,4.705,4.7157,4.665,4.6573,4.6034,4.5526,4.5126,4.5126,4.4795,4.4687,4.461,4.461,4.461,4.461,4.461,4.461,4.461,4.461,4.461,4.461,4.461,4.461,4.461,4.4625,4.4941,4.5911,4.6342,4.7004,4.7742,4.825,4.8573,4.8466,4.8646,4.8708,4.8821,4.898,4.9072,4.9153,4.9194,4.9235,4.9275,4.9372,4.9533,4.9653,4.9812,4.9876,4.9734,4.975,4.9821,4.9647,4.9442,4.9505,4.9439,4.9779,5.017,5.0391,5.0725,5.1324,5.1568,5.1298,5.1234,4.2183,4.3506,4.4257,4.461,4.461,4.461,4.461,4.461,4.461,4.461,4.461,4.461,4.461,4.461,4.461,4.461,4.461,4.461,4.461,4.461,4.461,4.461,4.461,4.461,4.461,4.461,4.461,4.461,4.461,4.461,4.461,4.461,4.461,4.461,4.461,4.461,4.461,4.461,4.461,4.461,4.461,4.461,4.4656,4.491,4.5218,4.5603,4.5818,4.6388,4.6988,4.7558,4.7619,4.7619,4.7465,4.7157,4.6757,4.7265,4.6234,4.5726,4.5434,4.4972,4.4671,4.461,4.461,4.461,4.461,4.461,4.461,4.461,4.461,4.461,4.461,4.461,4.461,4.461,4.461,4.461,4.461,4.461,4.4941,4.5511,4.6049,4.665,4.7327,4.7881,4.825,4.8599,4.8764,4.8975,4.9047,4.9184,4.9291,4.9396,4.9477,4.9517,4.9557,4.9557,4.9733,4.9773,4.9892,4.9876,4.9916,4.9916,4.9916,4.9916,4.9821,4.9821,5.0165,5.074,5.1139,5.1468,5.2102,5.2772,5.2794,5.2515,5.2394,4.1866,4.2719,4.4052,4.461,4.461,4.461,4.461,4.461,4.461,4.461,4.461,4.461,4.461,4.461,4.461,4.461,4.461,4.461,4.461,4.461,4.461,4.461,4.461,4.461,4.461,4.461,4.461,4.461,4.461,4.461,4.461,4.461,4.461,4.461,4.461,4.461,4.461,4.461,4.461,4.461,4.461,4.4718,4.4995,4.5357,4.5695,4.6003,4.6496,4.705,4.7496,4.7588,4.7604,4.7588,4.7434,4.7311,4.685,4.6188,4.5741,4.5334,4.4933,4.4733,4.461,4.461,4.461,4.461,4.461,4.461,4.461,4.461,4.461,4.461,4.461,4.461,4.461,4.461,4.461,4.461,4.461,4.4656,4.4825,4.5341,4.5741,4.6188,4.6927,4.7573,4.7973,4.8301,4.848,4.8804,4.9047,4.9291,4.9517,4.9637,4.9717,4.9757,4.9852,4.9797,4.9836,4.9836,4.9876,4.9876,4.9916,4.9916,4.9916,5.0097,5.0018,4.9884,5.0461,5.1336,5.177,5.1848,5.2993,5.4187,5.3804,5.3356,5.3235,4.1198,4.2046,4.3823,4.461,4.461,4.461,4.461,4.461,4.461,4.461,4.461,4.461,4.461,4.461,4.461,4.461,4.461,4.461,4.461,4.461,4.461,4.461,4.461,4.461,4.461,4.461,4.461,4.461,4.461,4.461,4.461,4.461,4.461,4.461,4.461,4.461,4.461,4.461,4.461,4.461,4.4671,4.4918,4.5449,4.5972,4.6449,4.6803,4.7127,4.7773,4.7927,4.7696,4.7619,4.7219,4.6819,4.6511,4.6296,4.5664,4.528,4.501,4.4671,4.461,4.461,4.461,4.461,4.461,4.461,4.461,4.461,4.461,4.461,4.461,4.461,4.461,4.461,4.461,4.461,4.461,4.461,4.461,4.4818,4.5218,4.5865,4.6357,4.6726,4.7281,4.7696,4.7988,4.8252,4.8627,4.9081,4.9412,4.9717,4.9757,4.9836,4.9836,4.9876,4.9876,4.9916,4.9916,5.0018,5.0018,5.0175,5.0276,5.0432,5.0624,5.0409,5.0198,5.0454,5.1166,5.1687,5.2368,5.3414,5.423,5.4342,5.4236,5.3994,4.0412,4.1353,4.3457,4.4328,4.4366,4.4534,4.4328,4.4174,4.4442,4.4442,4.4366,4.4496,4.461,4.461,4.461,4.461,4.461,4.461,4.461,4.461,4.461,4.461,4.461,4.461,4.461,4.461,4.461,4.461,4.461,4.461,4.461,4.461,4.461,4.461,4.461,4.461,4.461,4.461,4.461,4.4641,4.4933,4.5434,4.6111,4.6726,4.7327,4.7558,4.7588,4.7942,4.7881,4.7465,4.7111,4.6696,4.5788,4.5464,4.5426,4.5349,4.4887,4.4671,4.461,4.461,4.461,4.461,4.461,4.461,4.461,4.461,4.461,4.461,4.461,4.461,4.461,4.461,4.461,4.461,4.461,4.461,4.461,4.4641,4.4741,4.528,4.6018,4.6496,4.6788,4.6973,4.7388,4.8208,4.8488,4.8751,4.92,4.9582,4.9836,4.9836,4.9876,4.9876,4.9916,4.9916,4.9916,4.9916,5.0214,5.0432,5.0608,5.0821,5.1048,5.1294,5.1086,5.0957,5.0995,5.1278,5.2172,5.3027,5.3864,5.4269,5.4379,5.4443,5.4305,3.949,4.0515,4.2574,4.3442,4.356,4.4174,4.3693,4.2644,4.3927,4.4135,4.3615,4.4251,4.461,4.461,4.461,4.461,4.461,4.461,4.461,4.461,4.461,4.461,4.461,4.461,4.461,4.461,4.461,4.461,4.461,4.461,4.461,4.461,4.461,4.461,4.461,4.461,4.461,4.4625,4.4656,4.4964,4.5526,4.6157,4.6803,4.7342,4.7558,4.7619,4.7588,4.7696,4.7373,4.6773,4.6157,4.5803,4.5495,4.5026,4.4795,4.4733,4.4656,4.461,4.461,4.461,4.461,4.461,4.461,4.461,4.461,4.461,4.461,4.461,4.461,4.461,4.461,4.461,4.461,4.461,4.461,4.461,4.461,4.4641,4.4741,4.5357,4.6111,4.6465,4.6757,4.692,4.7161,4.8026,4.8724,4.8956,4.9266,4.9678,4.9892,4.9916,4.9916,4.9916,5.0058,5.0018,5.0175,5.0097,5.0531,5.0951,5.1182,5.15,5.1885,5.2029,5.1849,5.1921,5.2172,5.2561,5.3078,5.3483,5.3979,5.4254,5.4463,5.4512,5.4512,3.9103,4.0051,4.1828,4.2563,4.2603,4.2991,4.2725,4.2386,4.3284,4.3654,4.3521,4.4212,4.461,4.4534,4.461,4.461,4.461,4.461,4.461,4.461,4.461,4.461,4.461,4.461,4.461,4.461,4.461,4.461,4.461,4.461,4.461,4.461,4.461,4.461,4.4702,4.4625,4.4856,4.518,4.558,4.6065,4.6619,4.705,4.7481,4.8096,4.7788,4.7619,4.7481,4.7173,4.6711,4.6126,4.5664,4.5387,4.508,4.4779,4.461,4.461,4.461,4.461,4.461,4.461,4.461,4.461,4.461,4.461,4.461,4.461,4.461,4.461,4.461,4.461,4.461,4.461,4.461,4.461,4.461,4.461,4.461,4.4603,4.4803,4.5495,4.6188,4.6689,4.7105,4.7321,4.7663,4.836,4.8827,4.8934,4.929,4.971,4.9836,4.9916,4.9916,4.9916,5.0136,5.0292,5.0663,5.08,5.1352,5.172,5.1902,5.2208,5.263,5.3061,5.3213,5.3281,5.3382,5.3348,5.3399,5.3682,5.3979,5.4254,5.4512,5.4512,5.4512,3.8853,3.9718,4.1054,4.1645,4.1686,4.1908,4.1742,4.1436,4.275,4.3205,4.3245,4.3795,4.4251,4.4251,4.4251,4.4289,4.461,4.461,4.461,4.461,4.461,4.461,4.461,4.461,4.461,4.461,4.461,4.461,4.4671,4.4764,4.4856,4.4641,4.4887,4.4902,4.4933,4.5164,4.5464,4.5849,4.6465,4.7004,4.745,4.7727,4.7989,4.8081,4.7896,4.7465,4.708,4.6665,4.6034,4.5464,4.5295,4.5033,4.4748,4.4656,4.461,4.461,4.461,4.461,4.461,4.461,4.461,4.461,4.461,4.461,4.461,4.461,4.461,4.461,4.461,4.461,4.461,4.461,4.461,4.461,4.461,4.461,4.4641,4.4779,4.5157,4.5957,4.6689,4.733,4.7685,4.7885,4.8285,4.8829,4.9032,4.9014,4.937,4.9821,4.9916,4.9995,4.9979,5.0097,5.047,5.0739,5.1081,5.1549,5.2082,5.2455,5.2612,5.3043,5.355,5.3979,5.419,5.4158,5.3962,5.3798,5.3699,5.3979,5.4254,5.4367,5.4512,5.4512,5.4512,3.8735,3.9401,4.0346,4.0675,4.0774,4.1645,4.1029,4.0099,4.2249,4.2831,4.2508,4.2991,4.3521,4.3482,4.3732,4.4043,4.461,4.461,4.461,4.461,4.461,4.461,4.461,4.461,4.461,4.461,4.461,4.461,4.4726,4.5187,4.5018,4.4779,4.5311,4.548,4.5695,4.6018,4.6296,4.6665,4.7188,4.7527,4.7819,4.8019,4.8173,4.7758,4.7542,4.705,4.5849,4.5695,4.5434,4.4841,4.4825,4.4787,4.4641,4.461,4.461,4.461,4.461,4.461,4.461,4.461,4.461,4.461,4.461,4.461,4.461,4.461,4.461,4.461,4.461,4.461,4.461,4.461,4.461,4.461,4.461,4.461,4.4748,4.5056,4.5511,4.6388,4.7013,4.7534,4.8267,4.8463,4.8683,4.9197,4.9405,4.9417,4.9647,4.9995,5.0034,5.0058,5.0097,5.0354,5.0968,5.1364,5.1826,5.2312,5.2837,5.3128,5.3349,5.3815,5.4158,5.4271,5.4399,5.448,5.4512,5.4222,5.4158,5.4335,5.4463,5.4512,5.4512,5.4512,5.4512,3.9088,3.9349,3.9675,3.9793,3.9837,4.0185,4.0258,4.0374,4.1796,4.2684,4.2765,4.3165,4.3324,4.3403,4.3927,4.4251,4.4572,4.461,4.461,4.461,4.461,4.461,4.461,4.461,4.461,4.4625,4.4603,4.4902,4.5249,4.5588,4.5788,4.5849,4.6111,4.6142,4.6419,4.6834,4.7142,4.7373,4.7804,4.8204,4.8204,4.7958,4.7865,4.765,4.6588,4.6219,4.5642,4.5172,4.4902,4.4702,4.461,4.461,4.461,4.461,4.461,4.461,4.461,4.461,4.461,4.461,4.461,4.461,4.461,4.461,4.461,4.461,4.461,4.461,4.461,4.461,4.461,4.461,4.461,4.461,4.461,4.461,4.4764,4.5087,4.5603,4.6367,4.6894,4.7415,4.8211,4.8979,4.92,4.9477,4.9677,4.9852,4.9995,5.0253,5.037,5.0608,5.0669,5.1091,5.17,5.2134,5.2542,5.3043,5.355,5.3732,5.3881,5.4126,5.4399,5.448,5.4512,5.4512,5.4512,5.4512,5.4512,5.4512,5.4512,5.4512,5.4512,5.4512,5.4512,3.9305,3.9305,3.9305,3.9305,3.9305,3.9305,3.9631,4.0287,4.1169,4.1879,4.2493,4.2493,4.271,4.3031,4.3442,4.4212,4.4419,4.461,4.461,4.461,4.461,4.461,4.461,4.461,4.461,4.4656,4.4864,4.5187,4.5511,4.5957,4.6434,4.6819,4.7096,4.7127,4.705,4.7527,4.7896,4.8035,4.8065,4.8327,4.8204,4.7665,4.7111,4.6927,4.608,4.5572,4.5287,4.4902,4.4718,4.4625,4.461,4.461,4.461,4.461,4.461,4.461,4.461,4.461,4.461,4.461,4.461,4.461,4.461,4.461,4.461,4.461,4.461,4.461,4.461,4.461,4.461,4.461,4.461,4.461,4.461,4.4625,4.4726,4.5026,4.565,4.6284,4.6904,4.7712,4.8519,4.936,4.9487,4.9677,4.9757,4.9876,4.9995,5.037,5.0838,5.1161,5.1463,5.1957,5.2526,5.2786,5.3094,5.3616,5.4044,5.419,5.4367,5.4512,5.4512,5.4512,5.4512,5.4512,5.4512,5.4512,5.4512,5.4512,5.4512,5.4512,5.4512,5.4512,5.4512,3.9305,3.9305,3.9305,3.9305,3.9305,3.9305,3.938,3.9719,4.0403,4.0802,4.0972,4.0972,4.1449,4.2099,4.2644,4.3576,4.4404,4.461,4.461,4.461,4.461,4.461,4.461,4.461,4.4649,4.481,4.511,4.5464,4.5788,4.6711,4.7327,4.7681,4.7942,4.805,4.7681,4.8219,4.8543,4.8466,4.7927,4.7773,4.7496,4.6957,4.6403,4.6003,4.5618,4.5187,4.4849,4.4733,4.461,4.461,4.461,4.461,4.461,4.461,4.461,4.461,4.461,4.461,4.461,4.461,4.461,4.461,4.461,4.461,4.461,4.461,4.461,4.461,4.461,4.461,4.461,4.461,4.461,4.461,4.461,4.4625,4.4726,4.491,4.5526,4.6253,4.7293,4.8289,4.9085,4.9701,4.9765,4.9876,4.9876,4.9955,5.0034,5.0685,5.1294,5.1756,5.2172,5.2821,5.3281,5.3332,5.3633,5.4158,5.4431,5.448,5.4512,5.4512,5.4512,5.4512,5.4512,5.4512,5.4512,5.4512,5.4512,5.4512,5.4512,5.4512,5.4512,5.4512,5.4512,3.9305,3.9305,3.9305,3.9305,3.9305,3.9305,3.9587,4.0158,4.0475,4.0589,4.076,4.1212,4.1645,4.2237,4.3086,4.3849,4.4404,4.461,4.461,4.461,4.461,4.461,4.461,4.4687,4.4818,4.5187,4.5588,4.6234,4.6988,4.7527,4.7912,4.8266,4.8358,4.8466,4.8358,4.8512,4.845,4.8004,4.7665,4.7419,4.6927,4.6311,4.5842,4.5526,4.5187,4.4849,4.4625,4.461,4.461,4.461,4.461,4.461,4.461,4.461,4.461,4.461,4.461,4.461,4.461,4.461,4.461,4.461,4.461,4.461,4.461,4.461,4.461,4.461,4.461,4.461,4.461,4.461,4.461,4.461,4.461,4.461,4.4687,4.49,4.5308,4.6188,4.7169,4.8419,4.9387,4.9749,4.9876,4.9995,5.0034,4.9955,4.9955,5.1091,5.1941,5.2385,5.2889,5.3583,5.4011,5.3913,5.3913,5.4303,5.4463,5.4512,5.4512,5.4512,5.4512,5.4512,5.4512,5.4512,5.4512,5.4512,5.4512,5.4512,5.4512,5.4512,5.4512,5.4512,5.4512,3.9305,3.9305,3.9305,3.9305,3.9305,3.9305,3.9662,4.0114,4.0158,4.0158,4.0287,4.0802,4.1226,4.1755,4.26,4.3834,4.4043,4.412,4.4496,4.4534,4.461,4.461,4.4641,4.4856,4.5172,4.5618,4.6188,4.6834,4.7465,4.7819,4.8173,4.8435,4.8373,4.8189,4.8173,4.8127,4.8065,4.7573,4.7204,4.6603,4.6142,4.568,4.5234,4.5095,4.4864,4.461,4.461,4.461,4.461,4.461,4.461,4.461,4.461,4.461,4.461,4.461,4.461,4.461,4.461,4.461,4.461,4.461,4.461,4.461,4.461,4.461,4.461,4.461,4.461,4.461,4.461,4.461,4.461,4.461,4.4648,4.4648,4.4739,4.4951,4.5606,4.6419,4.7237,4.8505,4.9544,4.9702,4.9876,5.0034,5.0152,5.0113,5.0175,5.1299,5.2333,5.27,5.3315,5.3979,5.4335,5.4335,5.4367,5.448,5.4512,5.4512,5.4512,5.4512,5.4512,5.4512,5.4512,5.4512,5.4512,5.4512,5.4512,5.4512,5.4512,5.4512,5.4512,5.4512,5.4512,3.9305,3.9305,3.9305,3.9305,3.9305,3.9305,3.9349,3.9336,3.9336,3.9336,3.9394,3.9543,4.0128,4.0603,4.0845,4.185,4.3031,4.3245,4.3771,4.4251,4.4328,4.4473,4.4826,4.5218,4.5634,4.6142,4.6711,4.7327,4.7711,4.7958,4.8327,4.8327,4.7835,4.765,4.7573,4.7419,4.7342,4.6927,4.6434,4.5895,4.548,4.5033,4.4803,4.471,4.4656,4.461,4.461,4.461,4.461,4.461,4.461,4.461,4.461,4.461,4.461,4.461,4.461,4.461,4.461,4.461,4.461,4.461,4.461,4.461,4.461,4.461,4.461,4.461,4.461,4.461,4.461,4.461,4.461,4.4685,4.4776,4.4836,4.4911,4.5357,4.6091,4.6868,4.7619,4.8639,4.9615,4.9955,5.0253,5.0432,5.0663,5.0821,5.1032,5.172,5.2526,5.2735,5.3432,5.4254,5.4512,5.4512,5.4512,5.4512,5.4512,5.4512,5.4512,5.4512,5.4512,5.4512,5.4512,5.4512,5.4512,5.4512,5.4512,5.4512,5.4512,5.4512,5.4512,5.4512,5.4512,3.9305,3.9305,3.9305,3.9305,3.9305,3.9305,3.9305,3.9305,3.9305,3.9305,3.9349,3.9954,4.0244,4.0646,4.1296,4.1838,4.2181,4.2482,4.2966,4.3472,4.4018,4.451,4.5064,4.5603,4.6157,4.6819,4.7434,4.785,4.8081,4.8219,4.7896,4.7773,4.7204,4.6973,4.6726,4.6419,4.6296,4.6142,4.5695,4.5357,4.5033,4.4695,4.461,4.461,4.461,4.461,4.461,4.461,4.461,4.461,4.461,4.461,4.461,4.461,4.461,4.461,4.461,4.461,4.461,4.461,4.461,4.461,4.461,4.461,4.461,4.461,4.461,4.461,4.461,4.461,4.461,4.461,4.461,4.4685,4.4867,4.5027,4.5117,4.5606,4.6388,4.7469,4.8222,4.9062,4.9971,5.0448,5.0739,5.0951,5.1199,5.148,5.1793,5.2437,5.2768,5.2975,5.3533,5.4399,5.4512,5.4512,5.4512,5.4512,5.4512,5.4512,5.4512,5.4512,5.4512,5.4512,5.4512,5.4512,5.4512,5.4512,5.4512,5.4512,5.4512,5.4512,5.4512,5.4512,5.4512,3.9305,3.9305,3.9305,3.9305,3.9305,3.9305,3.9305,3.9305,3.9305,3.9305,3.9336,3.9779,4.0071,4.0128,4.056,4.1015,4.1463,4.199,4.2563,4.3329,4.3856,4.473,4.5464,4.6157,4.685,4.7481,4.785,4.8081,4.8065,4.7604,4.7204,4.7142,4.6542,4.628,4.6018,4.5618,4.5264,4.5234,4.5149,4.4949,4.4779,4.461,4.461,4.461,4.461,4.461,4.461,4.461,4.461,4.461,4.461,4.461,4.461,4.461,4.461,4.461,4.461,4.461,4.461,4.461,4.461,4.461,4.461,4.461,4.461,4.461,4.461,4.461,4.461,4.461,4.461,4.461,4.4648,4.4723,4.4951,4.5217,4.5528,4.5855,4.6847,4.8024,4.8936,4.9748,5.0409,5.0854,5.129,5.1663,5.2046,5.2472,5.2629,5.2906,5.3128,5.323,5.3831,5.4512,5.4512,5.4512,5.4512,5.4512,5.4512,5.4512,5.4512,5.4512,5.4512,5.4512,5.4512,5.4512,5.4512,5.4512,5.4512,5.4512,5.4512,5.4512,5.4512,5.4512,5.4512,3.9305,3.9305,3.9305,3.9305,3.9305,3.9305,3.9305,3.9305,3.9305,3.9305,3.9305,3.9305,3.938,3.9557,3.9689,4.0172,4.0788,4.1421,4.2436,4.3374,4.4416,4.533,4.6186,4.6911,4.7311,4.7742,4.7958,4.7912,4.7404,4.6911,4.6511,4.648,4.5834,4.5511,4.5403,4.5018,4.4772,4.481,4.4795,4.4687,4.4656,4.461,4.461,4.461,4.461,4.461,4.461,4.461,4.461,4.461,4.461,4.461,4.461,4.461,4.461,4.461,4.461,4.461,4.461,4.461,4.461,4.461,4.461,4.461,4.461,4.461,4.461,4.461,4.461,4.461,4.461,4.4685,4.4761,4.4874,4.507,4.5344,4.5671,4.6296,4.7369,4.8417,4.9197,5.0025,5.0778,5.1215,5.1846,5.2279,5.2889,5.3365,5.3483,5.3566,5.3566,5.36,5.4028,5.4512,5.4512,5.4512,5.4512,5.4512,5.4512,5.4512,5.4512,5.4512,5.4512,5.4512,5.4512,5.4512,5.4512,5.4512,5.4512,5.4512,5.4512,5.4512,5.4512,5.4512,5.4512,3.9305,3.9305,3.9305,3.9305,3.9305,3.9305,3.9305,3.9305,3.9305,3.9305,3.9305,3.9305,3.9305,3.9305,3.9305,3.9793,4.056,4.1015,4.2266,4.3408,4.4594,4.5591,4.6705,4.715,4.7522,4.765,4.7681,4.745,4.6819,4.6219,4.5803,4.5757,4.5218,4.4926,4.491,4.4625,4.461,4.461,4.461,4.461,4.461,4.461,4.461,4.461,4.461,4.461,4.461,4.461,4.461,4.461,4.461,4.461,4.461,4.461,4.461,4.461,4.461,4.461,4.461,4.461,4.461,4.461,4.461,4.461,4.461,4.461,4.461,4.461,4.461,4.461,4.461,4.4723,4.4836,4.5039,4.522,4.5524,4.5861,4.6953,4.8004,4.8746,4.9505,5.0233,5.1032,5.1716,5.2295,5.3009,5.3748,5.419,5.4158,5.4158,5.4093,5.4126,5.4222,5.4512,5.4512,5.4512,5.4512,5.4512,5.4512,5.4512,5.4512,5.4512,5.4512,5.4512,5.4512,5.4512,5.4512,5.4512,5.4512,5.4512,5.4512,5.4512,5.4512,5.4512,5.4512,3.9305,3.9305,3.9305,3.9305,3.9305,3.9305,3.9305,3.9305,3.9305,3.9305,3.9305,3.9305,3.9305,3.9305,3.9305,3.9779,4.0475,4.0589,4.2185,4.3645,4.4418,4.5334,4.629,4.7041,4.6902,4.6954,4.676,4.6419,4.6065,4.5526,4.5126,4.511,4.4748,4.461,4.461,4.461,4.461,4.461,4.461,4.461,4.461,4.461,4.461,4.461,4.461,4.461,4.461,4.461,4.461,4.461,4.461,4.461,4.461,4.461,4.461,4.461,4.461,4.461,4.461,4.461,4.461,4.461,4.461,4.461,4.461,4.461,4.461,4.461,4.461,4.461,4.4648,4.4723,4.4911,4.5077,4.5456,4.5776,4.6837,4.8101,4.8825,4.9315,5.0071,5.0855,5.1627,5.2383,5.3009,5.3616,5.4399,5.448,5.4512,5.4512,5.4512,5.4512,5.4512,5.4512,5.4512,5.4512,5.4512,5.4512,5.4512,5.4512,5.4512,5.4512,5.4512,5.4512,5.4512,5.4512,5.4512,5.4512,5.4512,5.4512,5.4512,5.4512,5.4512,5.4512,5.4512,3.9305,3.9305,3.9305,3.9305,3.9305,3.9305,3.9305,3.9305,3.9305,3.9305,3.9305,3.9305,3.9305,3.9305,3.9349,3.9954,4.0416,4.0799,4.2318,4.3642,4.4131,4.5171,4.5893,4.6301,4.6316,4.6061,4.5773,4.5633,4.5434,4.501,4.4748,4.4625,4.461,4.461,4.461,4.461,4.461,4.461,4.461,4.461,4.461,4.461,4.461,4.461,4.461,4.461,4.461,4.461,4.461,4.461,4.461,4.461,4.461,4.461,4.461,4.461,4.461,4.461,4.461,4.461,4.461,4.461,4.461,4.461,4.461,4.461,4.461,4.461,4.461,4.4625,4.4701,4.4867,4.5033,4.5329,4.5702,4.6333,4.7754,4.9068,4.9542,4.9954,5.0751,5.15,5.2224,5.3026,5.3583,5.4222,5.4512,5.4512,5.4512,5.4512,5.4512,5.4512,5.4512,5.4512,5.4512,5.4512,5.4512,5.4512,5.4512,5.4512,5.4512,5.4512,5.4512,5.4512,5.4512,5.4512,5.4512,5.4512,5.4512,5.4512,5.4512,5.4512,5.4512,5.4512,5.4543,3.9305,3.9305,3.9305,3.9305,3.9305,3.9305,3.9305,3.9305,3.9305,3.9305,3.9305,3.9305,3.9305,3.9305,3.9305,3.9804,4.0699,4.1008,4.2266,4.3732,4.4052,4.5066,4.5771,4.5819,4.5897,4.563,4.5179,4.4857,4.4995,4.4764,4.461,4.461,4.461,4.461,4.461,4.461,4.461,4.461,4.461,4.461,4.461,4.461,4.461,4.461,4.461,4.461,4.461,4.461,4.461,4.461,4.461,4.461,4.461,4.461,4.461,4.461,4.461,4.461,4.461,4.461,4.461,4.461,4.461,4.461,4.461,4.461,4.461,4.461,4.4625,4.4687,4.4778,4.5089,4.5323,4.5737,4.6143,4.7265,4.8561,4.9495,5.0134,5.0795,5.1521,5.2224,5.2923,5.3449,5.3732,5.4254,5.4512,5.4512,5.4512,5.4512,5.4512,5.4512,5.4512,5.4512,5.4512,5.4512,5.4512,5.4512,5.4512,5.4512,5.4512,5.4512,5.4512,5.4512,5.4512,5.4512,5.4512,5.4512,5.4512,5.4512,5.4512,5.4512,5.4512,5.4543,5.4606]}]]